<?xml version="1.0" encoding="UTF-8" standalone="no" ?>
<gpx xmlns="http://www.topografix.com/GPX/1/1" xmlns:xsi="http://www.w3.org/2001/XMLSchema-instance" xsi:schemaLocation="http://www.topografix.com/GPX/1/1 http://www.topografix.com/GPX/1/1/gpx.xsd" version="1.1" creator="VisuGPX - https://www.visugpx.com">
  <metadata>
    <name>Puechabon - St Sylvestre</name>
    <desc><![CDATA[Très belle randonnée, variée... Beaux points de vue]]></desc>
  </metadata>
  <trk>
    <name><![CDATA[puechabon]]></name>
    <trkseg>
      <trkpt lat="43.72868" lon="3.6015">
        <ele>228.931152</ele>
        <time>2013-04-26T07:20:10Z</time>
      </trkpt>
      <trkpt lat="43.72868" lon="3.6015">
        <ele>229.411743</ele>
        <time>2013-04-26T07:20:11Z</time>
      </trkpt>
      <trkpt lat="43.72867" lon="3.60149">
        <ele>225.566528</ele>
        <time>2013-04-26T07:20:15Z</time>
      </trkpt>
      <trkpt lat="43.72866" lon="3.60149">
        <ele>225.566528</ele>
        <time>2013-04-26T07:20:16Z</time>
      </trkpt>
      <trkpt lat="43.72864" lon="3.60148">
        <ele>222.201782</ele>
        <time>2013-04-26T07:20:21Z</time>
      </trkpt>
      <trkpt lat="43.72857" lon="3.60145">
        <ele>221.240601</ele>
        <time>2013-04-26T07:20:50Z</time>
      </trkpt>
      <trkpt lat="43.72853" lon="3.60146">
        <ele>221.240601</ele>
        <time>2013-04-26T07:21:56Z</time>
      </trkpt>
      <trkpt lat="43.72855" lon="3.60145">
        <ele>221.721191</ele>
        <time>2013-04-26T07:22:17Z</time>
      </trkpt>
      <trkpt lat="43.72855" lon="3.60146">
        <ele>222.682495</ele>
        <time>2013-04-26T07:22:24Z</time>
      </trkpt>
      <trkpt lat="43.72856" lon="3.60147">
        <ele>221.721191</ele>
        <time>2013-04-26T07:22:36Z</time>
      </trkpt>
      <trkpt lat="43.72857" lon="3.60147">
        <ele>221.721191</ele>
        <time>2013-04-26T07:22:43Z</time>
      </trkpt>
      <trkpt lat="43.72858" lon="3.60148">
        <ele>222.682495</ele>
        <time>2013-04-26T07:23:07Z</time>
      </trkpt>
      <trkpt lat="43.7286" lon="3.60148">
        <ele>223.163208</ele>
        <time>2013-04-26T07:23:40Z</time>
      </trkpt>
      <trkpt lat="43.7286" lon="3.60148">
        <ele>222.201782</ele>
        <time>2013-04-26T07:24:12Z</time>
      </trkpt>
      <trkpt lat="43.72861" lon="3.60148">
        <ele>222.201782</ele>
        <time>2013-04-26T07:24:28Z</time>
      </trkpt>
      <trkpt lat="43.72857" lon="3.6015">
        <ele>223.163208</ele>
        <time>2013-04-26T07:25:14Z</time>
      </trkpt>
      <trkpt lat="43.72856" lon="3.60149">
        <ele>223.643799</ele>
        <time>2013-04-26T07:25:47Z</time>
      </trkpt>
      <trkpt lat="43.72858" lon="3.60143">
        <ele>222.201782</ele>
        <time>2013-04-26T07:26:00Z</time>
      </trkpt>
      <trkpt lat="43.72871" lon="3.60137">
        <ele>223.163208</ele>
        <time>2013-04-26T07:26:16Z</time>
      </trkpt>
      <trkpt lat="43.72895" lon="3.60137">
        <ele>219.317993</ele>
        <time>2013-04-26T07:26:38Z</time>
      </trkpt>
      <trkpt lat="43.72928" lon="3.6015">
        <ele>219.798584</ele>
        <time>2013-04-26T07:27:07Z</time>
      </trkpt>
      <trkpt lat="43.72942" lon="3.60164">
        <ele>219.798584</ele>
        <time>2013-04-26T07:27:22Z</time>
      </trkpt>
      <trkpt lat="43.72944" lon="3.60166">
        <ele>218.356567</ele>
        <time>2013-04-26T07:27:24Z</time>
      </trkpt>
      <trkpt lat="43.72962" lon="3.60181">
        <ele>218.83728</ele>
        <time>2013-04-26T07:27:42Z</time>
      </trkpt>
      <trkpt lat="43.72976" lon="3.60189">
        <ele>218.83728</ele>
        <time>2013-04-26T07:27:55Z</time>
      </trkpt>
      <trkpt lat="43.72988" lon="3.60192">
        <ele>220.279175</ele>
        <time>2013-04-26T07:28:06Z</time>
      </trkpt>
      <trkpt lat="43.72991" lon="3.60193">
        <ele>218.356567</ele>
        <time>2013-04-26T07:28:08Z</time>
      </trkpt>
      <trkpt lat="43.73015" lon="3.60193">
        <ele>219.317993</ele>
        <time>2013-04-26T07:28:29Z</time>
      </trkpt>
      <trkpt lat="43.73035" lon="3.60201">
        <ele>220.759888</ele>
        <time>2013-04-26T07:28:48Z</time>
      </trkpt>
      <trkpt lat="43.73052" lon="3.60192">
        <ele>221.721191</ele>
        <time>2013-04-26T07:29:05Z</time>
      </trkpt>
      <trkpt lat="43.73063" lon="3.6018">
        <ele>223.163208</ele>
        <time>2013-04-26T07:29:18Z</time>
      </trkpt>
      <trkpt lat="43.73083" lon="3.60172">
        <ele>223.163208</ele>
        <time>2013-04-26T07:29:38Z</time>
      </trkpt>
      <trkpt lat="43.73112" lon="3.60167">
        <ele>223.163208</ele>
        <time>2013-04-26T07:30:03Z</time>
      </trkpt>
      <trkpt lat="43.73117" lon="3.60164">
        <ele>223.163208</ele>
        <time>2013-04-26T07:30:08Z</time>
      </trkpt>
      <trkpt lat="43.73124" lon="3.6016">
        <ele>223.643799</ele>
        <time>2013-04-26T07:30:16Z</time>
      </trkpt>
      <trkpt lat="43.73144" lon="3.60148">
        <ele>223.163208</ele>
        <time>2013-04-26T07:30:35Z</time>
      </trkpt>
      <trkpt lat="43.73153" lon="3.60142">
        <ele>226.527832</ele>
        <time>2013-04-26T07:30:43Z</time>
      </trkpt>
      <trkpt lat="43.73178" lon="3.60128">
        <ele>227.969727</ele>
        <time>2013-04-26T07:31:08Z</time>
      </trkpt>
      <trkpt lat="43.73196" lon="3.60112">
        <ele>228.450439</ele>
        <time>2013-04-26T07:31:28Z</time>
      </trkpt>
      <trkpt lat="43.73197" lon="3.60111">
        <ele>229.411743</ele>
        <time>2013-04-26T07:31:30Z</time>
      </trkpt>
      <trkpt lat="43.73215" lon="3.60096">
        <ele>228.450439</ele>
        <time>2013-04-26T07:31:50Z</time>
      </trkpt>
      <trkpt lat="43.73232" lon="3.60086">
        <ele>231.814941</ele>
        <time>2013-04-26T07:32:07Z</time>
      </trkpt>
      <trkpt lat="43.73252" lon="3.60074">
        <ele>231.334351</ele>
        <time>2013-04-26T07:32:27Z</time>
      </trkpt>
      <trkpt lat="43.73275" lon="3.60059">
        <ele>232.776489</ele>
        <time>2013-04-26T07:32:50Z</time>
      </trkpt>
      <trkpt lat="43.73298" lon="3.60058">
        <ele>233.25708</ele>
        <time>2013-04-26T07:33:10Z</time>
      </trkpt>
      <trkpt lat="43.73324" lon="3.60061">
        <ele>232.776489</ele>
        <time>2013-04-26T07:33:33Z</time>
      </trkpt>
      <trkpt lat="43.73346" lon="3.60064">
        <ele>231.814941</ele>
        <time>2013-04-26T07:33:52Z</time>
      </trkpt>
      <trkpt lat="43.73364" lon="3.60061">
        <ele>231.814941</ele>
        <time>2013-04-26T07:34:09Z</time>
      </trkpt>
      <trkpt lat="43.73387" lon="3.60064">
        <ele>231.814941</ele>
        <time>2013-04-26T07:34:30Z</time>
      </trkpt>
      <trkpt lat="43.73406" lon="3.60071">
        <ele>232.776489</ele>
        <time>2013-04-26T07:34:48Z</time>
      </trkpt>
      <trkpt lat="43.73427" lon="3.60082">
        <ele>234.218384</ele>
        <time>2013-04-26T07:35:08Z</time>
      </trkpt>
      <trkpt lat="43.73451" lon="3.60094">
        <ele>234.218384</ele>
        <time>2013-04-26T07:35:30Z</time>
      </trkpt>
      <trkpt lat="43.73466" lon="3.60098">
        <ele>235.179688</ele>
        <time>2013-04-26T07:35:44Z</time>
      </trkpt>
      <trkpt lat="43.7347" lon="3.60099">
        <ele>235.660278</ele>
        <time>2013-04-26T07:35:48Z</time>
      </trkpt>
      <trkpt lat="43.73472" lon="3.60099">
        <ele>235.179688</ele>
        <time>2013-04-26T07:35:50Z</time>
      </trkpt>
      <trkpt lat="43.73479" lon="3.601">
        <ele>235.660278</ele>
        <time>2013-04-26T07:36:04Z</time>
      </trkpt>
      <trkpt lat="43.73481" lon="3.601">
        <ele>234.218384</ele>
        <time>2013-04-26T07:36:11Z</time>
      </trkpt>
      <trkpt lat="43.73485" lon="3.601">
        <ele>235.179688</ele>
        <time>2013-04-26T07:36:29Z</time>
      </trkpt>
      <trkpt lat="43.73488" lon="3.60098">
        <ele>235.660278</ele>
        <time>2013-04-26T07:36:53Z</time>
      </trkpt>
      <trkpt lat="43.73498" lon="3.601">
        <ele>237.102295</ele>
        <time>2013-04-26T07:37:03Z</time>
      </trkpt>
      <trkpt lat="43.73516" lon="3.60104">
        <ele>237.102295</ele>
        <time>2013-04-26T07:37:20Z</time>
      </trkpt>
      <trkpt lat="43.73536" lon="3.60108">
        <ele>238.544312</ele>
        <time>2013-04-26T07:37:39Z</time>
      </trkpt>
      <trkpt lat="43.73557" lon="3.60113">
        <ele>238.544312</ele>
        <time>2013-04-26T07:37:57Z</time>
      </trkpt>
      <trkpt lat="43.7358" lon="3.60115">
        <ele>239.505493</ele>
        <time>2013-04-26T07:38:16Z</time>
      </trkpt>
      <trkpt lat="43.73603" lon="3.60124">
        <ele>239.024902</ele>
        <time>2013-04-26T07:38:35Z</time>
      </trkpt>
      <trkpt lat="43.73606" lon="3.60126">
        <ele>239.986206</ele>
        <time>2013-04-26T07:38:38Z</time>
      </trkpt>
      <trkpt lat="43.73618" lon="3.60128">
        <ele>239.986206</ele>
        <time>2013-04-26T07:38:47Z</time>
      </trkpt>
      <trkpt lat="43.73632" lon="3.60133">
        <ele>244.312256</ele>
        <time>2013-04-26T07:39:00Z</time>
      </trkpt>
      <trkpt lat="43.73633" lon="3.60134">
        <ele>240.467041</ele>
        <time>2013-04-26T07:39:01Z</time>
      </trkpt>
      <trkpt lat="43.73639" lon="3.60137">
        <ele>241.908936</ele>
        <time>2013-04-26T07:39:06Z</time>
      </trkpt>
      <trkpt lat="43.73649" lon="3.6014">
        <ele>241.428223</ele>
        <time>2013-04-26T07:39:14Z</time>
      </trkpt>
      <trkpt lat="43.73667" lon="3.60148">
        <ele>243.35083</ele>
        <time>2013-04-26T07:39:29Z</time>
      </trkpt>
      <trkpt lat="43.73674" lon="3.60153">
        <ele>243.35083</ele>
        <time>2013-04-26T07:39:36Z</time>
      </trkpt>
      <trkpt lat="43.73694" lon="3.60167">
        <ele>244.312256</ele>
        <time>2013-04-26T07:39:55Z</time>
      </trkpt>
      <trkpt lat="43.73712" lon="3.60185">
        <ele>244.792847</ele>
        <time>2013-04-26T07:40:15Z</time>
      </trkpt>
      <trkpt lat="43.73714" lon="3.60187">
        <ele>244.312256</ele>
        <time>2013-04-26T07:40:17Z</time>
      </trkpt>
      <trkpt lat="43.73726" lon="3.6018">
        <ele>246.715454</ele>
        <time>2013-04-26T07:40:31Z</time>
      </trkpt>
      <trkpt lat="43.73731" lon="3.60168">
        <ele>248.157593</ele>
        <time>2013-04-26T07:40:40Z</time>
      </trkpt>
      <trkpt lat="43.73742" lon="3.60148">
        <ele>249.599487</ele>
        <time>2013-04-26T07:40:57Z</time>
      </trkpt>
      <trkpt lat="43.73764" lon="3.60143">
        <ele>252.002808</ele>
        <time>2013-04-26T07:41:15Z</time>
      </trkpt>
      <trkpt lat="43.73787" lon="3.6015">
        <ele>251.522095</ele>
        <time>2013-04-26T07:41:35Z</time>
      </trkpt>
      <trkpt lat="43.73801" lon="3.6015">
        <ele>251.041382</ele>
        <time>2013-04-26T07:41:46Z</time>
      </trkpt>
      <trkpt lat="43.73827" lon="3.60143">
        <ele>252.483398</ele>
        <time>2013-04-26T07:42:08Z</time>
      </trkpt>
      <trkpt lat="43.73841" lon="3.60132">
        <ele>253.444702</ele>
        <time>2013-04-26T07:42:24Z</time>
      </trkpt>
      <trkpt lat="43.73846" lon="3.60123">
        <ele>254.886597</ele>
        <time>2013-04-26T07:42:31Z</time>
      </trkpt>
      <trkpt lat="43.73851" lon="3.60102">
        <ele>255.848022</ele>
        <time>2013-04-26T07:42:45Z</time>
      </trkpt>
      <trkpt lat="43.73857" lon="3.60077">
        <ele>257.290039</ele>
        <time>2013-04-26T07:43:04Z</time>
      </trkpt>
      <trkpt lat="43.73863" lon="3.6005">
        <ele>259.212646</ele>
        <time>2013-04-26T07:43:24Z</time>
      </trkpt>
      <trkpt lat="43.73864" lon="3.60047">
        <ele>257.770752</ele>
        <time>2013-04-26T07:43:36Z</time>
      </trkpt>
      <trkpt lat="43.73868" lon="3.60035">
        <ele>260.17395</ele>
        <time>2013-04-26T07:43:45Z</time>
      </trkpt>
      <trkpt lat="43.7387" lon="3.60033">
        <ele>261.135254</ele>
        <time>2013-04-26T07:43:47Z</time>
      </trkpt>
      <trkpt lat="43.73874" lon="3.60014">
        <ele>262.096558</ele>
        <time>2013-04-26T07:43:59Z</time>
      </trkpt>
      <trkpt lat="43.7388" lon="3.59995">
        <ele>264.019287</ele>
        <time>2013-04-26T07:44:14Z</time>
      </trkpt>
      <trkpt lat="43.73884" lon="3.59978">
        <ele>267.383911</ele>
        <time>2013-04-26T07:44:26Z</time>
      </trkpt>
      <trkpt lat="43.73884" lon="3.59976">
        <ele>266.422485</ele>
        <time>2013-04-26T07:44:27Z</time>
      </trkpt>
      <trkpt lat="43.73887" lon="3.59967">
        <ele>267.864502</ele>
        <time>2013-04-26T07:44:33Z</time>
      </trkpt>
      <trkpt lat="43.73888" lon="3.59963">
        <ele>268.345093</ele>
        <time>2013-04-26T07:44:36Z</time>
      </trkpt>
      <trkpt lat="43.7389" lon="3.59955">
        <ele>267.383911</ele>
        <time>2013-04-26T07:44:42Z</time>
      </trkpt>
      <trkpt lat="43.73891" lon="3.59953">
        <ele>268.825806</ele>
        <time>2013-04-26T07:44:43Z</time>
      </trkpt>
      <trkpt lat="43.73896" lon="3.5993">
        <ele>272.19043</ele>
        <time>2013-04-26T07:44:59Z</time>
      </trkpt>
      <trkpt lat="43.73904" lon="3.59901">
        <ele>273.151855</ele>
        <time>2013-04-26T07:45:19Z</time>
      </trkpt>
      <trkpt lat="43.7391" lon="3.5988">
        <ele>274.113037</ele>
        <time>2013-04-26T07:45:34Z</time>
      </trkpt>
      <trkpt lat="43.73912" lon="3.59874">
        <ele>274.59375</ele>
        <time>2013-04-26T07:45:47Z</time>
      </trkpt>
      <trkpt lat="43.73914" lon="3.59867">
        <ele>276.516357</ele>
        <time>2013-04-26T07:45:55Z</time>
      </trkpt>
      <trkpt lat="43.73915" lon="3.59864">
        <ele>275.074463</ele>
        <time>2013-04-26T07:45:57Z</time>
      </trkpt>
      <trkpt lat="43.73917" lon="3.59856">
        <ele>275.074463</ele>
        <time>2013-04-26T07:46:04Z</time>
      </trkpt>
      <trkpt lat="43.7392" lon="3.5985">
        <ele>274.59375</ele>
        <time>2013-04-26T07:46:10Z</time>
      </trkpt>
      <trkpt lat="43.73921" lon="3.59844">
        <ele>274.113037</ele>
        <time>2013-04-26T07:46:14Z</time>
      </trkpt>
      <trkpt lat="43.73923" lon="3.59832">
        <ele>270.2677</ele>
        <time>2013-04-26T07:46:22Z</time>
      </trkpt>
      <trkpt lat="43.73924" lon="3.59831">
        <ele>275.555054</ele>
        <time>2013-04-26T07:46:23Z</time>
      </trkpt>
      <trkpt lat="43.73927" lon="3.59819">
        <ele>271.709717</ele>
        <time>2013-04-26T07:46:30Z</time>
      </trkpt>
      <trkpt lat="43.73935" lon="3.59787">
        <ele>271.229126</ele>
        <time>2013-04-26T07:46:51Z</time>
      </trkpt>
      <trkpt lat="43.73941" lon="3.5976">
        <ele>267.864502</ele>
        <time>2013-04-26T07:47:09Z</time>
      </trkpt>
      <trkpt lat="43.73949" lon="3.59739">
        <ele>267.864502</ele>
        <time>2013-04-26T07:47:30Z</time>
      </trkpt>
      <trkpt lat="43.73953" lon="3.59733">
        <ele>266.903198</ele>
        <time>2013-04-26T07:47:48Z</time>
      </trkpt>
      <trkpt lat="43.7396" lon="3.59726">
        <ele>267.383911</ele>
        <time>2013-04-26T07:47:59Z</time>
      </trkpt>
      <trkpt lat="43.73961" lon="3.59701">
        <ele>267.383911</ele>
        <time>2013-04-26T07:48:16Z</time>
      </trkpt>
      <trkpt lat="43.73965" lon="3.59679">
        <ele>266.422485</ele>
        <time>2013-04-26T07:48:35Z</time>
      </trkpt>
      <trkpt lat="43.7397" lon="3.59664">
        <ele>265.941895</ele>
        <time>2013-04-26T07:48:47Z</time>
      </trkpt>
      <trkpt lat="43.73977" lon="3.59661">
        <ele>267.383911</ele>
        <time>2013-04-26T07:48:54Z</time>
      </trkpt>
      <trkpt lat="43.73977" lon="3.59657">
        <ele>263.538574</ele>
        <time>2013-04-26T07:48:57Z</time>
      </trkpt>
      <trkpt lat="43.73978" lon="3.59656">
        <ele>267.383911</ele>
        <time>2013-04-26T07:48:58Z</time>
      </trkpt>
      <trkpt lat="43.73981" lon="3.5965">
        <ele>266.903198</ele>
        <time>2013-04-26T07:49:05Z</time>
      </trkpt>
      <trkpt lat="43.73985" lon="3.59634">
        <ele>265.941895</ele>
        <time>2013-04-26T07:49:17Z</time>
      </trkpt>
      <trkpt lat="43.73982" lon="3.59617">
        <ele>267.864502</ele>
        <time>2013-04-26T07:49:28Z</time>
      </trkpt>
      <trkpt lat="43.73983" lon="3.5961">
        <ele>268.825806</ele>
        <time>2013-04-26T07:49:32Z</time>
      </trkpt>
      <trkpt lat="43.73987" lon="3.59592">
        <ele>270.748413</ele>
        <time>2013-04-26T07:49:44Z</time>
      </trkpt>
      <trkpt lat="43.73996" lon="3.59567">
        <ele>272.19043</ele>
        <time>2013-04-26T07:50:00Z</time>
      </trkpt>
      <trkpt lat="43.74" lon="3.59558">
        <ele>272.19043</ele>
        <time>2013-04-26T07:50:10Z</time>
      </trkpt>
      <trkpt lat="43.74002" lon="3.59561">
        <ele>273.151855</ele>
        <time>2013-04-26T07:50:14Z</time>
      </trkpt>
      <trkpt lat="43.74006" lon="3.5956">
        <ele>272.671143</ele>
        <time>2013-04-26T07:50:18Z</time>
      </trkpt>
      <trkpt lat="43.74036" lon="3.59575">
        <ele>273.151855</ele>
        <time>2013-04-26T07:50:44Z</time>
      </trkpt>
      <trkpt lat="43.74057" lon="3.59584">
        <ele>273.151855</ele>
        <time>2013-04-26T07:51:04Z</time>
      </trkpt>
      <trkpt lat="43.74081" lon="3.59595">
        <ele>272.671143</ele>
        <time>2013-04-26T07:51:25Z</time>
      </trkpt>
      <trkpt lat="43.74106" lon="3.59608">
        <ele>272.671143</ele>
        <time>2013-04-26T07:51:47Z</time>
      </trkpt>
      <trkpt lat="43.74109" lon="3.5961">
        <ele>274.113037</ele>
        <time>2013-04-26T07:51:50Z</time>
      </trkpt>
      <trkpt lat="43.74116" lon="3.59614">
        <ele>274.59375</ele>
        <time>2013-04-26T07:51:57Z</time>
      </trkpt>
      <trkpt lat="43.74135" lon="3.59623">
        <ele>274.59375</ele>
        <time>2013-04-26T07:52:15Z</time>
      </trkpt>
      <trkpt lat="43.74147" lon="3.59628">
        <ele>274.113037</ele>
        <time>2013-04-26T07:52:31Z</time>
      </trkpt>
      <trkpt lat="43.74146" lon="3.59627">
        <ele>274.59375</ele>
        <time>2013-04-26T07:52:52Z</time>
      </trkpt>
      <trkpt lat="43.74146" lon="3.59629">
        <ele>270.2677</ele>
        <time>2013-04-26T07:53:03Z</time>
      </trkpt>
      <trkpt lat="43.74146" lon="3.5963">
        <ele>277.477661</ele>
        <time>2013-04-26T07:53:04Z</time>
      </trkpt>
      <trkpt lat="43.74147" lon="3.5963">
        <ele>273.632446</ele>
        <time>2013-04-26T07:53:07Z</time>
      </trkpt>
      <trkpt lat="43.74146" lon="3.59636">
        <ele>273.151855</ele>
        <time>2013-04-26T07:53:20Z</time>
      </trkpt>
      <trkpt lat="43.74144" lon="3.59647">
        <ele>274.113037</ele>
        <time>2013-04-26T07:53:29Z</time>
      </trkpt>
      <trkpt lat="43.74137" lon="3.59658">
        <ele>271.709717</ele>
        <time>2013-04-26T07:53:48Z</time>
      </trkpt>
      <trkpt lat="43.74139" lon="3.59654">
        <ele>271.709717</ele>
        <time>2013-04-26T07:54:04Z</time>
      </trkpt>
      <trkpt lat="43.74143" lon="3.59649">
        <ele>271.709717</ele>
        <time>2013-04-26T07:54:18Z</time>
      </trkpt>
      <trkpt lat="43.74143" lon="3.59649">
        <ele>271.709717</ele>
        <time>2013-04-26T07:54:36Z</time>
      </trkpt>
      <trkpt lat="43.74146" lon="3.59644">
        <ele>274.113037</ele>
        <time>2013-04-26T07:54:53Z</time>
      </trkpt>
      <trkpt lat="43.74146" lon="3.59632">
        <ele>272.671143</ele>
        <time>2013-04-26T07:55:07Z</time>
      </trkpt>
      <trkpt lat="43.74142" lon="3.59625">
        <ele>274.59375</ele>
        <time>2013-04-26T07:55:19Z</time>
      </trkpt>
      <trkpt lat="43.7414" lon="3.59624">
        <ele>275.074463</ele>
        <time>2013-04-26T07:55:21Z</time>
      </trkpt>
      <trkpt lat="43.74125" lon="3.59616">
        <ele>274.59375</ele>
        <time>2013-04-26T07:55:36Z</time>
      </trkpt>
      <trkpt lat="43.74107" lon="3.59607">
        <ele>274.113037</ele>
        <time>2013-04-26T07:55:54Z</time>
      </trkpt>
      <trkpt lat="43.74086" lon="3.59597">
        <ele>274.113037</ele>
        <time>2013-04-26T07:56:13Z</time>
      </trkpt>
      <trkpt lat="43.74083" lon="3.59595">
        <ele>274.59375</ele>
        <time>2013-04-26T07:56:17Z</time>
      </trkpt>
      <trkpt lat="43.74066" lon="3.59586">
        <ele>273.632446</ele>
        <time>2013-04-26T07:56:34Z</time>
      </trkpt>
      <trkpt lat="43.74056" lon="3.59582">
        <ele>272.671143</ele>
        <time>2013-04-26T07:56:43Z</time>
      </trkpt>
      <trkpt lat="43.74036" lon="3.59574">
        <ele>274.113037</ele>
        <time>2013-04-26T07:57:01Z</time>
      </trkpt>
      <trkpt lat="43.74014" lon="3.59561">
        <ele>273.151855</ele>
        <time>2013-04-26T07:57:19Z</time>
      </trkpt>
      <trkpt lat="43.74006" lon="3.59554">
        <ele>271.709717</ele>
        <time>2013-04-26T07:57:33Z</time>
      </trkpt>
      <trkpt lat="43.74006" lon="3.59552">
        <ele>273.151855</ele>
        <time>2013-04-26T07:57:35Z</time>
      </trkpt>
      <trkpt lat="43.74004" lon="3.59551">
        <ele>272.671143</ele>
        <time>2013-04-26T07:57:37Z</time>
      </trkpt>
      <trkpt lat="43.74003" lon="3.59548">
        <ele>272.671143</ele>
        <time>2013-04-26T07:57:40Z</time>
      </trkpt>
      <trkpt lat="43.74003" lon="3.59545">
        <ele>272.19043</ele>
        <time>2013-04-26T07:57:42Z</time>
      </trkpt>
      <trkpt lat="43.7401" lon="3.59514">
        <ele>274.59375</ele>
        <time>2013-04-26T07:58:03Z</time>
      </trkpt>
      <trkpt lat="43.74015" lon="3.59499">
        <ele>275.074463</ele>
        <time>2013-04-26T07:58:13Z</time>
      </trkpt>
      <trkpt lat="43.74017" lon="3.5949">
        <ele>273.632446</ele>
        <time>2013-04-26T07:58:21Z</time>
      </trkpt>
      <trkpt lat="43.74017" lon="3.5949">
        <ele>276.99707</ele>
        <time>2013-04-26T07:58:22Z</time>
      </trkpt>
      <trkpt lat="43.74017" lon="3.5949">
        <ele>275.555054</ele>
        <time>2013-04-26T07:58:23Z</time>
      </trkpt>
      <trkpt lat="43.7402" lon="3.59477">
        <ele>274.59375</ele>
        <time>2013-04-26T07:58:36Z</time>
      </trkpt>
      <trkpt lat="43.74026" lon="3.5945">
        <ele>276.516357</ele>
        <time>2013-04-26T07:58:52Z</time>
      </trkpt>
      <trkpt lat="43.74026" lon="3.59444">
        <ele>277.958252</ele>
        <time>2013-04-26T07:59:00Z</time>
      </trkpt>
      <trkpt lat="43.74027" lon="3.59444">
        <ele>277.477661</ele>
        <time>2013-04-26T07:59:12Z</time>
      </trkpt>
      <trkpt lat="43.74028" lon="3.59443">
        <ele>275.555054</ele>
        <time>2013-04-26T07:59:18Z</time>
      </trkpt>
      <trkpt lat="43.74031" lon="3.59435">
        <ele>276.516357</ele>
        <time>2013-04-26T07:59:22Z</time>
      </trkpt>
      <trkpt lat="43.74042" lon="3.59394">
        <ele>275.555054</ele>
        <time>2013-04-26T07:59:45Z</time>
      </trkpt>
      <trkpt lat="43.74044" lon="3.59389">
        <ele>276.516357</ele>
        <time>2013-04-26T07:59:50Z</time>
      </trkpt>
      <trkpt lat="43.74052" lon="3.5936">
        <ele>276.516357</ele>
        <time>2013-04-26T08:00:09Z</time>
      </trkpt>
      <trkpt lat="43.7406" lon="3.59326">
        <ele>275.555054</ele>
        <time>2013-04-26T08:00:30Z</time>
      </trkpt>
      <trkpt lat="43.74069" lon="3.59294">
        <ele>275.555054</ele>
        <time>2013-04-26T08:00:51Z</time>
      </trkpt>
      <trkpt lat="43.74071" lon="3.59287">
        <ele>276.99707</ele>
        <time>2013-04-26T08:00:55Z</time>
      </trkpt>
      <trkpt lat="43.74078" lon="3.59255">
        <ele>276.035645</ele>
        <time>2013-04-26T08:01:18Z</time>
      </trkpt>
      <trkpt lat="43.74078" lon="3.59254">
        <ele>275.555054</ele>
        <time>2013-04-26T08:01:36Z</time>
      </trkpt>
      <trkpt lat="43.74078" lon="3.59254">
        <ele>276.516357</ele>
        <time>2013-04-26T08:02:20Z</time>
      </trkpt>
      <trkpt lat="43.74079" lon="3.59252">
        <ele>276.516357</ele>
        <time>2013-04-26T08:02:34Z</time>
      </trkpt>
      <trkpt lat="43.74079" lon="3.59252">
        <ele>275.555054</ele>
        <time>2013-04-26T08:02:48Z</time>
      </trkpt>
      <trkpt lat="43.7408" lon="3.59252">
        <ele>276.035645</ele>
        <time>2013-04-26T08:03:08Z</time>
      </trkpt>
      <trkpt lat="43.74078" lon="3.5925">
        <ele>275.555054</ele>
        <time>2013-04-26T08:03:19Z</time>
      </trkpt>
      <trkpt lat="43.74073" lon="3.59246">
        <ele>275.074463</ele>
        <time>2013-04-26T08:03:24Z</time>
      </trkpt>
      <trkpt lat="43.7406" lon="3.5924">
        <ele>274.113037</ele>
        <time>2013-04-26T08:03:41Z</time>
      </trkpt>
      <trkpt lat="43.74036" lon="3.59229">
        <ele>273.632446</ele>
        <time>2013-04-26T08:04:04Z</time>
      </trkpt>
      <trkpt lat="43.74013" lon="3.59218">
        <ele>274.113037</ele>
        <time>2013-04-26T08:04:26Z</time>
      </trkpt>
      <trkpt lat="43.74001" lon="3.59212">
        <ele>274.59375</ele>
        <time>2013-04-26T08:04:37Z</time>
      </trkpt>
      <trkpt lat="43.7398" lon="3.59202">
        <ele>272.19043</ele>
        <time>2013-04-26T08:04:56Z</time>
      </trkpt>
      <trkpt lat="43.73978" lon="3.592">
        <ele>273.151855</ele>
        <time>2013-04-26T08:04:58Z</time>
      </trkpt>
      <trkpt lat="43.73951" lon="3.59186">
        <ele>273.151855</ele>
        <time>2013-04-26T08:05:22Z</time>
      </trkpt>
      <trkpt lat="43.73933" lon="3.59177">
        <ele>273.632446</ele>
        <time>2013-04-26T08:05:39Z</time>
      </trkpt>
      <trkpt lat="43.7391" lon="3.59165">
        <ele>272.671143</ele>
        <time>2013-04-26T08:06:00Z</time>
      </trkpt>
      <trkpt lat="43.73897" lon="3.59159">
        <ele>273.151855</ele>
        <time>2013-04-26T08:06:11Z</time>
      </trkpt>
      <trkpt lat="43.73895" lon="3.59158">
        <ele>274.59375</ele>
        <time>2013-04-26T08:06:13Z</time>
      </trkpt>
      <trkpt lat="43.73893" lon="3.59157">
        <ele>274.113037</ele>
        <time>2013-04-26T08:06:15Z</time>
      </trkpt>
      <trkpt lat="43.73867" lon="3.59145">
        <ele>275.555054</ele>
        <time>2013-04-26T08:06:39Z</time>
      </trkpt>
      <trkpt lat="43.73837" lon="3.59129">
        <ele>275.555054</ele>
        <time>2013-04-26T08:07:06Z</time>
      </trkpt>
      <trkpt lat="43.73815" lon="3.59118">
        <ele>276.516357</ele>
        <time>2013-04-26T08:07:27Z</time>
      </trkpt>
      <trkpt lat="43.73792" lon="3.59106">
        <ele>278.438965</ele>
        <time>2013-04-26T08:07:48Z</time>
      </trkpt>
      <trkpt lat="43.73773" lon="3.59095">
        <ele>279.880859</ele>
        <time>2013-04-26T08:08:07Z</time>
      </trkpt>
      <trkpt lat="43.73752" lon="3.59086">
        <ele>282.765015</ele>
        <time>2013-04-26T08:08:26Z</time>
      </trkpt>
      <trkpt lat="43.73734" lon="3.59075">
        <ele>282.765015</ele>
        <time>2013-04-26T08:08:44Z</time>
      </trkpt>
      <trkpt lat="43.73717" lon="3.59069">
        <ele>284.206909</ele>
        <time>2013-04-26T08:09:00Z</time>
      </trkpt>
      <trkpt lat="43.73697" lon="3.59059">
        <ele>284.687622</ele>
        <time>2013-04-26T08:09:20Z</time>
      </trkpt>
      <trkpt lat="43.73682" lon="3.59051">
        <ele>286.610229</ele>
        <time>2013-04-26T08:09:36Z</time>
      </trkpt>
      <trkpt lat="43.73676" lon="3.59048">
        <ele>287.571411</ele>
        <time>2013-04-26T08:09:42Z</time>
      </trkpt>
      <trkpt lat="43.73661" lon="3.5904">
        <ele>289.01355</ele>
        <time>2013-04-26T08:09:57Z</time>
      </trkpt>
      <trkpt lat="43.73651" lon="3.59036">
        <ele>289.01355</ele>
        <time>2013-04-26T08:10:09Z</time>
      </trkpt>
      <trkpt lat="43.73645" lon="3.59033">
        <ele>289.974854</ele>
        <time>2013-04-26T08:10:15Z</time>
      </trkpt>
      <trkpt lat="43.73624" lon="3.59024">
        <ele>289.974854</ele>
        <time>2013-04-26T08:10:34Z</time>
      </trkpt>
      <trkpt lat="43.7361" lon="3.59012">
        <ele>291.416748</ele>
        <time>2013-04-26T08:10:51Z</time>
      </trkpt>
      <trkpt lat="43.73603" lon="3.58991">
        <ele>291.897461</ele>
        <time>2013-04-26T08:11:07Z</time>
      </trkpt>
      <trkpt lat="43.73597" lon="3.5896">
        <ele>292.378174</ele>
        <time>2013-04-26T08:11:28Z</time>
      </trkpt>
      <trkpt lat="43.73602" lon="3.58937">
        <ele>293.820068</ele>
        <time>2013-04-26T08:11:47Z</time>
      </trkpt>
      <trkpt lat="43.73603" lon="3.58941">
        <ele>292.858765</ele>
        <time>2013-04-26T08:12:10Z</time>
      </trkpt>
      <trkpt lat="43.73603" lon="3.58941">
        <ele>292.378174</ele>
        <time>2013-04-26T08:12:49Z</time>
      </trkpt>
      <trkpt lat="43.73604" lon="3.58929">
        <ele>292.858765</ele>
        <time>2013-04-26T08:13:01Z</time>
      </trkpt>
      <trkpt lat="43.73605" lon="3.58925">
        <ele>295.261963</ele>
        <time>2013-04-26T08:13:04Z</time>
      </trkpt>
      <trkpt lat="43.73607" lon="3.58917">
        <ele>294.781372</ele>
        <time>2013-04-26T08:13:10Z</time>
      </trkpt>
      <trkpt lat="43.73605" lon="3.58906">
        <ele>295.742676</ele>
        <time>2013-04-26T08:13:19Z</time>
      </trkpt>
      <trkpt lat="43.73601" lon="3.58897">
        <ele>296.704102</ele>
        <time>2013-04-26T08:13:27Z</time>
      </trkpt>
      <trkpt lat="43.736" lon="3.58894">
        <ele>295.742676</ele>
        <time>2013-04-26T08:13:29Z</time>
      </trkpt>
      <trkpt lat="43.73597" lon="3.58885">
        <ele>299.1073</ele>
        <time>2013-04-26T08:13:36Z</time>
      </trkpt>
      <trkpt lat="43.73597" lon="3.58881">
        <ele>294.781372</ele>
        <time>2013-04-26T08:13:41Z</time>
      </trkpt>
      <trkpt lat="43.73597" lon="3.58881">
        <ele>298.626709</ele>
        <time>2013-04-26T08:13:45Z</time>
      </trkpt>
      <trkpt lat="43.73596" lon="3.58877">
        <ele>298.626709</ele>
        <time>2013-04-26T08:13:52Z</time>
      </trkpt>
      <trkpt lat="43.736" lon="3.58868">
        <ele>297.665405</ele>
        <time>2013-04-26T08:13:59Z</time>
      </trkpt>
      <trkpt lat="43.73622" lon="3.58845">
        <ele>300.549316</ele>
        <time>2013-04-26T08:14:22Z</time>
      </trkpt>
      <trkpt lat="43.73633" lon="3.58828">
        <ele>303.91394</ele>
        <time>2013-04-26T08:14:40Z</time>
      </trkpt>
      <trkpt lat="43.73632" lon="3.5882">
        <ele>303.433228</ele>
        <time>2013-04-26T08:14:51Z</time>
      </trkpt>
      <trkpt lat="43.73629" lon="3.58806">
        <ele>304.394653</ele>
        <time>2013-04-26T08:15:03Z</time>
      </trkpt>
      <trkpt lat="43.73622" lon="3.5879">
        <ele>306.797852</ele>
        <time>2013-04-26T08:15:21Z</time>
      </trkpt>
      <trkpt lat="43.73619" lon="3.58769">
        <ele>306.797852</ele>
        <time>2013-04-26T08:15:39Z</time>
      </trkpt>
      <trkpt lat="43.73619" lon="3.58764">
        <ele>309.201172</ele>
        <time>2013-04-26T08:15:43Z</time>
      </trkpt>
      <trkpt lat="43.73614" lon="3.58752">
        <ele>310.162476</ele>
        <time>2013-04-26T08:15:59Z</time>
      </trkpt>
      <trkpt lat="43.73609" lon="3.58753">
        <ele>309.681885</ele>
        <time>2013-04-26T08:16:11Z</time>
      </trkpt>
      <trkpt lat="43.73609" lon="3.58754">
        <ele>308.720459</ele>
        <time>2013-04-26T08:16:32Z</time>
      </trkpt>
      <trkpt lat="43.73609" lon="3.58753">
        <ele>309.201172</ele>
        <time>2013-04-26T08:16:47Z</time>
      </trkpt>
      <trkpt lat="43.73607" lon="3.58753">
        <ele>308.720459</ele>
        <time>2013-04-26T08:17:05Z</time>
      </trkpt>
      <trkpt lat="43.73589" lon="3.58739">
        <ele>309.201172</ele>
        <time>2013-04-26T08:17:23Z</time>
      </trkpt>
      <trkpt lat="43.73562" lon="3.58725">
        <ele>309.681885</ele>
        <time>2013-04-26T08:17:49Z</time>
      </trkpt>
      <trkpt lat="43.7355" lon="3.58703">
        <ele>306.317261</ele>
        <time>2013-04-26T08:18:07Z</time>
      </trkpt>
      <trkpt lat="43.73549" lon="3.58702">
        <ele>312.565796</ele>
        <time>2013-04-26T08:18:08Z</time>
      </trkpt>
      <trkpt lat="43.73545" lon="3.58693">
        <ele>307.278564</ele>
        <time>2013-04-26T08:18:15Z</time>
      </trkpt>
      <trkpt lat="43.73545" lon="3.58691">
        <ele>310.162476</ele>
        <time>2013-04-26T08:18:16Z</time>
      </trkpt>
      <trkpt lat="43.73544" lon="3.58664">
        <ele>312.085205</ele>
        <time>2013-04-26T08:18:36Z</time>
      </trkpt>
      <trkpt lat="43.73542" lon="3.58649">
        <ele>314.007812</ele>
        <time>2013-04-26T08:18:52Z</time>
      </trkpt>
      <trkpt lat="43.73541" lon="3.58644">
        <ele>314.969116</ele>
        <time>2013-04-26T08:18:56Z</time>
      </trkpt>
      <trkpt lat="43.73537" lon="3.58633">
        <ele>314.488403</ele>
        <time>2013-04-26T08:19:06Z</time>
      </trkpt>
      <trkpt lat="43.7353" lon="3.58616">
        <ele>317.372437</ele>
        <time>2013-04-26T08:19:19Z</time>
      </trkpt>
      <trkpt lat="43.73529" lon="3.58615">
        <ele>316.411011</ele>
        <time>2013-04-26T08:19:21Z</time>
      </trkpt>
      <trkpt lat="43.73528" lon="3.58612">
        <ele>317.372437</ele>
        <time>2013-04-26T08:19:23Z</time>
      </trkpt>
      <trkpt lat="43.73522" lon="3.58596">
        <ele>319.295044</ele>
        <time>2013-04-26T08:19:35Z</time>
      </trkpt>
      <trkpt lat="43.7352" lon="3.58593">
        <ele>319.295044</ele>
        <time>2013-04-26T08:19:39Z</time>
      </trkpt>
      <trkpt lat="43.73519" lon="3.58588">
        <ele>319.295044</ele>
        <time>2013-04-26T08:19:56Z</time>
      </trkpt>
      <trkpt lat="43.73518" lon="3.58589">
        <ele>318.814331</ele>
        <time>2013-04-26T08:20:28Z</time>
      </trkpt>
      <trkpt lat="43.73517" lon="3.58587">
        <ele>318.814331</ele>
        <time>2013-04-26T08:20:43Z</time>
      </trkpt>
      <trkpt lat="43.73518" lon="3.58585">
        <ele>318.814331</ele>
        <time>2013-04-26T08:21:35Z</time>
      </trkpt>
      <trkpt lat="43.73518" lon="3.58585">
        <ele>318.333618</ele>
        <time>2013-04-26T08:22:05Z</time>
      </trkpt>
      <trkpt lat="43.73518" lon="3.58585">
        <ele>318.814331</ele>
        <time>2013-04-26T08:22:58Z</time>
      </trkpt>
      <trkpt lat="43.73518" lon="3.58585">
        <ele>318.333618</ele>
        <time>2013-04-26T08:23:46Z</time>
      </trkpt>
      <trkpt lat="43.73518" lon="3.58586">
        <ele>317.372437</ele>
        <time>2013-04-26T08:24:22Z</time>
      </trkpt>
      <trkpt lat="43.73519" lon="3.58586">
        <ele>321.217773</ele>
        <time>2013-04-26T08:24:23Z</time>
      </trkpt>
      <trkpt lat="43.73519" lon="3.58586">
        <ele>317.853027</ele>
        <time>2013-04-26T08:24:24Z</time>
      </trkpt>
      <trkpt lat="43.73519" lon="3.58585">
        <ele>321.698364</ele>
        <time>2013-04-26T08:24:28Z</time>
      </trkpt>
      <trkpt lat="43.73522" lon="3.58583">
        <ele>317.853027</ele>
        <time>2013-04-26T08:24:34Z</time>
      </trkpt>
      <trkpt lat="43.73529" lon="3.5858">
        <ele>319.775635</ele>
        <time>2013-04-26T08:24:43Z</time>
      </trkpt>
      <trkpt lat="43.73531" lon="3.58579">
        <ele>320.256348</ele>
        <time>2013-04-26T08:24:45Z</time>
      </trkpt>
      <trkpt lat="43.73541" lon="3.58571">
        <ele>321.698364</ele>
        <time>2013-04-26T08:24:58Z</time>
      </trkpt>
      <trkpt lat="43.73553" lon="3.58562">
        <ele>324.101562</ele>
        <time>2013-04-26T08:25:14Z</time>
      </trkpt>
      <trkpt lat="43.73554" lon="3.5856">
        <ele>324.582275</ele>
        <time>2013-04-26T08:25:16Z</time>
      </trkpt>
      <trkpt lat="43.73567" lon="3.5855">
        <ele>326.504883</ele>
        <time>2013-04-26T08:25:32Z</time>
      </trkpt>
      <trkpt lat="43.73579" lon="3.58538">
        <ele>326.504883</ele>
        <time>2013-04-26T08:25:50Z</time>
      </trkpt>
      <trkpt lat="43.73592" lon="3.58529">
        <ele>329.388916</ele>
        <time>2013-04-26T08:26:08Z</time>
      </trkpt>
      <trkpt lat="43.73594" lon="3.58526">
        <ele>328.908325</ele>
        <time>2013-04-26T08:26:11Z</time>
      </trkpt>
      <trkpt lat="43.73606" lon="3.58516">
        <ele>331.311523</ele>
        <time>2013-04-26T08:26:25Z</time>
      </trkpt>
      <trkpt lat="43.73621" lon="3.58521">
        <ele>332.75354</ele>
        <time>2013-04-26T08:26:41Z</time>
      </trkpt>
      <trkpt lat="43.73633" lon="3.58527">
        <ele>331.792114</ele>
        <time>2013-04-26T08:26:56Z</time>
      </trkpt>
      <trkpt lat="43.73637" lon="3.58528">
        <ele>334.195435</ele>
        <time>2013-04-26T08:27:01Z</time>
      </trkpt>
      <trkpt lat="43.73642" lon="3.58531">
        <ele>333.234131</ele>
        <time>2013-04-26T08:27:07Z</time>
      </trkpt>
      <trkpt lat="43.73645" lon="3.58532">
        <ele>335.156738</ele>
        <time>2013-04-26T08:27:10Z</time>
      </trkpt>
      <trkpt lat="43.73648" lon="3.58533">
        <ele>334.676147</ele>
        <time>2013-04-26T08:27:14Z</time>
      </trkpt>
      <trkpt lat="43.73663" lon="3.58539">
        <ele>336.598877</ele>
        <time>2013-04-26T08:27:29Z</time>
      </trkpt>
      <trkpt lat="43.73677" lon="3.58543">
        <ele>337.560059</ele>
        <time>2013-04-26T08:27:43Z</time>
      </trkpt>
      <trkpt lat="43.73689" lon="3.58543">
        <ele>337.560059</ele>
        <time>2013-04-26T08:27:59Z</time>
      </trkpt>
      <trkpt lat="43.73692" lon="3.5854">
        <ele>336.118164</ele>
        <time>2013-04-26T08:28:04Z</time>
      </trkpt>
      <trkpt lat="43.73699" lon="3.5853">
        <ele>339.482666</ele>
        <time>2013-04-26T08:28:18Z</time>
      </trkpt>
      <trkpt lat="43.737" lon="3.58528">
        <ele>340.444092</ele>
        <time>2013-04-26T08:28:20Z</time>
      </trkpt>
      <trkpt lat="43.73702" lon="3.58525">
        <ele>340.924683</ele>
        <time>2013-04-26T08:28:30Z</time>
      </trkpt>
      <trkpt lat="43.73711" lon="3.58513">
        <ele>341.885986</ele>
        <time>2013-04-26T08:28:44Z</time>
      </trkpt>
      <trkpt lat="43.73721" lon="3.58503">
        <ele>343.327881</ele>
        <time>2013-04-26T08:28:59Z</time>
      </trkpt>
      <trkpt lat="43.73725" lon="3.58497">
        <ele>344.77002</ele>
        <time>2013-04-26T08:29:11Z</time>
      </trkpt>
      <trkpt lat="43.73736" lon="3.58482">
        <ele>344.77002</ele>
        <time>2013-04-26T08:29:26Z</time>
      </trkpt>
      <trkpt lat="43.73739" lon="3.58478">
        <ele>345.25061</ele>
        <time>2013-04-26T08:29:32Z</time>
      </trkpt>
      <trkpt lat="43.7375" lon="3.58466">
        <ele>345.731323</ele>
        <time>2013-04-26T08:29:48Z</time>
      </trkpt>
      <trkpt lat="43.73751" lon="3.58464">
        <ele>346.212036</ele>
        <time>2013-04-26T08:29:50Z</time>
      </trkpt>
      <trkpt lat="43.73753" lon="3.58461">
        <ele>348.134644</ele>
        <time>2013-04-26T08:29:53Z</time>
      </trkpt>
      <trkpt lat="43.7376" lon="3.58455">
        <ele>347.653931</ele>
        <time>2013-04-26T08:30:00Z</time>
      </trkpt>
      <trkpt lat="43.73766" lon="3.58449">
        <ele>349.095825</ele>
        <time>2013-04-26T08:30:06Z</time>
      </trkpt>
      <trkpt lat="43.73772" lon="3.58444">
        <ele>347.653931</ele>
        <time>2013-04-26T08:30:11Z</time>
      </trkpt>
      <trkpt lat="43.7379" lon="3.58429">
        <ele>348.615234</ele>
        <time>2013-04-26T08:30:28Z</time>
      </trkpt>
      <trkpt lat="43.73793" lon="3.58426">
        <ele>349.576538</ele>
        <time>2013-04-26T08:30:32Z</time>
      </trkpt>
      <trkpt lat="43.73808" lon="3.58413">
        <ele>349.576538</ele>
        <time>2013-04-26T08:30:50Z</time>
      </trkpt>
      <trkpt lat="43.73814" lon="3.58407">
        <ele>349.576538</ele>
        <time>2013-04-26T08:31:05Z</time>
      </trkpt>
      <trkpt lat="43.73813" lon="3.58406">
        <ele>350.537842</ele>
        <time>2013-04-26T08:31:16Z</time>
      </trkpt>
      <trkpt lat="43.73814" lon="3.58407">
        <ele>350.537842</ele>
        <time>2013-04-26T08:31:44Z</time>
      </trkpt>
      <trkpt lat="43.73814" lon="3.58407">
        <ele>347.173218</ele>
        <time>2013-04-26T08:31:54Z</time>
      </trkpt>
      <trkpt lat="43.73814" lon="3.58407">
        <ele>348.615234</ele>
        <time>2013-04-26T08:31:55Z</time>
      </trkpt>
      <trkpt lat="43.73814" lon="3.58407">
        <ele>352.941162</ele>
        <time>2013-04-26T08:31:56Z</time>
      </trkpt>
      <trkpt lat="43.73814" lon="3.58407">
        <ele>350.537842</ele>
        <time>2013-04-26T08:31:57Z</time>
      </trkpt>
      <trkpt lat="43.73814" lon="3.58408">
        <ele>350.537842</ele>
        <time>2013-04-26T08:32:44Z</time>
      </trkpt>
      <trkpt lat="43.73813" lon="3.58408">
        <ele>349.576538</ele>
        <time>2013-04-26T08:33:20Z</time>
      </trkpt>
      <trkpt lat="43.73814" lon="3.58407">
        <ele>349.095825</ele>
        <time>2013-04-26T08:33:34Z</time>
      </trkpt>
      <trkpt lat="43.73814" lon="3.58406">
        <ele>351.018433</ele>
        <time>2013-04-26T08:33:36Z</time>
      </trkpt>
      <trkpt lat="43.73813" lon="3.58408">
        <ele>351.018433</ele>
        <time>2013-04-26T08:33:49Z</time>
      </trkpt>
      <trkpt lat="43.73813" lon="3.58407">
        <ele>350.057251</ele>
        <time>2013-04-26T08:34:14Z</time>
      </trkpt>
      <trkpt lat="43.73814" lon="3.58407">
        <ele>350.537842</ele>
        <time>2013-04-26T08:34:29Z</time>
      </trkpt>
      <trkpt lat="43.73815" lon="3.58406">
        <ele>351.018433</ele>
        <time>2013-04-26T08:34:49Z</time>
      </trkpt>
      <trkpt lat="43.73823" lon="3.58393">
        <ele>348.615234</ele>
        <time>2013-04-26T08:35:06Z</time>
      </trkpt>
      <trkpt lat="43.73824" lon="3.58389">
        <ele>350.057251</ele>
        <time>2013-04-26T08:35:09Z</time>
      </trkpt>
      <trkpt lat="43.73832" lon="3.58374">
        <ele>348.615234</ele>
        <time>2013-04-26T08:35:26Z</time>
      </trkpt>
      <trkpt lat="43.73835" lon="3.58368">
        <ele>347.653931</ele>
        <time>2013-04-26T08:35:33Z</time>
      </trkpt>
      <trkpt lat="43.73847" lon="3.5835">
        <ele>348.615234</ele>
        <time>2013-04-26T08:35:51Z</time>
      </trkpt>
      <trkpt lat="43.7385" lon="3.58343">
        <ele>347.173218</ele>
        <time>2013-04-26T08:35:57Z</time>
      </trkpt>
      <trkpt lat="43.73851" lon="3.58342">
        <ele>345.25061</ele>
        <time>2013-04-26T08:35:59Z</time>
      </trkpt>
      <trkpt lat="43.73853" lon="3.58338">
        <ele>346.692627</ele>
        <time>2013-04-26T08:36:03Z</time>
      </trkpt>
      <trkpt lat="43.73854" lon="3.58336">
        <ele>345.25061</ele>
        <time>2013-04-26T08:36:05Z</time>
      </trkpt>
      <trkpt lat="43.73863" lon="3.5832">
        <ele>343.327881</ele>
        <time>2013-04-26T08:36:21Z</time>
      </trkpt>
      <trkpt lat="43.73864" lon="3.58317">
        <ele>343.327881</ele>
        <time>2013-04-26T08:36:24Z</time>
      </trkpt>
      <trkpt lat="43.73867" lon="3.58308">
        <ele>342.84729</ele>
        <time>2013-04-26T08:36:32Z</time>
      </trkpt>
      <trkpt lat="43.73875" lon="3.58284">
        <ele>341.405273</ele>
        <time>2013-04-26T08:36:50Z</time>
      </trkpt>
      <trkpt lat="43.7388" lon="3.58256">
        <ele>340.444092</ele>
        <time>2013-04-26T08:37:09Z</time>
      </trkpt>
      <trkpt lat="43.73881" lon="3.58243">
        <ele>339.002075</ele>
        <time>2013-04-26T08:37:18Z</time>
      </trkpt>
      <trkpt lat="43.73884" lon="3.58222">
        <ele>337.560059</ele>
        <time>2013-04-26T08:37:35Z</time>
      </trkpt>
      <trkpt lat="43.73886" lon="3.58205">
        <ele>337.560059</ele>
        <time>2013-04-26T08:37:47Z</time>
      </trkpt>
      <trkpt lat="43.73888" lon="3.58196">
        <ele>334.195435</ele>
        <time>2013-04-26T08:37:55Z</time>
      </trkpt>
      <trkpt lat="43.73892" lon="3.58179">
        <ele>332.75354</ele>
        <time>2013-04-26T08:38:10Z</time>
      </trkpt>
      <trkpt lat="43.73895" lon="3.58176">
        <ele>332.272827</ele>
        <time>2013-04-26T08:38:14Z</time>
      </trkpt>
      <trkpt lat="43.73896" lon="3.58171">
        <ele>333.234131</ele>
        <time>2013-04-26T08:38:18Z</time>
      </trkpt>
      <trkpt lat="43.73894" lon="3.58151">
        <ele>331.311523</ele>
        <time>2013-04-26T08:38:36Z</time>
      </trkpt>
      <trkpt lat="43.73897" lon="3.58135">
        <ele>328.908325</ele>
        <time>2013-04-26T08:38:50Z</time>
      </trkpt>
      <trkpt lat="43.73898" lon="3.58125">
        <ele>327.946777</ele>
        <time>2013-04-26T08:38:58Z</time>
      </trkpt>
      <trkpt lat="43.739" lon="3.58106">
        <ele>325.543579</ele>
        <time>2013-04-26T08:39:14Z</time>
      </trkpt>
      <trkpt lat="43.73909" lon="3.58082">
        <ele>323.620972</ele>
        <time>2013-04-26T08:39:34Z</time>
      </trkpt>
      <trkpt lat="43.73922" lon="3.58075">
        <ele>322.178955</ele>
        <time>2013-04-26T08:39:47Z</time>
      </trkpt>
      <trkpt lat="43.73926" lon="3.58066">
        <ele>322.178955</ele>
        <time>2013-04-26T08:39:54Z</time>
      </trkpt>
      <trkpt lat="43.73939" lon="3.58055">
        <ele>317.372437</ele>
        <time>2013-04-26T08:40:09Z</time>
      </trkpt>
      <trkpt lat="43.73944" lon="3.58049">
        <ele>316.411011</ele>
        <time>2013-04-26T08:40:17Z</time>
      </trkpt>
      <trkpt lat="43.73956" lon="3.58043">
        <ele>314.007812</ele>
        <time>2013-04-26T08:40:32Z</time>
      </trkpt>
      <trkpt lat="43.7396" lon="3.58046">
        <ele>313.046509</ele>
        <time>2013-04-26T08:40:44Z</time>
      </trkpt>
      <trkpt lat="43.73963" lon="3.58056">
        <ele>314.007812</ele>
        <time>2013-04-26T08:40:51Z</time>
      </trkpt>
      <trkpt lat="43.73971" lon="3.58055">
        <ele>313.527222</ele>
        <time>2013-04-26T08:41:02Z</time>
      </trkpt>
      <trkpt lat="43.73979" lon="3.58045">
        <ele>312.565796</ele>
        <time>2013-04-26T08:41:16Z</time>
      </trkpt>
      <trkpt lat="43.73978" lon="3.58039">
        <ele>313.527222</ele>
        <time>2013-04-26T08:41:22Z</time>
      </trkpt>
      <trkpt lat="43.73974" lon="3.58033">
        <ele>313.046509</ele>
        <time>2013-04-26T08:41:36Z</time>
      </trkpt>
      <trkpt lat="43.73973" lon="3.58023">
        <ele>313.046509</ele>
        <time>2013-04-26T08:41:49Z</time>
      </trkpt>
      <trkpt lat="43.73969" lon="3.58025">
        <ele>313.046509</ele>
        <time>2013-04-26T08:42:02Z</time>
      </trkpt>
      <trkpt lat="43.73966" lon="3.58027">
        <ele>312.085205</ele>
        <time>2013-04-26T08:42:08Z</time>
      </trkpt>
      <trkpt lat="43.7396" lon="3.5803">
        <ele>312.565796</ele>
        <time>2013-04-26T08:42:19Z</time>
      </trkpt>
      <trkpt lat="43.73963" lon="3.58026">
        <ele>313.046509</ele>
        <time>2013-04-26T08:42:49Z</time>
      </trkpt>
      <trkpt lat="43.73963" lon="3.58025">
        <ele>312.085205</ele>
        <time>2013-04-26T08:43:09Z</time>
      </trkpt>
      <trkpt lat="43.7396" lon="3.58021">
        <ele>312.565796</ele>
        <time>2013-04-26T08:43:21Z</time>
      </trkpt>
      <trkpt lat="43.73959" lon="3.58016">
        <ele>312.085205</ele>
        <time>2013-04-26T08:43:32Z</time>
      </trkpt>
      <trkpt lat="43.7396" lon="3.58015">
        <ele>314.007812</ele>
        <time>2013-04-26T08:43:45Z</time>
      </trkpt>
      <trkpt lat="43.7396" lon="3.58014">
        <ele>312.565796</ele>
        <time>2013-04-26T08:43:48Z</time>
      </trkpt>
      <trkpt lat="43.7396" lon="3.58014">
        <ele>312.565796</ele>
        <time>2013-04-26T08:44:00Z</time>
      </trkpt>
      <trkpt lat="43.73962" lon="3.58007">
        <ele>313.527222</ele>
        <time>2013-04-26T08:44:14Z</time>
      </trkpt>
      <trkpt lat="43.73963" lon="3.57992">
        <ele>311.123779</ele>
        <time>2013-04-26T08:44:27Z</time>
      </trkpt>
      <trkpt lat="43.73964" lon="3.57987">
        <ele>312.085205</ele>
        <time>2013-04-26T08:44:32Z</time>
      </trkpt>
      <trkpt lat="43.73965" lon="3.57969">
        <ele>311.123779</ele>
        <time>2013-04-26T08:44:46Z</time>
      </trkpt>
      <trkpt lat="43.73965" lon="3.57957">
        <ele>309.681885</ele>
        <time>2013-04-26T08:44:56Z</time>
      </trkpt>
      <trkpt lat="43.73965" lon="3.57954">
        <ele>311.604492</ele>
        <time>2013-04-26T08:44:59Z</time>
      </trkpt>
      <trkpt lat="43.73962" lon="3.57945">
        <ele>308.720459</ele>
        <time>2013-04-26T08:45:13Z</time>
      </trkpt>
      <trkpt lat="43.73958" lon="3.57936">
        <ele>307.278564</ele>
        <time>2013-04-26T08:45:28Z</time>
      </trkpt>
      <trkpt lat="43.73954" lon="3.5793">
        <ele>302.952515</ele>
        <time>2013-04-26T08:45:44Z</time>
      </trkpt>
      <trkpt lat="43.73954" lon="3.57929">
        <ele>306.317261</ele>
        <time>2013-04-26T08:45:45Z</time>
      </trkpt>
      <trkpt lat="43.7395" lon="3.57923">
        <ele>303.91394</ele>
        <time>2013-04-26T08:45:58Z</time>
      </trkpt>
      <trkpt lat="43.73945" lon="3.57916">
        <ele>304.875244</ele>
        <time>2013-04-26T08:46:08Z</time>
      </trkpt>
      <trkpt lat="43.73941" lon="3.5791">
        <ele>300.549316</ele>
        <time>2013-04-26T08:46:15Z</time>
      </trkpt>
      <trkpt lat="43.73938" lon="3.57909">
        <ele>300.068726</ele>
        <time>2013-04-26T08:46:24Z</time>
      </trkpt>
      <trkpt lat="43.7393" lon="3.57905">
        <ele>297.665405</ele>
        <time>2013-04-26T08:46:36Z</time>
      </trkpt>
      <trkpt lat="43.73923" lon="3.57904">
        <ele>296.223511</ele>
        <time>2013-04-26T08:46:50Z</time>
      </trkpt>
      <trkpt lat="43.73917" lon="3.57902">
        <ele>296.704102</ele>
        <time>2013-04-26T08:47:01Z</time>
      </trkpt>
      <trkpt lat="43.73916" lon="3.57901">
        <ele>295.261963</ele>
        <time>2013-04-26T08:47:11Z</time>
      </trkpt>
      <trkpt lat="43.73915" lon="3.57896">
        <ele>296.704102</ele>
        <time>2013-04-26T08:47:24Z</time>
      </trkpt>
      <trkpt lat="43.73914" lon="3.57895">
        <ele>293.339355</ele>
        <time>2013-04-26T08:47:27Z</time>
      </trkpt>
      <trkpt lat="43.73913" lon="3.57894">
        <ele>298.146118</ele>
        <time>2013-04-26T08:47:28Z</time>
      </trkpt>
      <trkpt lat="43.73912" lon="3.57893">
        <ele>295.742676</ele>
        <time>2013-04-26T08:47:31Z</time>
      </trkpt>
      <trkpt lat="43.73909" lon="3.57886">
        <ele>295.261963</ele>
        <time>2013-04-26T08:47:42Z</time>
      </trkpt>
      <trkpt lat="43.73908" lon="3.57883">
        <ele>298.146118</ele>
        <time>2013-04-26T08:47:44Z</time>
      </trkpt>
      <trkpt lat="43.73908" lon="3.57883">
        <ele>297.184692</ele>
        <time>2013-04-26T08:47:45Z</time>
      </trkpt>
      <trkpt lat="43.73907" lon="3.57881">
        <ele>296.704102</ele>
        <time>2013-04-26T08:47:47Z</time>
      </trkpt>
      <trkpt lat="43.73905" lon="3.57875">
        <ele>296.704102</ele>
        <time>2013-04-26T08:47:52Z</time>
      </trkpt>
      <trkpt lat="43.73902" lon="3.57863">
        <ele>296.223511</ele>
        <time>2013-04-26T08:48:05Z</time>
      </trkpt>
      <trkpt lat="43.73902" lon="3.5786">
        <ele>297.665405</ele>
        <time>2013-04-26T08:48:07Z</time>
      </trkpt>
      <trkpt lat="43.73902" lon="3.57859">
        <ele>296.704102</ele>
        <time>2013-04-26T08:48:08Z</time>
      </trkpt>
      <trkpt lat="43.739" lon="3.57853">
        <ele>296.704102</ele>
        <time>2013-04-26T08:48:13Z</time>
      </trkpt>
      <trkpt lat="43.73899" lon="3.57849">
        <ele>298.146118</ele>
        <time>2013-04-26T08:48:16Z</time>
      </trkpt>
      <trkpt lat="43.73895" lon="3.57835">
        <ele>297.665405</ele>
        <time>2013-04-26T08:48:30Z</time>
      </trkpt>
      <trkpt lat="43.73893" lon="3.57828">
        <ele>298.146118</ele>
        <time>2013-04-26T08:48:43Z</time>
      </trkpt>
      <trkpt lat="43.7389" lon="3.57822">
        <ele>297.665405</ele>
        <time>2013-04-26T08:48:54Z</time>
      </trkpt>
      <trkpt lat="43.73888" lon="3.57814">
        <ele>297.665405</ele>
        <time>2013-04-26T08:49:05Z</time>
      </trkpt>
      <trkpt lat="43.73885" lon="3.57809">
        <ele>298.626709</ele>
        <time>2013-04-26T08:49:10Z</time>
      </trkpt>
      <trkpt lat="43.73884" lon="3.57808">
        <ele>297.665405</ele>
        <time>2013-04-26T08:49:12Z</time>
      </trkpt>
      <trkpt lat="43.73883" lon="3.57806">
        <ele>296.704102</ele>
        <time>2013-04-26T08:49:14Z</time>
      </trkpt>
      <trkpt lat="43.73883" lon="3.57806">
        <ele>299.588013</ele>
        <time>2013-04-26T08:49:15Z</time>
      </trkpt>
      <trkpt lat="43.73882" lon="3.57806">
        <ele>298.146118</ele>
        <time>2013-04-26T08:49:16Z</time>
      </trkpt>
      <trkpt lat="43.7388" lon="3.57806">
        <ele>297.665405</ele>
        <time>2013-04-26T08:49:18Z</time>
      </trkpt>
      <trkpt lat="43.73878" lon="3.57805">
        <ele>301.991333</ele>
        <time>2013-04-26T08:49:20Z</time>
      </trkpt>
      <trkpt lat="43.73877" lon="3.57804">
        <ele>301.991333</ele>
        <time>2013-04-26T08:49:21Z</time>
      </trkpt>
      <trkpt lat="43.73877" lon="3.57803">
        <ele>297.184692</ele>
        <time>2013-04-26T08:49:22Z</time>
      </trkpt>
      <trkpt lat="43.73877" lon="3.57801">
        <ele>298.626709</ele>
        <time>2013-04-26T08:49:23Z</time>
      </trkpt>
      <trkpt lat="43.73875" lon="3.57798">
        <ele>295.742676</ele>
        <time>2013-04-26T08:49:26Z</time>
      </trkpt>
      <trkpt lat="43.73871" lon="3.57796">
        <ele>299.588013</ele>
        <time>2013-04-26T08:49:35Z</time>
      </trkpt>
      <trkpt lat="43.73866" lon="3.5779">
        <ele>296.223511</ele>
        <time>2013-04-26T08:49:44Z</time>
      </trkpt>
      <trkpt lat="43.73859" lon="3.57784">
        <ele>297.184692</ele>
        <time>2013-04-26T08:49:56Z</time>
      </trkpt>
      <trkpt lat="43.73854" lon="3.5778">
        <ele>292.858765</ele>
        <time>2013-04-26T08:50:04Z</time>
      </trkpt>
      <trkpt lat="43.73852" lon="3.57779">
        <ele>296.704102</ele>
        <time>2013-04-26T08:50:06Z</time>
      </trkpt>
      <trkpt lat="43.73849" lon="3.57774">
        <ele>291.897461</ele>
        <time>2013-04-26T08:50:13Z</time>
      </trkpt>
      <trkpt lat="43.73849" lon="3.57774">
        <ele>291.897461</ele>
        <time>2013-04-26T08:50:14Z</time>
      </trkpt>
      <trkpt lat="43.73847" lon="3.57773">
        <ele>293.820068</ele>
        <time>2013-04-26T08:50:16Z</time>
      </trkpt>
      <trkpt lat="43.73843" lon="3.57772">
        <ele>293.820068</ele>
        <time>2013-04-26T08:50:21Z</time>
      </trkpt>
      <trkpt lat="43.73837" lon="3.57768">
        <ele>292.858765</ele>
        <time>2013-04-26T08:50:33Z</time>
      </trkpt>
      <trkpt lat="43.73829" lon="3.57764">
        <ele>294.300781</ele>
        <time>2013-04-26T08:50:44Z</time>
      </trkpt>
      <trkpt lat="43.73824" lon="3.5776">
        <ele>292.378174</ele>
        <time>2013-04-26T08:50:56Z</time>
      </trkpt>
      <trkpt lat="43.73816" lon="3.57754">
        <ele>293.339355</ele>
        <time>2013-04-26T08:51:07Z</time>
      </trkpt>
      <trkpt lat="43.73815" lon="3.57752">
        <ele>293.339355</ele>
        <time>2013-04-26T08:51:09Z</time>
      </trkpt>
      <trkpt lat="43.7381" lon="3.57741">
        <ele>294.781372</ele>
        <time>2013-04-26T08:51:24Z</time>
      </trkpt>
      <trkpt lat="43.73805" lon="3.57729">
        <ele>296.223511</ele>
        <time>2013-04-26T08:51:37Z</time>
      </trkpt>
      <trkpt lat="43.73802" lon="3.57722">
        <ele>295.261963</ele>
        <time>2013-04-26T08:51:43Z</time>
      </trkpt>
      <trkpt lat="43.73793" lon="3.57706">
        <ele>297.184692</ele>
        <time>2013-04-26T08:51:58Z</time>
      </trkpt>
      <trkpt lat="43.73778" lon="3.57696">
        <ele>298.626709</ele>
        <time>2013-04-26T08:52:15Z</time>
      </trkpt>
      <trkpt lat="43.73763" lon="3.5768">
        <ele>297.184692</ele>
        <time>2013-04-26T08:52:32Z</time>
      </trkpt>
      <trkpt lat="43.73757" lon="3.57673">
        <ele>296.704102</ele>
        <time>2013-04-26T08:52:41Z</time>
      </trkpt>
      <trkpt lat="43.73751" lon="3.57669">
        <ele>297.184692</ele>
        <time>2013-04-26T08:52:47Z</time>
      </trkpt>
      <trkpt lat="43.73748" lon="3.57667">
        <ele>296.223511</ele>
        <time>2013-04-26T08:53:07Z</time>
      </trkpt>
      <trkpt lat="43.73748" lon="3.57663">
        <ele>295.742676</ele>
        <time>2013-04-26T08:53:22Z</time>
      </trkpt>
      <trkpt lat="43.73759" lon="3.57657">
        <ele>294.781372</ele>
        <time>2013-04-26T08:53:37Z</time>
      </trkpt>
      <trkpt lat="43.73765" lon="3.57653">
        <ele>294.300781</ele>
        <time>2013-04-26T08:53:50Z</time>
      </trkpt>
      <trkpt lat="43.73771" lon="3.5765">
        <ele>291.416748</ele>
        <time>2013-04-26T08:54:03Z</time>
      </trkpt>
      <trkpt lat="43.73778" lon="3.57647">
        <ele>289.01355</ele>
        <time>2013-04-26T08:54:15Z</time>
      </trkpt>
      <trkpt lat="43.73785" lon="3.57645">
        <ele>287.09082</ele>
        <time>2013-04-26T08:54:28Z</time>
      </trkpt>
      <trkpt lat="43.73791" lon="3.57644">
        <ele>284.206909</ele>
        <time>2013-04-26T08:54:41Z</time>
      </trkpt>
      <trkpt lat="43.73791" lon="3.57643">
        <ele>284.206909</ele>
        <time>2013-04-26T08:54:42Z</time>
      </trkpt>
      <trkpt lat="43.73798" lon="3.57642">
        <ele>280.842407</ele>
        <time>2013-04-26T08:54:53Z</time>
      </trkpt>
      <trkpt lat="43.73807" lon="3.57643">
        <ele>279.400269</ele>
        <time>2013-04-26T08:55:08Z</time>
      </trkpt>
      <trkpt lat="43.73811" lon="3.57641">
        <ele>278.438965</ele>
        <time>2013-04-26T08:55:22Z</time>
      </trkpt>
      <trkpt lat="43.73812" lon="3.5764">
        <ele>277.477661</ele>
        <time>2013-04-26T08:55:24Z</time>
      </trkpt>
      <trkpt lat="43.73815" lon="3.57639">
        <ele>276.516357</ele>
        <time>2013-04-26T08:55:32Z</time>
      </trkpt>
      <trkpt lat="43.73823" lon="3.57635">
        <ele>276.035645</ele>
        <time>2013-04-26T08:55:45Z</time>
      </trkpt>
      <trkpt lat="43.73829" lon="3.57634">
        <ele>275.555054</ele>
        <time>2013-04-26T08:55:59Z</time>
      </trkpt>
      <trkpt lat="43.73833" lon="3.57633">
        <ele>276.99707</ele>
        <time>2013-04-26T08:56:06Z</time>
      </trkpt>
      <trkpt lat="43.73834" lon="3.57633">
        <ele>276.516357</ele>
        <time>2013-04-26T08:56:29Z</time>
      </trkpt>
      <trkpt lat="43.73836" lon="3.57632">
        <ele>276.035645</ele>
        <time>2013-04-26T08:56:44Z</time>
      </trkpt>
      <trkpt lat="43.73836" lon="3.57631">
        <ele>274.59375</ele>
        <time>2013-04-26T08:56:49Z</time>
      </trkpt>
      <trkpt lat="43.73837" lon="3.57632">
        <ele>275.555054</ele>
        <time>2013-04-26T08:56:51Z</time>
      </trkpt>
      <trkpt lat="43.73838" lon="3.57634">
        <ele>272.19043</ele>
        <time>2013-04-26T08:56:59Z</time>
      </trkpt>
      <trkpt lat="43.73842" lon="3.57634">
        <ele>271.229126</ele>
        <time>2013-04-26T08:57:09Z</time>
      </trkpt>
      <trkpt lat="43.73845" lon="3.57632">
        <ele>268.345093</ele>
        <time>2013-04-26T08:57:19Z</time>
      </trkpt>
      <trkpt lat="43.73847" lon="3.57628">
        <ele>267.864502</ele>
        <time>2013-04-26T08:57:31Z</time>
      </trkpt>
      <trkpt lat="43.73848" lon="3.57626">
        <ele>264.499878</ele>
        <time>2013-04-26T08:57:36Z</time>
      </trkpt>
      <trkpt lat="43.73852" lon="3.57623">
        <ele>264.019287</ele>
        <time>2013-04-26T08:57:48Z</time>
      </trkpt>
      <trkpt lat="43.73857" lon="3.57625">
        <ele>262.577148</ele>
        <time>2013-04-26T08:58:02Z</time>
      </trkpt>
      <trkpt lat="43.73859" lon="3.57619">
        <ele>261.135254</ele>
        <time>2013-04-26T08:58:14Z</time>
      </trkpt>
      <trkpt lat="43.73864" lon="3.57619">
        <ele>259.693359</ele>
        <time>2013-04-26T08:58:24Z</time>
      </trkpt>
      <trkpt lat="43.73867" lon="3.5762">
        <ele>258.251343</ele>
        <time>2013-04-26T08:58:28Z</time>
      </trkpt>
      <trkpt lat="43.73869" lon="3.57618">
        <ele>256.809326</ele>
        <time>2013-04-26T08:58:30Z</time>
      </trkpt>
      <trkpt lat="43.73874" lon="3.57619">
        <ele>254.886597</ele>
        <time>2013-04-26T08:58:35Z</time>
      </trkpt>
      <trkpt lat="43.73877" lon="3.57617">
        <ele>253.444702</ele>
        <time>2013-04-26T08:58:44Z</time>
      </trkpt>
      <trkpt lat="43.73878" lon="3.57616">
        <ele>255.36731</ele>
        <time>2013-04-26T08:58:46Z</time>
      </trkpt>
      <trkpt lat="43.73882" lon="3.57617">
        <ele>254.406006</ele>
        <time>2013-04-26T08:59:00Z</time>
      </trkpt>
      <trkpt lat="43.73885" lon="3.57614">
        <ele>253.444702</ele>
        <time>2013-04-26T08:59:14Z</time>
      </trkpt>
      <trkpt lat="43.7389" lon="3.57613">
        <ele>251.522095</ele>
        <time>2013-04-26T08:59:32Z</time>
      </trkpt>
      <trkpt lat="43.73891" lon="3.57613">
        <ele>250.0802</ele>
        <time>2013-04-26T08:59:40Z</time>
      </trkpt>
      <trkpt lat="43.73892" lon="3.57613">
        <ele>252.002808</ele>
        <time>2013-04-26T08:59:42Z</time>
      </trkpt>
      <trkpt lat="43.73894" lon="3.57612">
        <ele>249.599487</ele>
        <time>2013-04-26T08:59:44Z</time>
      </trkpt>
      <trkpt lat="43.73899" lon="3.57613">
        <ele>247.676758</ele>
        <time>2013-04-26T08:59:54Z</time>
      </trkpt>
      <trkpt lat="43.73908" lon="3.5761">
        <ele>244.312256</ele>
        <time>2013-04-26T09:00:08Z</time>
      </trkpt>
      <trkpt lat="43.73909" lon="3.57611">
        <ele>240.947632</ele>
        <time>2013-04-26T09:00:19Z</time>
      </trkpt>
      <trkpt lat="43.73909" lon="3.5761">
        <ele>244.312256</ele>
        <time>2013-04-26T09:00:21Z</time>
      </trkpt>
      <trkpt lat="43.73911" lon="3.57611">
        <ele>240.947632</ele>
        <time>2013-04-26T09:00:25Z</time>
      </trkpt>
      <trkpt lat="43.73911" lon="3.57611">
        <ele>241.428223</ele>
        <time>2013-04-26T09:00:26Z</time>
      </trkpt>
      <trkpt lat="43.73916" lon="3.5761">
        <ele>237.582886</ele>
        <time>2013-04-26T09:00:37Z</time>
      </trkpt>
      <trkpt lat="43.73925" lon="3.57606">
        <ele>236.621704</ele>
        <time>2013-04-26T09:00:49Z</time>
      </trkpt>
      <trkpt lat="43.7393" lon="3.576">
        <ele>235.660278</ele>
        <time>2013-04-26T09:01:02Z</time>
      </trkpt>
      <trkpt lat="43.73942" lon="3.57599">
        <ele>235.660278</ele>
        <time>2013-04-26T09:01:17Z</time>
      </trkpt>
      <trkpt lat="43.73943" lon="3.57599">
        <ele>239.024902</ele>
        <time>2013-04-26T09:01:21Z</time>
      </trkpt>
      <trkpt lat="43.73947" lon="3.57597">
        <ele>236.140991</ele>
        <time>2013-04-26T09:01:25Z</time>
      </trkpt>
      <trkpt lat="43.73951" lon="3.57597">
        <ele>235.179688</ele>
        <time>2013-04-26T09:01:38Z</time>
      </trkpt>
      <trkpt lat="43.73961" lon="3.57597">
        <ele>234.699097</ele>
        <time>2013-04-26T09:01:51Z</time>
      </trkpt>
      <trkpt lat="43.7397" lon="3.57593">
        <ele>233.737671</ele>
        <time>2013-04-26T09:02:03Z</time>
      </trkpt>
      <trkpt lat="43.73976" lon="3.57591">
        <ele>233.25708</ele>
        <time>2013-04-26T09:02:18Z</time>
      </trkpt>
      <trkpt lat="43.73982" lon="3.57589">
        <ele>230.85376</ele>
        <time>2013-04-26T09:02:29Z</time>
      </trkpt>
      <trkpt lat="43.73992" lon="3.5759">
        <ele>229.892334</ele>
        <time>2013-04-26T09:02:41Z</time>
      </trkpt>
      <trkpt lat="43.74001" lon="3.5759">
        <ele>229.411743</ele>
        <time>2013-04-26T09:02:52Z</time>
      </trkpt>
      <trkpt lat="43.74004" lon="3.57589">
        <ele>228.931152</ele>
        <time>2013-04-26T09:02:58Z</time>
      </trkpt>
      <trkpt lat="43.74009" lon="3.57587">
        <ele>229.411743</ele>
        <time>2013-04-26T09:03:03Z</time>
      </trkpt>
      <trkpt lat="43.74015" lon="3.57587">
        <ele>228.931152</ele>
        <time>2013-04-26T09:03:10Z</time>
      </trkpt>
      <trkpt lat="43.74018" lon="3.57584">
        <ele>228.931152</ele>
        <time>2013-04-26T09:03:14Z</time>
      </trkpt>
      <trkpt lat="43.74027" lon="3.57585">
        <ele>230.373047</ele>
        <time>2013-04-26T09:03:27Z</time>
      </trkpt>
      <trkpt lat="43.74028" lon="3.57584">
        <ele>229.892334</ele>
        <time>2013-04-26T09:03:28Z</time>
      </trkpt>
      <trkpt lat="43.74039" lon="3.57583">
        <ele>234.218384</ele>
        <time>2013-04-26T09:03:44Z</time>
      </trkpt>
      <trkpt lat="43.74042" lon="3.57583">
        <ele>234.699097</ele>
        <time>2013-04-26T09:03:52Z</time>
      </trkpt>
      <trkpt lat="43.74048" lon="3.57582">
        <ele>236.140991</ele>
        <time>2013-04-26T09:04:06Z</time>
      </trkpt>
      <trkpt lat="43.74052" lon="3.57579">
        <ele>239.024902</ele>
        <time>2013-04-26T09:04:14Z</time>
      </trkpt>
      <trkpt lat="43.74056" lon="3.5758">
        <ele>239.505493</ele>
        <time>2013-04-26T09:04:30Z</time>
      </trkpt>
      <trkpt lat="43.74057" lon="3.57578">
        <ele>242.389648</ele>
        <time>2013-04-26T09:04:39Z</time>
      </trkpt>
      <trkpt lat="43.74057" lon="3.57578">
        <ele>240.467041</ele>
        <time>2013-04-26T09:04:40Z</time>
      </trkpt>
      <trkpt lat="43.74064" lon="3.57577">
        <ele>243.35083</ele>
        <time>2013-04-26T09:04:50Z</time>
      </trkpt>
      <trkpt lat="43.74069" lon="3.57577">
        <ele>243.831543</ele>
        <time>2013-04-26T09:05:04Z</time>
      </trkpt>
      <trkpt lat="43.74072" lon="3.57575">
        <ele>247.676758</ele>
        <time>2013-04-26T09:05:14Z</time>
      </trkpt>
      <trkpt lat="43.74071" lon="3.57573">
        <ele>244.312256</ele>
        <time>2013-04-26T09:05:17Z</time>
      </trkpt>
      <trkpt lat="43.74068" lon="3.57568">
        <ele>242.870239</ele>
        <time>2013-04-26T09:05:29Z</time>
      </trkpt>
      <trkpt lat="43.74066" lon="3.57565">
        <ele>242.870239</ele>
        <time>2013-04-26T09:05:33Z</time>
      </trkpt>
      <trkpt lat="43.74062" lon="3.57561">
        <ele>241.908936</ele>
        <time>2013-04-26T09:05:38Z</time>
      </trkpt>
      <trkpt lat="43.74059" lon="3.57552">
        <ele>238.063599</ele>
        <time>2013-04-26T09:05:47Z</time>
      </trkpt>
      <trkpt lat="43.74059" lon="3.57552">
        <ele>239.505493</ele>
        <time>2013-04-26T09:05:52Z</time>
      </trkpt>
      <trkpt lat="43.74059" lon="3.57551">
        <ele>239.505493</ele>
        <time>2013-04-26T09:06:18Z</time>
      </trkpt>
      <trkpt lat="43.74059" lon="3.57551">
        <ele>239.505493</ele>
        <time>2013-04-26T09:06:37Z</time>
      </trkpt>
      <trkpt lat="43.74059" lon="3.57551">
        <ele>237.582886</ele>
        <time>2013-04-26T09:07:14Z</time>
      </trkpt>
      <trkpt lat="43.74059" lon="3.5755">
        <ele>240.947632</ele>
        <time>2013-04-26T09:07:17Z</time>
      </trkpt>
      <trkpt lat="43.74058" lon="3.57549">
        <ele>239.024902</ele>
        <time>2013-04-26T09:07:28Z</time>
      </trkpt>
      <trkpt lat="43.74052" lon="3.57541">
        <ele>238.063599</ele>
        <time>2013-04-26T09:07:43Z</time>
      </trkpt>
      <trkpt lat="43.74045" lon="3.57537">
        <ele>239.505493</ele>
        <time>2013-04-26T09:07:57Z</time>
      </trkpt>
      <trkpt lat="43.74045" lon="3.57533">
        <ele>243.35083</ele>
        <time>2013-04-26T09:08:05Z</time>
      </trkpt>
      <trkpt lat="43.74037" lon="3.57521">
        <ele>243.831543</ele>
        <time>2013-04-26T09:08:20Z</time>
      </trkpt>
      <trkpt lat="43.74035" lon="3.57516">
        <ele>245.273438</ele>
        <time>2013-04-26T09:08:28Z</time>
      </trkpt>
      <trkpt lat="43.74033" lon="3.57509">
        <ele>248.157593</ele>
        <time>2013-04-26T09:08:40Z</time>
      </trkpt>
      <trkpt lat="43.74025" lon="3.57498">
        <ele>249.118774</ele>
        <time>2013-04-26T09:08:55Z</time>
      </trkpt>
      <trkpt lat="43.74019" lon="3.57486">
        <ele>251.522095</ele>
        <time>2013-04-26T09:09:11Z</time>
      </trkpt>
      <trkpt lat="43.74017" lon="3.57485">
        <ele>250.560791</ele>
        <time>2013-04-26T09:09:14Z</time>
      </trkpt>
      <trkpt lat="43.74005" lon="3.57476">
        <ele>252.002808</ele>
        <time>2013-04-26T09:09:30Z</time>
      </trkpt>
      <trkpt lat="43.74" lon="3.57471">
        <ele>252.483398</ele>
        <time>2013-04-26T09:09:45Z</time>
      </trkpt>
      <trkpt lat="43.73998" lon="3.57466">
        <ele>251.041382</ele>
        <time>2013-04-26T09:09:53Z</time>
      </trkpt>
      <trkpt lat="43.73993" lon="3.57459">
        <ele>248.638184</ele>
        <time>2013-04-26T09:10:06Z</time>
      </trkpt>
      <trkpt lat="43.73989" lon="3.57452">
        <ele>250.0802</ele>
        <time>2013-04-26T09:10:15Z</time>
      </trkpt>
      <trkpt lat="43.73983" lon="3.57444">
        <ele>250.560791</ele>
        <time>2013-04-26T09:10:29Z</time>
      </trkpt>
      <trkpt lat="43.73981" lon="3.57443">
        <ele>252.002808</ele>
        <time>2013-04-26T09:10:32Z</time>
      </trkpt>
      <trkpt lat="43.73974" lon="3.57432">
        <ele>252.002808</ele>
        <time>2013-04-26T09:10:46Z</time>
      </trkpt>
      <trkpt lat="43.73968" lon="3.57423">
        <ele>251.522095</ele>
        <time>2013-04-26T09:10:59Z</time>
      </trkpt>
      <trkpt lat="43.73968" lon="3.57422">
        <ele>252.002808</ele>
        <time>2013-04-26T09:11:01Z</time>
      </trkpt>
      <trkpt lat="43.73965" lon="3.57417">
        <ele>253.925415</ele>
        <time>2013-04-26T09:11:14Z</time>
      </trkpt>
      <trkpt lat="43.73959" lon="3.57407">
        <ele>252.963989</ele>
        <time>2013-04-26T09:11:27Z</time>
      </trkpt>
      <trkpt lat="43.73954" lon="3.57404">
        <ele>252.963989</ele>
        <time>2013-04-26T09:11:34Z</time>
      </trkpt>
      <trkpt lat="43.73949" lon="3.57395">
        <ele>253.444702</ele>
        <time>2013-04-26T09:11:47Z</time>
      </trkpt>
      <trkpt lat="43.73944" lon="3.57387">
        <ele>256.328735</ele>
        <time>2013-04-26T09:12:01Z</time>
      </trkpt>
      <trkpt lat="43.73942" lon="3.57385">
        <ele>257.290039</ele>
        <time>2013-04-26T09:12:06Z</time>
      </trkpt>
      <trkpt lat="43.73939" lon="3.57379">
        <ele>258.731934</ele>
        <time>2013-04-26T09:12:17Z</time>
      </trkpt>
      <trkpt lat="43.73935" lon="3.57375">
        <ele>262.096558</ele>
        <time>2013-04-26T09:12:31Z</time>
      </trkpt>
      <trkpt lat="43.73935" lon="3.57375">
        <ele>262.096558</ele>
        <time>2013-04-26T09:12:32Z</time>
      </trkpt>
      <trkpt lat="43.73932" lon="3.57371">
        <ele>262.096558</ele>
        <time>2013-04-26T09:12:43Z</time>
      </trkpt>
      <trkpt lat="43.7393" lon="3.57367">
        <ele>265.941895</ele>
        <time>2013-04-26T09:12:51Z</time>
      </trkpt>
      <trkpt lat="43.7393" lon="3.57366">
        <ele>265.461304</ele>
        <time>2013-04-26T09:12:52Z</time>
      </trkpt>
      <trkpt lat="43.73922" lon="3.57354">
        <ele>267.383911</ele>
        <time>2013-04-26T09:13:09Z</time>
      </trkpt>
      <trkpt lat="43.73913" lon="3.57342">
        <ele>268.345093</ele>
        <time>2013-04-26T09:13:24Z</time>
      </trkpt>
      <trkpt lat="43.73904" lon="3.57332">
        <ele>270.2677</ele>
        <time>2013-04-26T09:13:41Z</time>
      </trkpt>
      <trkpt lat="43.73899" lon="3.57325">
        <ele>272.671143</ele>
        <time>2013-04-26T09:13:54Z</time>
      </trkpt>
      <trkpt lat="43.73897" lon="3.57322">
        <ele>273.151855</ele>
        <time>2013-04-26T09:13:58Z</time>
      </trkpt>
      <trkpt lat="43.73892" lon="3.57314">
        <ele>276.516357</ele>
        <time>2013-04-26T09:14:12Z</time>
      </trkpt>
      <trkpt lat="43.73892" lon="3.57311">
        <ele>277.958252</ele>
        <time>2013-04-26T09:14:32Z</time>
      </trkpt>
      <trkpt lat="43.73892" lon="3.57311">
        <ele>274.113037</ele>
        <time>2013-04-26T09:14:37Z</time>
      </trkpt>
      <trkpt lat="43.73892" lon="3.57311">
        <ele>277.958252</ele>
        <time>2013-04-26T09:14:46Z</time>
      </trkpt>
      <trkpt lat="43.73892" lon="3.57311">
        <ele>275.074463</ele>
        <time>2013-04-26T09:15:18Z</time>
      </trkpt>
      <trkpt lat="43.73892" lon="3.57311">
        <ele>276.035645</ele>
        <time>2013-04-26T09:15:29Z</time>
      </trkpt>
      <trkpt lat="43.73891" lon="3.57312">
        <ele>275.555054</ele>
        <time>2013-04-26T09:15:44Z</time>
      </trkpt>
      <trkpt lat="43.73891" lon="3.57312">
        <ele>276.516357</ele>
        <time>2013-04-26T09:15:52Z</time>
      </trkpt>
      <trkpt lat="43.73889" lon="3.5731">
        <ele>275.555054</ele>
        <time>2013-04-26T09:16:13Z</time>
      </trkpt>
      <trkpt lat="43.7389" lon="3.57308">
        <ele>275.555054</ele>
        <time>2013-04-26T09:16:25Z</time>
      </trkpt>
      <trkpt lat="43.7389" lon="3.57308">
        <ele>275.555054</ele>
        <time>2013-04-26T09:16:37Z</time>
      </trkpt>
      <trkpt lat="43.73889" lon="3.57309">
        <ele>274.59375</ele>
        <time>2013-04-26T09:16:54Z</time>
      </trkpt>
      <trkpt lat="43.73889" lon="3.57307">
        <ele>274.113037</ele>
        <time>2013-04-26T09:17:34Z</time>
      </trkpt>
      <trkpt lat="43.73889" lon="3.57307">
        <ele>274.113037</ele>
        <time>2013-04-26T09:18:00Z</time>
      </trkpt>
      <trkpt lat="43.7389" lon="3.57306">
        <ele>276.035645</ele>
        <time>2013-04-26T09:18:06Z</time>
      </trkpt>
      <trkpt lat="43.73889" lon="3.57305">
        <ele>275.074463</ele>
        <time>2013-04-26T09:18:58Z</time>
      </trkpt>
      <trkpt lat="43.73884" lon="3.573">
        <ele>275.074463</ele>
        <time>2013-04-26T09:19:04Z</time>
      </trkpt>
      <trkpt lat="43.73881" lon="3.57299">
        <ele>275.555054</ele>
        <time>2013-04-26T09:19:08Z</time>
      </trkpt>
      <trkpt lat="43.73872" lon="3.5729">
        <ele>276.99707</ele>
        <time>2013-04-26T09:19:20Z</time>
      </trkpt>
      <trkpt lat="43.73869" lon="3.57275">
        <ele>278.438965</ele>
        <time>2013-04-26T09:19:32Z</time>
      </trkpt>
      <trkpt lat="43.73878" lon="3.57269">
        <ele>277.477661</ele>
        <time>2013-04-26T09:19:45Z</time>
      </trkpt>
      <trkpt lat="43.73894" lon="3.57262">
        <ele>277.958252</ele>
        <time>2013-04-26T09:20:04Z</time>
      </trkpt>
      <trkpt lat="43.73916" lon="3.57251">
        <ele>276.99707</ele>
        <time>2013-04-26T09:20:24Z</time>
      </trkpt>
      <trkpt lat="43.73937" lon="3.57237">
        <ele>277.477661</ele>
        <time>2013-04-26T09:20:43Z</time>
      </trkpt>
      <trkpt lat="43.73952" lon="3.57229">
        <ele>276.99707</ele>
        <time>2013-04-26T09:20:58Z</time>
      </trkpt>
      <trkpt lat="43.73957" lon="3.57226">
        <ele>275.555054</ele>
        <time>2013-04-26T09:21:03Z</time>
      </trkpt>
      <trkpt lat="43.73978" lon="3.57216">
        <ele>277.958252</ele>
        <time>2013-04-26T09:21:23Z</time>
      </trkpt>
      <trkpt lat="43.73998" lon="3.57207">
        <ele>279.400269</ele>
        <time>2013-04-26T09:21:41Z</time>
      </trkpt>
      <trkpt lat="43.74002" lon="3.57205">
        <ele>279.880859</ele>
        <time>2013-04-26T09:21:45Z</time>
      </trkpt>
      <trkpt lat="43.74017" lon="3.57197">
        <ele>281.322998</ele>
        <time>2013-04-26T09:22:00Z</time>
      </trkpt>
      <trkpt lat="43.74036" lon="3.57182">
        <ele>280.842407</ele>
        <time>2013-04-26T09:22:19Z</time>
      </trkpt>
      <trkpt lat="43.74037" lon="3.57153">
        <ele>281.322998</ele>
        <time>2013-04-26T09:22:38Z</time>
      </trkpt>
      <trkpt lat="43.74033" lon="3.57121">
        <ele>282.284302</ele>
        <time>2013-04-26T09:23:01Z</time>
      </trkpt>
      <trkpt lat="43.74031" lon="3.57094">
        <ele>282.765015</ele>
        <time>2013-04-26T09:23:20Z</time>
      </trkpt>
      <trkpt lat="43.74031" lon="3.57088">
        <ele>283.245605</ele>
        <time>2013-04-26T09:23:24Z</time>
      </trkpt>
      <trkpt lat="43.74029" lon="3.57067">
        <ele>284.687622</ele>
        <time>2013-04-26T09:23:41Z</time>
      </trkpt>
      <trkpt lat="43.74029" lon="3.57067">
        <ele>286.129517</ele>
        <time>2013-04-26T09:23:47Z</time>
      </trkpt>
      <trkpt lat="43.74029" lon="3.57067">
        <ele>284.206909</ele>
        <time>2013-04-26T09:23:49Z</time>
      </trkpt>
      <trkpt lat="43.74027" lon="3.57046">
        <ele>283.726196</ele>
        <time>2013-04-26T09:24:03Z</time>
      </trkpt>
      <trkpt lat="43.74022" lon="3.57024">
        <ele>286.129517</ele>
        <time>2013-04-26T09:24:19Z</time>
      </trkpt>
      <trkpt lat="43.74021" lon="3.57016">
        <ele>285.648804</ele>
        <time>2013-04-26T09:24:33Z</time>
      </trkpt>
      <trkpt lat="43.74017" lon="3.57001">
        <ele>285.168213</ele>
        <time>2013-04-26T09:24:43Z</time>
      </trkpt>
      <trkpt lat="43.74017" lon="3.56999">
        <ele>286.129517</ele>
        <time>2013-04-26T09:24:44Z</time>
      </trkpt>
      <trkpt lat="43.74013" lon="3.56981">
        <ele>287.571411</ele>
        <time>2013-04-26T09:24:59Z</time>
      </trkpt>
      <trkpt lat="43.74013" lon="3.56971">
        <ele>287.571411</ele>
        <time>2013-04-26T09:25:12Z</time>
      </trkpt>
      <trkpt lat="43.74013" lon="3.56969">
        <ele>287.09082</ele>
        <time>2013-04-26T09:25:31Z</time>
      </trkpt>
      <trkpt lat="43.74014" lon="3.56969">
        <ele>288.052246</ele>
        <time>2013-04-26T09:25:49Z</time>
      </trkpt>
      <trkpt lat="43.74014" lon="3.56969">
        <ele>287.571411</ele>
        <time>2013-04-26T09:26:09Z</time>
      </trkpt>
      <trkpt lat="43.74015" lon="3.56968">
        <ele>286.610229</ele>
        <time>2013-04-26T09:26:57Z</time>
      </trkpt>
      <trkpt lat="43.74015" lon="3.56968">
        <ele>286.610229</ele>
        <time>2013-04-26T09:27:24Z</time>
      </trkpt>
      <trkpt lat="43.74016" lon="3.56968">
        <ele>287.09082</ele>
        <time>2013-04-26T09:28:25Z</time>
      </trkpt>
      <trkpt lat="43.74015" lon="3.56967">
        <ele>287.09082</ele>
        <time>2013-04-26T09:29:14Z</time>
      </trkpt>
      <trkpt lat="43.74015" lon="3.56968">
        <ele>286.610229</ele>
        <time>2013-04-26T09:29:52Z</time>
      </trkpt>
      <trkpt lat="43.74015" lon="3.56969">
        <ele>287.571411</ele>
        <time>2013-04-26T09:31:06Z</time>
      </trkpt>
      <trkpt lat="43.74015" lon="3.56967">
        <ele>287.571411</ele>
        <time>2013-04-26T09:31:25Z</time>
      </trkpt>
      <trkpt lat="43.74014" lon="3.56967">
        <ele>286.129517</ele>
        <time>2013-04-26T09:32:03Z</time>
      </trkpt>
      <trkpt lat="43.74014" lon="3.56967">
        <ele>287.571411</ele>
        <time>2013-04-26T09:32:38Z</time>
      </trkpt>
      <trkpt lat="43.7401" lon="3.5697">
        <ele>288.052246</ele>
        <time>2013-04-26T09:33:09Z</time>
      </trkpt>
      <trkpt lat="43.74009" lon="3.56969">
        <ele>289.01355</ele>
        <time>2013-04-26T09:33:11Z</time>
      </trkpt>
      <trkpt lat="43.73999" lon="3.5696">
        <ele>288.052246</ele>
        <time>2013-04-26T09:33:24Z</time>
      </trkpt>
      <trkpt lat="43.73994" lon="3.56951">
        <ele>288.532959</ele>
        <time>2013-04-26T09:33:31Z</time>
      </trkpt>
      <trkpt lat="43.73981" lon="3.56942">
        <ele>286.610229</ele>
        <time>2013-04-26T09:33:38Z</time>
      </trkpt>
      <trkpt lat="43.73969" lon="3.56932">
        <ele>283.726196</ele>
        <time>2013-04-26T09:33:43Z</time>
      </trkpt>
      <trkpt lat="43.73967" lon="3.56929">
        <ele>284.206909</ele>
        <time>2013-04-26T09:33:44Z</time>
      </trkpt>
      <trkpt lat="43.73958" lon="3.56922">
        <ele>282.284302</ele>
        <time>2013-04-26T09:33:47Z</time>
      </trkpt>
      <trkpt lat="43.73938" lon="3.56909">
        <ele>285.648804</ele>
        <time>2013-04-26T09:33:54Z</time>
      </trkpt>
      <trkpt lat="43.73936" lon="3.56908">
        <ele>285.648804</ele>
        <time>2013-04-26T09:33:55Z</time>
      </trkpt>
      <trkpt lat="43.73931" lon="3.56904">
        <ele>285.648804</ele>
        <time>2013-04-26T09:33:59Z</time>
      </trkpt>
      <trkpt lat="43.73917" lon="3.56881">
        <ele>286.610229</ele>
        <time>2013-04-26T09:34:18Z</time>
      </trkpt>
      <trkpt lat="43.73913" lon="3.56879">
        <ele>287.09082</ele>
        <time>2013-04-26T09:34:22Z</time>
      </trkpt>
      <trkpt lat="43.73912" lon="3.56877">
        <ele>285.648804</ele>
        <time>2013-04-26T09:34:24Z</time>
      </trkpt>
      <trkpt lat="43.73906" lon="3.56866">
        <ele>282.284302</ele>
        <time>2013-04-26T09:34:34Z</time>
      </trkpt>
      <trkpt lat="43.73906" lon="3.56865">
        <ele>286.129517</ele>
        <time>2013-04-26T09:34:35Z</time>
      </trkpt>
      <trkpt lat="43.73899" lon="3.56852">
        <ele>286.610229</ele>
        <time>2013-04-26T09:34:47Z</time>
      </trkpt>
      <trkpt lat="43.73893" lon="3.56838">
        <ele>287.571411</ele>
        <time>2013-04-26T09:34:58Z</time>
      </trkpt>
      <trkpt lat="43.73879" lon="3.56812">
        <ele>286.610229</ele>
        <time>2013-04-26T09:35:19Z</time>
      </trkpt>
      <trkpt lat="43.73867" lon="3.56794">
        <ele>286.610229</ele>
        <time>2013-04-26T09:35:39Z</time>
      </trkpt>
      <trkpt lat="43.73863" lon="3.56783">
        <ele>283.245605</ele>
        <time>2013-04-26T09:35:48Z</time>
      </trkpt>
      <trkpt lat="43.73857" lon="3.56771">
        <ele>283.245605</ele>
        <time>2013-04-26T09:36:02Z</time>
      </trkpt>
      <trkpt lat="43.73857" lon="3.5677">
        <ele>283.726196</ele>
        <time>2013-04-26T09:36:27Z</time>
      </trkpt>
      <trkpt lat="43.73855" lon="3.56768">
        <ele>284.687622</ele>
        <time>2013-04-26T09:36:30Z</time>
      </trkpt>
      <trkpt lat="43.73848" lon="3.56759">
        <ele>283.726196</ele>
        <time>2013-04-26T09:36:40Z</time>
      </trkpt>
      <trkpt lat="43.73838" lon="3.56749">
        <ele>283.245605</ele>
        <time>2013-04-26T09:36:51Z</time>
      </trkpt>
      <trkpt lat="43.73821" lon="3.56727">
        <ele>281.322998</ele>
        <time>2013-04-26T09:37:11Z</time>
      </trkpt>
      <trkpt lat="43.73809" lon="3.56709">
        <ele>277.958252</ele>
        <time>2013-04-26T09:37:25Z</time>
      </trkpt>
      <trkpt lat="43.73791" lon="3.56688">
        <ele>276.516357</ele>
        <time>2013-04-26T09:37:43Z</time>
      </trkpt>
      <trkpt lat="43.73784" lon="3.56678">
        <ele>277.477661</ele>
        <time>2013-04-26T09:37:51Z</time>
      </trkpt>
      <trkpt lat="43.73778" lon="3.5667">
        <ele>277.477661</ele>
        <time>2013-04-26T09:37:58Z</time>
      </trkpt>
      <trkpt lat="43.73773" lon="3.56662">
        <ele>277.958252</ele>
        <time>2013-04-26T09:38:05Z</time>
      </trkpt>
      <trkpt lat="43.73768" lon="3.56658">
        <ele>281.803589</ele>
        <time>2013-04-26T09:38:10Z</time>
      </trkpt>
      <trkpt lat="43.73767" lon="3.56655">
        <ele>280.361694</ele>
        <time>2013-04-26T09:38:12Z</time>
      </trkpt>
      <trkpt lat="43.73767" lon="3.56647">
        <ele>281.803589</ele>
        <time>2013-04-26T09:38:20Z</time>
      </trkpt>
      <trkpt lat="43.73763" lon="3.56642">
        <ele>282.284302</ele>
        <time>2013-04-26T09:38:36Z</time>
      </trkpt>
      <trkpt lat="43.73758" lon="3.5664">
        <ele>283.245605</ele>
        <time>2013-04-26T09:38:49Z</time>
      </trkpt>
      <trkpt lat="43.73757" lon="3.5664">
        <ele>282.284302</ele>
        <time>2013-04-26T09:39:01Z</time>
      </trkpt>
      <trkpt lat="43.73755" lon="3.56638">
        <ele>284.687622</ele>
        <time>2013-04-26T09:39:11Z</time>
      </trkpt>
      <trkpt lat="43.73755" lon="3.56638">
        <ele>283.245605</ele>
        <time>2013-04-26T09:39:13Z</time>
      </trkpt>
      <trkpt lat="43.73754" lon="3.56637">
        <ele>284.687622</ele>
        <time>2013-04-26T09:39:15Z</time>
      </trkpt>
      <trkpt lat="43.7375" lon="3.56629">
        <ele>284.206909</ele>
        <time>2013-04-26T09:39:21Z</time>
      </trkpt>
      <trkpt lat="43.73739" lon="3.56612">
        <ele>285.168213</ele>
        <time>2013-04-26T09:39:38Z</time>
      </trkpt>
      <trkpt lat="43.73745" lon="3.56598">
        <ele>285.648804</ele>
        <time>2013-04-26T09:39:55Z</time>
      </trkpt>
      <trkpt lat="43.73746" lon="3.56594">
        <ele>284.687622</ele>
        <time>2013-04-26T09:39:58Z</time>
      </trkpt>
      <trkpt lat="43.73753" lon="3.56583">
        <ele>284.206909</ele>
        <time>2013-04-26T09:40:08Z</time>
      </trkpt>
      <trkpt lat="43.73755" lon="3.56571">
        <ele>283.245605</ele>
        <time>2013-04-26T09:40:19Z</time>
      </trkpt>
      <trkpt lat="43.73756" lon="3.56555">
        <ele>284.687622</ele>
        <time>2013-04-26T09:40:32Z</time>
      </trkpt>
      <trkpt lat="43.73768" lon="3.56536">
        <ele>284.687622</ele>
        <time>2013-04-26T09:40:49Z</time>
      </trkpt>
      <trkpt lat="43.73782" lon="3.56519">
        <ele>285.648804</ele>
        <time>2013-04-26T09:41:06Z</time>
      </trkpt>
      <trkpt lat="43.73788" lon="3.56513">
        <ele>285.168213</ele>
        <time>2013-04-26T09:41:14Z</time>
      </trkpt>
      <trkpt lat="43.73791" lon="3.56512">
        <ele>284.687622</ele>
        <time>2013-04-26T09:41:18Z</time>
      </trkpt>
      <trkpt lat="43.73796" lon="3.56493">
        <ele>284.206909</ele>
        <time>2013-04-26T09:41:34Z</time>
      </trkpt>
      <trkpt lat="43.73796" lon="3.5649">
        <ele>284.687622</ele>
        <time>2013-04-26T09:41:36Z</time>
      </trkpt>
      <trkpt lat="43.73796" lon="3.56487">
        <ele>283.726196</ele>
        <time>2013-04-26T09:41:38Z</time>
      </trkpt>
      <trkpt lat="43.73793" lon="3.56482">
        <ele>282.284302</ele>
        <time>2013-04-26T09:41:43Z</time>
      </trkpt>
      <trkpt lat="43.73778" lon="3.56467">
        <ele>281.322998</ele>
        <time>2013-04-26T09:42:02Z</time>
      </trkpt>
      <trkpt lat="43.73756" lon="3.56463">
        <ele>283.245605</ele>
        <time>2013-04-26T09:42:22Z</time>
      </trkpt>
      <trkpt lat="43.73744" lon="3.5646">
        <ele>285.168213</ele>
        <time>2013-04-26T09:42:33Z</time>
      </trkpt>
      <trkpt lat="43.73735" lon="3.5645">
        <ele>283.245605</ele>
        <time>2013-04-26T09:42:44Z</time>
      </trkpt>
      <trkpt lat="43.73731" lon="3.56445">
        <ele>283.726196</ele>
        <time>2013-04-26T09:42:49Z</time>
      </trkpt>
      <trkpt lat="43.73717" lon="3.56421">
        <ele>284.206909</ele>
        <time>2013-04-26T09:43:10Z</time>
      </trkpt>
      <trkpt lat="43.73695" lon="3.56404">
        <ele>285.168213</ele>
        <time>2013-04-26T09:43:31Z</time>
      </trkpt>
      <trkpt lat="43.73681" lon="3.56379">
        <ele>285.648804</ele>
        <time>2013-04-26T09:43:49Z</time>
      </trkpt>
      <trkpt lat="43.73667" lon="3.56351">
        <ele>284.687622</ele>
        <time>2013-04-26T09:44:10Z</time>
      </trkpt>
      <trkpt lat="43.7366" lon="3.56345">
        <ele>284.687622</ele>
        <time>2013-04-26T09:44:19Z</time>
      </trkpt>
      <trkpt lat="43.73656" lon="3.56347">
        <ele>284.687622</ele>
        <time>2013-04-26T09:44:23Z</time>
      </trkpt>
      <trkpt lat="43.73647" lon="3.56353">
        <ele>284.687622</ele>
        <time>2013-04-26T09:44:32Z</time>
      </trkpt>
      <trkpt lat="43.73635" lon="3.56349">
        <ele>284.206909</ele>
        <time>2013-04-26T09:44:44Z</time>
      </trkpt>
      <trkpt lat="43.73627" lon="3.56348">
        <ele>284.687622</ele>
        <time>2013-04-26T09:44:53Z</time>
      </trkpt>
      <trkpt lat="43.7362" lon="3.56346">
        <ele>285.648804</ele>
        <time>2013-04-26T09:45:00Z</time>
      </trkpt>
      <trkpt lat="43.73608" lon="3.56343">
        <ele>285.168213</ele>
        <time>2013-04-26T09:45:11Z</time>
      </trkpt>
      <trkpt lat="43.73605" lon="3.56333">
        <ele>285.648804</ele>
        <time>2013-04-26T09:45:19Z</time>
      </trkpt>
      <trkpt lat="43.73601" lon="3.56328">
        <ele>286.129517</ele>
        <time>2013-04-26T09:45:27Z</time>
      </trkpt>
      <trkpt lat="43.73597" lon="3.56309">
        <ele>285.648804</ele>
        <time>2013-04-26T09:45:42Z</time>
      </trkpt>
      <trkpt lat="43.7359" lon="3.56293">
        <ele>284.687622</ele>
        <time>2013-04-26T09:45:58Z</time>
      </trkpt>
      <trkpt lat="43.73588" lon="3.56293">
        <ele>285.168213</ele>
        <time>2013-04-26T09:46:11Z</time>
      </trkpt>
      <trkpt lat="43.73587" lon="3.56294">
        <ele>285.648804</ele>
        <time>2013-04-26T09:46:30Z</time>
      </trkpt>
      <trkpt lat="43.73586" lon="3.56294">
        <ele>285.168213</ele>
        <time>2013-04-26T09:46:33Z</time>
      </trkpt>
      <trkpt lat="43.73579" lon="3.56293">
        <ele>285.648804</ele>
        <time>2013-04-26T09:46:40Z</time>
      </trkpt>
      <trkpt lat="43.73573" lon="3.5629">
        <ele>285.648804</ele>
        <time>2013-04-26T09:46:45Z</time>
      </trkpt>
      <trkpt lat="43.73571" lon="3.56288">
        <ele>285.648804</ele>
        <time>2013-04-26T09:46:49Z</time>
      </trkpt>
      <trkpt lat="43.73563" lon="3.5629">
        <ele>286.129517</ele>
        <time>2013-04-26T09:46:59Z</time>
      </trkpt>
      <trkpt lat="43.73554" lon="3.56293">
        <ele>288.052246</ele>
        <time>2013-04-26T09:47:07Z</time>
      </trkpt>
      <trkpt lat="43.7355" lon="3.56292">
        <ele>287.571411</ele>
        <time>2013-04-26T09:47:15Z</time>
      </trkpt>
      <trkpt lat="43.73549" lon="3.5629">
        <ele>286.129517</ele>
        <time>2013-04-26T09:47:17Z</time>
      </trkpt>
      <trkpt lat="43.73547" lon="3.5629">
        <ele>286.129517</ele>
        <time>2013-04-26T09:47:19Z</time>
      </trkpt>
      <trkpt lat="43.73539" lon="3.56284">
        <ele>285.648804</ele>
        <time>2013-04-26T09:47:26Z</time>
      </trkpt>
      <trkpt lat="43.73538" lon="3.56282">
        <ele>286.610229</ele>
        <time>2013-04-26T09:47:28Z</time>
      </trkpt>
      <trkpt lat="43.73538" lon="3.56276">
        <ele>286.129517</ele>
        <time>2013-04-26T09:47:32Z</time>
      </trkpt>
      <trkpt lat="43.73533" lon="3.56272">
        <ele>285.648804</ele>
        <time>2013-04-26T09:47:37Z</time>
      </trkpt>
      <trkpt lat="43.73529" lon="3.5627">
        <ele>285.648804</ele>
        <time>2013-04-26T09:47:41Z</time>
      </trkpt>
      <trkpt lat="43.73526" lon="3.56267">
        <ele>286.129517</ele>
        <time>2013-04-26T09:47:44Z</time>
      </trkpt>
      <trkpt lat="43.73522" lon="3.56268">
        <ele>286.610229</ele>
        <time>2013-04-26T09:47:47Z</time>
      </trkpt>
      <trkpt lat="43.73507" lon="3.56256">
        <ele>287.09082</ele>
        <time>2013-04-26T09:48:03Z</time>
      </trkpt>
      <trkpt lat="43.73479" lon="3.56253">
        <ele>287.571411</ele>
        <time>2013-04-26T09:48:23Z</time>
      </trkpt>
      <trkpt lat="43.73472" lon="3.56247">
        <ele>288.532959</ele>
        <time>2013-04-26T09:48:36Z</time>
      </trkpt>
      <trkpt lat="43.73471" lon="3.56245">
        <ele>288.052246</ele>
        <time>2013-04-26T09:48:38Z</time>
      </trkpt>
      <trkpt lat="43.73468" lon="3.56239">
        <ele>287.571411</ele>
        <time>2013-04-26T09:48:43Z</time>
      </trkpt>
      <trkpt lat="43.73464" lon="3.56235">
        <ele>287.571411</ele>
        <time>2013-04-26T09:48:47Z</time>
      </trkpt>
      <trkpt lat="43.73452" lon="3.56232">
        <ele>288.052246</ele>
        <time>2013-04-26T09:48:59Z</time>
      </trkpt>
      <trkpt lat="43.73447" lon="3.56232">
        <ele>289.974854</ele>
        <time>2013-04-26T09:49:04Z</time>
      </trkpt>
      <trkpt lat="43.73445" lon="3.56234">
        <ele>289.494141</ele>
        <time>2013-04-26T09:49:06Z</time>
      </trkpt>
      <trkpt lat="43.73423" lon="3.56238">
        <ele>289.494141</ele>
        <time>2013-04-26T09:49:25Z</time>
      </trkpt>
      <trkpt lat="43.73412" lon="3.56234">
        <ele>289.01355</ele>
        <time>2013-04-26T09:49:35Z</time>
      </trkpt>
      <trkpt lat="43.7341" lon="3.56231">
        <ele>288.532959</ele>
        <time>2013-04-26T09:49:38Z</time>
      </trkpt>
      <trkpt lat="43.73406" lon="3.56228">
        <ele>289.01355</ele>
        <time>2013-04-26T09:49:42Z</time>
      </trkpt>
      <trkpt lat="43.7339" lon="3.56217">
        <ele>288.532959</ele>
        <time>2013-04-26T09:49:58Z</time>
      </trkpt>
      <trkpt lat="43.73379" lon="3.56203">
        <ele>289.494141</ele>
        <time>2013-04-26T09:50:14Z</time>
      </trkpt>
      <trkpt lat="43.73376" lon="3.56204">
        <ele>289.494141</ele>
        <time>2013-04-26T09:50:17Z</time>
      </trkpt>
      <trkpt lat="43.73368" lon="3.56192">
        <ele>290.455566</ele>
        <time>2013-04-26T09:50:28Z</time>
      </trkpt>
      <trkpt lat="43.73362" lon="3.56168">
        <ele>290.936157</ele>
        <time>2013-04-26T09:50:47Z</time>
      </trkpt>
      <trkpt lat="43.73355" lon="3.56162">
        <ele>291.416748</ele>
        <time>2013-04-26T09:50:59Z</time>
      </trkpt>
      <trkpt lat="43.73354" lon="3.56155">
        <ele>291.897461</ele>
        <time>2013-04-26T09:51:05Z</time>
      </trkpt>
      <trkpt lat="43.73354" lon="3.56149">
        <ele>291.897461</ele>
        <time>2013-04-26T09:51:09Z</time>
      </trkpt>
      <trkpt lat="43.7335" lon="3.56139">
        <ele>291.416748</ele>
        <time>2013-04-26T09:51:16Z</time>
      </trkpt>
      <trkpt lat="43.73337" lon="3.5612">
        <ele>292.378174</ele>
        <time>2013-04-26T09:51:33Z</time>
      </trkpt>
      <trkpt lat="43.73334" lon="3.56117">
        <ele>292.378174</ele>
        <time>2013-04-26T09:51:36Z</time>
      </trkpt>
      <trkpt lat="43.73318" lon="3.56117">
        <ele>292.378174</ele>
        <time>2013-04-26T09:51:50Z</time>
      </trkpt>
      <trkpt lat="43.73312" lon="3.56126">
        <ele>293.820068</ele>
        <time>2013-04-26T09:52:01Z</time>
      </trkpt>
      <trkpt lat="43.73308" lon="3.56126">
        <ele>292.858765</ele>
        <time>2013-04-26T09:52:05Z</time>
      </trkpt>
      <trkpt lat="43.73304" lon="3.56125">
        <ele>292.378174</ele>
        <time>2013-04-26T09:52:09Z</time>
      </trkpt>
      <trkpt lat="43.733" lon="3.56132">
        <ele>293.339355</ele>
        <time>2013-04-26T09:52:16Z</time>
      </trkpt>
      <trkpt lat="43.73292" lon="3.56133">
        <ele>293.820068</ele>
        <time>2013-04-26T09:52:24Z</time>
      </trkpt>
      <trkpt lat="43.73289" lon="3.56136">
        <ele>294.300781</ele>
        <time>2013-04-26T09:52:28Z</time>
      </trkpt>
      <trkpt lat="43.73284" lon="3.56132">
        <ele>292.858765</ele>
        <time>2013-04-26T09:52:34Z</time>
      </trkpt>
      <trkpt lat="43.73277" lon="3.56132">
        <ele>293.820068</ele>
        <time>2013-04-26T09:52:40Z</time>
      </trkpt>
      <trkpt lat="43.73264" lon="3.56124">
        <ele>293.820068</ele>
        <time>2013-04-26T09:52:52Z</time>
      </trkpt>
      <trkpt lat="43.73254" lon="3.56109">
        <ele>293.820068</ele>
        <time>2013-04-26T09:53:05Z</time>
      </trkpt>
      <trkpt lat="43.73239" lon="3.56106">
        <ele>293.820068</ele>
        <time>2013-04-26T09:53:18Z</time>
      </trkpt>
      <trkpt lat="43.73231" lon="3.56092">
        <ele>293.339355</ele>
        <time>2013-04-26T09:53:31Z</time>
      </trkpt>
      <trkpt lat="43.73232" lon="3.56086">
        <ele>293.339355</ele>
        <time>2013-04-26T09:53:35Z</time>
      </trkpt>
      <trkpt lat="43.73234" lon="3.56082">
        <ele>292.378174</ele>
        <time>2013-04-26T09:53:39Z</time>
      </trkpt>
      <trkpt lat="43.73234" lon="3.5608">
        <ele>292.378174</ele>
        <time>2013-04-26T09:53:40Z</time>
      </trkpt>
      <trkpt lat="43.73228" lon="3.56055">
        <ele>291.416748</ele>
        <time>2013-04-26T09:53:59Z</time>
      </trkpt>
      <trkpt lat="43.73215" lon="3.5604">
        <ele>292.378174</ele>
        <time>2013-04-26T09:54:15Z</time>
      </trkpt>
      <trkpt lat="43.73209" lon="3.56037">
        <ele>292.378174</ele>
        <time>2013-04-26T09:54:21Z</time>
      </trkpt>
      <trkpt lat="43.73199" lon="3.56034">
        <ele>292.858765</ele>
        <time>2013-04-26T09:54:33Z</time>
      </trkpt>
      <trkpt lat="43.73191" lon="3.56025">
        <ele>292.858765</ele>
        <time>2013-04-26T09:54:46Z</time>
      </trkpt>
      <trkpt lat="43.73177" lon="3.56018">
        <ele>292.858765</ele>
        <time>2013-04-26T09:55:00Z</time>
      </trkpt>
      <trkpt lat="43.73168" lon="3.55989">
        <ele>292.378174</ele>
        <time>2013-04-26T09:55:21Z</time>
      </trkpt>
      <trkpt lat="43.73161" lon="3.55957">
        <ele>290.936157</ele>
        <time>2013-04-26T09:55:43Z</time>
      </trkpt>
      <trkpt lat="43.73162" lon="3.55937">
        <ele>288.532959</ele>
        <time>2013-04-26T09:55:55Z</time>
      </trkpt>
      <trkpt lat="43.73161" lon="3.55934">
        <ele>289.01355</ele>
        <time>2013-04-26T09:55:57Z</time>
      </trkpt>
      <trkpt lat="43.73157" lon="3.5593">
        <ele>289.494141</ele>
        <time>2013-04-26T09:56:02Z</time>
      </trkpt>
      <trkpt lat="43.73154" lon="3.55923">
        <ele>289.01355</ele>
        <time>2013-04-26T09:56:07Z</time>
      </trkpt>
      <trkpt lat="43.73155" lon="3.55902">
        <ele>287.571411</ele>
        <time>2013-04-26T09:56:23Z</time>
      </trkpt>
      <trkpt lat="43.73156" lon="3.55899">
        <ele>287.09082</ele>
        <time>2013-04-26T09:56:38Z</time>
      </trkpt>
      <trkpt lat="43.73155" lon="3.55895">
        <ele>287.09082</ele>
        <time>2013-04-26T09:56:53Z</time>
      </trkpt>
      <trkpt lat="43.73155" lon="3.55896">
        <ele>287.09082</ele>
        <time>2013-04-26T09:57:07Z</time>
      </trkpt>
      <trkpt lat="43.73154" lon="3.55895">
        <ele>286.610229</ele>
        <time>2013-04-26T09:57:24Z</time>
      </trkpt>
      <trkpt lat="43.73153" lon="3.55895">
        <ele>286.129517</ele>
        <time>2013-04-26T09:58:02Z</time>
      </trkpt>
      <trkpt lat="43.73154" lon="3.55896">
        <ele>286.610229</ele>
        <time>2013-04-26T09:59:00Z</time>
      </trkpt>
      <trkpt lat="43.73155" lon="3.55895">
        <ele>286.610229</ele>
        <time>2013-04-26T09:59:16Z</time>
      </trkpt>
      <trkpt lat="43.73154" lon="3.55897">
        <ele>285.648804</ele>
        <time>2013-04-26T10:00:08Z</time>
      </trkpt>
      <trkpt lat="43.73154" lon="3.55896">
        <ele>285.168213</ele>
        <time>2013-04-26T10:01:03Z</time>
      </trkpt>
      <trkpt lat="43.73154" lon="3.55896">
        <ele>284.687622</ele>
        <time>2013-04-26T10:01:38Z</time>
      </trkpt>
      <trkpt lat="43.73154" lon="3.55896">
        <ele>284.687622</ele>
        <time>2013-04-26T10:02:16Z</time>
      </trkpt>
      <trkpt lat="43.73153" lon="3.55897">
        <ele>285.168213</ele>
        <time>2013-04-26T10:03:45Z</time>
      </trkpt>
      <trkpt lat="43.73153" lon="3.55897">
        <ele>286.129517</ele>
        <time>2013-04-26T10:04:41Z</time>
      </trkpt>
      <trkpt lat="43.73153" lon="3.55896">
        <ele>284.687622</ele>
        <time>2013-04-26T10:06:05Z</time>
      </trkpt>
      <trkpt lat="43.73154" lon="3.55896">
        <ele>283.726196</ele>
        <time>2013-04-26T10:07:41Z</time>
      </trkpt>
      <trkpt lat="43.73154" lon="3.55896">
        <ele>283.726196</ele>
        <time>2013-04-26T10:09:12Z</time>
      </trkpt>
      <trkpt lat="43.73153" lon="3.55896">
        <ele>284.206909</ele>
        <time>2013-04-26T10:09:59Z</time>
      </trkpt>
      <trkpt lat="43.73153" lon="3.55899">
        <ele>283.245605</ele>
        <time>2013-04-26T10:10:16Z</time>
      </trkpt>
      <trkpt lat="43.73148" lon="3.55906">
        <ele>284.687622</ele>
        <time>2013-04-26T10:10:30Z</time>
      </trkpt>
      <trkpt lat="43.73144" lon="3.5591">
        <ele>286.129517</ele>
        <time>2013-04-26T10:10:37Z</time>
      </trkpt>
      <trkpt lat="43.73136" lon="3.55921">
        <ele>289.01355</ele>
        <time>2013-04-26T10:10:51Z</time>
      </trkpt>
      <trkpt lat="43.73134" lon="3.55919">
        <ele>288.052246</ele>
        <time>2013-04-26T10:10:56Z</time>
      </trkpt>
      <trkpt lat="43.73129" lon="3.55901">
        <ele>286.610229</ele>
        <time>2013-04-26T10:11:12Z</time>
      </trkpt>
      <trkpt lat="43.73121" lon="3.55887">
        <ele>285.168213</ele>
        <time>2013-04-26T10:11:29Z</time>
      </trkpt>
      <trkpt lat="43.73115" lon="3.55875">
        <ele>284.206909</ele>
        <time>2013-04-26T10:11:43Z</time>
      </trkpt>
      <trkpt lat="43.73112" lon="3.55874">
        <ele>284.206909</ele>
        <time>2013-04-26T10:11:50Z</time>
      </trkpt>
      <trkpt lat="43.73105" lon="3.55869">
        <ele>283.245605</ele>
        <time>2013-04-26T10:11:57Z</time>
      </trkpt>
      <trkpt lat="43.73103" lon="3.55868">
        <ele>282.765015</ele>
        <time>2013-04-26T10:11:59Z</time>
      </trkpt>
      <trkpt lat="43.73095" lon="3.55864">
        <ele>282.765015</ele>
        <time>2013-04-26T10:12:14Z</time>
      </trkpt>
      <trkpt lat="43.73093" lon="3.55862">
        <ele>281.803589</ele>
        <time>2013-04-26T10:12:27Z</time>
      </trkpt>
      <trkpt lat="43.7309" lon="3.55861">
        <ele>281.803589</ele>
        <time>2013-04-26T10:12:42Z</time>
      </trkpt>
      <trkpt lat="43.73089" lon="3.55861">
        <ele>279.880859</ele>
        <time>2013-04-26T10:12:44Z</time>
      </trkpt>
      <trkpt lat="43.73088" lon="3.55862">
        <ele>281.803589</ele>
        <time>2013-04-26T10:12:47Z</time>
      </trkpt>
      <trkpt lat="43.73084" lon="3.55859">
        <ele>279.880859</ele>
        <time>2013-04-26T10:13:02Z</time>
      </trkpt>
      <trkpt lat="43.73082" lon="3.55857">
        <ele>278.919678</ele>
        <time>2013-04-26T10:13:08Z</time>
      </trkpt>
      <trkpt lat="43.73078" lon="3.55855">
        <ele>279.880859</ele>
        <time>2013-04-26T10:13:19Z</time>
      </trkpt>
      <trkpt lat="43.73077" lon="3.55857">
        <ele>279.880859</ele>
        <time>2013-04-26T10:13:38Z</time>
      </trkpt>
      <trkpt lat="43.73074" lon="3.55857">
        <ele>276.99707</ele>
        <time>2013-04-26T10:13:44Z</time>
      </trkpt>
      <trkpt lat="43.73073" lon="3.55858">
        <ele>278.919678</ele>
        <time>2013-04-26T10:13:47Z</time>
      </trkpt>
      <trkpt lat="43.7307" lon="3.5586">
        <ele>278.919678</ele>
        <time>2013-04-26T10:13:57Z</time>
      </trkpt>
      <trkpt lat="43.73069" lon="3.55865">
        <ele>279.880859</ele>
        <time>2013-04-26T10:14:11Z</time>
      </trkpt>
      <trkpt lat="43.73064" lon="3.55867">
        <ele>280.361694</ele>
        <time>2013-04-26T10:14:22Z</time>
      </trkpt>
      <trkpt lat="43.7306" lon="3.55864">
        <ele>278.438965</ele>
        <time>2013-04-26T10:14:34Z</time>
      </trkpt>
      <trkpt lat="43.73051" lon="3.55868">
        <ele>280.842407</ele>
        <time>2013-04-26T10:14:46Z</time>
      </trkpt>
      <trkpt lat="43.73046" lon="3.55868">
        <ele>280.842407</ele>
        <time>2013-04-26T10:15:00Z</time>
      </trkpt>
      <trkpt lat="43.73042" lon="3.55865">
        <ele>278.438965</ele>
        <time>2013-04-26T10:15:12Z</time>
      </trkpt>
      <trkpt lat="43.73038" lon="3.55868">
        <ele>281.803589</ele>
        <time>2013-04-26T10:15:21Z</time>
      </trkpt>
      <trkpt lat="43.73031" lon="3.55868">
        <ele>282.284302</ele>
        <time>2013-04-26T10:15:33Z</time>
      </trkpt>
      <trkpt lat="43.73023" lon="3.55868">
        <ele>282.284302</ele>
        <time>2013-04-26T10:15:45Z</time>
      </trkpt>
      <trkpt lat="43.7301" lon="3.55866">
        <ele>281.803589</ele>
        <time>2013-04-26T10:15:59Z</time>
      </trkpt>
      <trkpt lat="43.73005" lon="3.55862">
        <ele>281.322998</ele>
        <time>2013-04-26T10:16:12Z</time>
      </trkpt>
      <trkpt lat="43.73004" lon="3.55861">
        <ele>279.880859</ele>
        <time>2013-04-26T10:16:24Z</time>
      </trkpt>
      <trkpt lat="43.73005" lon="3.55863">
        <ele>281.322998</ele>
        <time>2013-04-26T10:16:27Z</time>
      </trkpt>
      <trkpt lat="43.73002" lon="3.5587">
        <ele>281.803589</ele>
        <time>2013-04-26T10:16:46Z</time>
      </trkpt>
      <trkpt lat="43.72999" lon="3.55881">
        <ele>282.765015</ele>
        <time>2013-04-26T10:17:01Z</time>
      </trkpt>
      <trkpt lat="43.72998" lon="3.55884">
        <ele>283.245605</ele>
        <time>2013-04-26T10:17:13Z</time>
      </trkpt>
      <trkpt lat="43.7299" lon="3.55887">
        <ele>282.284302</ele>
        <time>2013-04-26T10:17:27Z</time>
      </trkpt>
      <trkpt lat="43.72979" lon="3.5588">
        <ele>280.842407</ele>
        <time>2013-04-26T10:17:42Z</time>
      </trkpt>
      <trkpt lat="43.72969" lon="3.55874">
        <ele>281.322998</ele>
        <time>2013-04-26T10:17:57Z</time>
      </trkpt>
      <trkpt lat="43.72961" lon="3.55869">
        <ele>280.842407</ele>
        <time>2013-04-26T10:18:10Z</time>
      </trkpt>
      <trkpt lat="43.72957" lon="3.5586">
        <ele>279.880859</ele>
        <time>2013-04-26T10:18:23Z</time>
      </trkpt>
      <trkpt lat="43.72951" lon="3.55852">
        <ele>280.361694</ele>
        <time>2013-04-26T10:18:33Z</time>
      </trkpt>
      <trkpt lat="43.72943" lon="3.55847">
        <ele>278.919678</ele>
        <time>2013-04-26T10:18:44Z</time>
      </trkpt>
      <trkpt lat="43.72931" lon="3.55836">
        <ele>279.400269</ele>
        <time>2013-04-26T10:18:57Z</time>
      </trkpt>
      <trkpt lat="43.72922" lon="3.55816">
        <ele>278.919678</ele>
        <time>2013-04-26T10:19:13Z</time>
      </trkpt>
      <trkpt lat="43.72921" lon="3.55814">
        <ele>279.400269</ele>
        <time>2013-04-26T10:19:15Z</time>
      </trkpt>
      <trkpt lat="43.7291" lon="3.55805">
        <ele>281.322998</ele>
        <time>2013-04-26T10:19:29Z</time>
      </trkpt>
      <trkpt lat="43.72909" lon="3.55804">
        <ele>280.361694</ele>
        <time>2013-04-26T10:19:30Z</time>
      </trkpt>
      <trkpt lat="43.72901" lon="3.558">
        <ele>279.880859</ele>
        <time>2013-04-26T10:19:41Z</time>
      </trkpt>
      <trkpt lat="43.72897" lon="3.55801">
        <ele>279.880859</ele>
        <time>2013-04-26T10:19:53Z</time>
      </trkpt>
      <trkpt lat="43.72894" lon="3.55801">
        <ele>279.400269</ele>
        <time>2013-04-26T10:20:07Z</time>
      </trkpt>
      <trkpt lat="43.72891" lon="3.55804">
        <ele>280.361694</ele>
        <time>2013-04-26T10:20:18Z</time>
      </trkpt>
      <trkpt lat="43.72886" lon="3.55803">
        <ele>279.400269</ele>
        <time>2013-04-26T10:20:34Z</time>
      </trkpt>
      <trkpt lat="43.72884" lon="3.55801">
        <ele>279.400269</ele>
        <time>2013-04-26T10:21:01Z</time>
      </trkpt>
      <trkpt lat="43.72884" lon="3.55802">
        <ele>279.880859</ele>
        <time>2013-04-26T10:21:27Z</time>
      </trkpt>
      <trkpt lat="43.72882" lon="3.55803">
        <ele>279.400269</ele>
        <time>2013-04-26T10:21:50Z</time>
      </trkpt>
      <trkpt lat="43.72884" lon="3.55805">
        <ele>279.880859</ele>
        <time>2013-04-26T10:22:18Z</time>
      </trkpt>
      <trkpt lat="43.72882" lon="3.55804">
        <ele>279.880859</ele>
        <time>2013-04-26T10:22:42Z</time>
      </trkpt>
      <trkpt lat="43.72883" lon="3.55803">
        <ele>279.400269</ele>
        <time>2013-04-26T10:23:18Z</time>
      </trkpt>
      <trkpt lat="43.7288" lon="3.55804">
        <ele>279.400269</ele>
        <time>2013-04-26T10:24:45Z</time>
      </trkpt>
      <trkpt lat="43.72878" lon="3.55803">
        <ele>279.880859</ele>
        <time>2013-04-26T10:26:02Z</time>
      </trkpt>
      <trkpt lat="43.72876" lon="3.55796">
        <ele>278.438965</ele>
        <time>2013-04-26T10:26:14Z</time>
      </trkpt>
      <trkpt lat="43.72869" lon="3.55794">
        <ele>278.919678</ele>
        <time>2013-04-26T10:26:29Z</time>
      </trkpt>
      <trkpt lat="43.7286" lon="3.5579">
        <ele>279.880859</ele>
        <time>2013-04-26T10:26:43Z</time>
      </trkpt>
      <trkpt lat="43.72854" lon="3.55789">
        <ele>276.035645</ele>
        <time>2013-04-26T10:26:56Z</time>
      </trkpt>
      <trkpt lat="43.72852" lon="3.55787">
        <ele>281.803589</ele>
        <time>2013-04-26T10:26:57Z</time>
      </trkpt>
      <trkpt lat="43.72848" lon="3.55785">
        <ele>277.477661</ele>
        <time>2013-04-26T10:27:03Z</time>
      </trkpt>
      <trkpt lat="43.72848" lon="3.55785">
        <ele>282.284302</ele>
        <time>2013-04-26T10:27:05Z</time>
      </trkpt>
      <trkpt lat="43.72847" lon="3.55784">
        <ele>278.919678</ele>
        <time>2013-04-26T10:27:10Z</time>
      </trkpt>
      <trkpt lat="43.72835" lon="3.55776">
        <ele>279.400269</ele>
        <time>2013-04-26T10:27:25Z</time>
      </trkpt>
      <trkpt lat="43.72826" lon="3.55774">
        <ele>279.400269</ele>
        <time>2013-04-26T10:27:39Z</time>
      </trkpt>
      <trkpt lat="43.72817" lon="3.55767">
        <ele>278.919678</ele>
        <time>2013-04-26T10:27:50Z</time>
      </trkpt>
      <trkpt lat="43.72811" lon="3.5576">
        <ele>278.438965</ele>
        <time>2013-04-26T10:28:02Z</time>
      </trkpt>
      <trkpt lat="43.72811" lon="3.55752">
        <ele>276.99707</ele>
        <time>2013-04-26T10:28:13Z</time>
      </trkpt>
      <trkpt lat="43.72808" lon="3.55743">
        <ele>276.035645</ele>
        <time>2013-04-26T10:28:25Z</time>
      </trkpt>
      <trkpt lat="43.72807" lon="3.55743">
        <ele>275.555054</ele>
        <time>2013-04-26T10:28:26Z</time>
      </trkpt>
      <trkpt lat="43.728" lon="3.55736">
        <ele>275.555054</ele>
        <time>2013-04-26T10:28:38Z</time>
      </trkpt>
      <trkpt lat="43.72792" lon="3.55727">
        <ele>277.958252</ele>
        <time>2013-04-26T10:28:53Z</time>
      </trkpt>
      <trkpt lat="43.72784" lon="3.55722">
        <ele>279.400269</ele>
        <time>2013-04-26T10:29:05Z</time>
      </trkpt>
      <trkpt lat="43.72777" lon="3.55716">
        <ele>280.361694</ele>
        <time>2013-04-26T10:29:21Z</time>
      </trkpt>
      <trkpt lat="43.72776" lon="3.55706">
        <ele>278.919678</ele>
        <time>2013-04-26T10:29:33Z</time>
      </trkpt>
      <trkpt lat="43.72773" lon="3.55696">
        <ele>280.842407</ele>
        <time>2013-04-26T10:29:49Z</time>
      </trkpt>
      <trkpt lat="43.72773" lon="3.55694">
        <ele>280.361694</ele>
        <time>2013-04-26T10:29:54Z</time>
      </trkpt>
      <trkpt lat="43.72771" lon="3.55681">
        <ele>281.803589</ele>
        <time>2013-04-26T10:30:06Z</time>
      </trkpt>
      <trkpt lat="43.72763" lon="3.55674">
        <ele>280.842407</ele>
        <time>2013-04-26T10:30:20Z</time>
      </trkpt>
      <trkpt lat="43.72757" lon="3.55668">
        <ele>280.361694</ele>
        <time>2013-04-26T10:30:35Z</time>
      </trkpt>
      <trkpt lat="43.72755" lon="3.55663">
        <ele>280.361694</ele>
        <time>2013-04-26T10:30:51Z</time>
      </trkpt>
      <trkpt lat="43.72753" lon="3.55663">
        <ele>280.361694</ele>
        <time>2013-04-26T10:31:16Z</time>
      </trkpt>
      <trkpt lat="43.72753" lon="3.55661">
        <ele>279.880859</ele>
        <time>2013-04-26T10:31:30Z</time>
      </trkpt>
      <trkpt lat="43.72746" lon="3.55652">
        <ele>277.477661</ele>
        <time>2013-04-26T10:31:42Z</time>
      </trkpt>
      <trkpt lat="43.72735" lon="3.5565">
        <ele>277.477661</ele>
        <time>2013-04-26T10:31:59Z</time>
      </trkpt>
      <trkpt lat="43.72726" lon="3.55653">
        <ele>277.477661</ele>
        <time>2013-04-26T10:32:13Z</time>
      </trkpt>
      <trkpt lat="43.72722" lon="3.55649">
        <ele>278.438965</ele>
        <time>2013-04-26T10:32:25Z</time>
      </trkpt>
      <trkpt lat="43.72715" lon="3.55641">
        <ele>275.555054</ele>
        <time>2013-04-26T10:32:45Z</time>
      </trkpt>
      <trkpt lat="43.72706" lon="3.55636">
        <ele>275.555054</ele>
        <time>2013-04-26T10:32:59Z</time>
      </trkpt>
      <trkpt lat="43.72701" lon="3.55628">
        <ele>274.113037</ele>
        <time>2013-04-26T10:33:14Z</time>
      </trkpt>
      <trkpt lat="43.72695" lon="3.55625">
        <ele>274.59375</ele>
        <time>2013-04-26T10:33:29Z</time>
      </trkpt>
      <trkpt lat="43.72692" lon="3.55623">
        <ele>272.671143</ele>
        <time>2013-04-26T10:33:40Z</time>
      </trkpt>
      <trkpt lat="43.72686" lon="3.55619">
        <ele>269.787109</ele>
        <time>2013-04-26T10:34:07Z</time>
      </trkpt>
      <trkpt lat="43.72685" lon="3.55617">
        <ele>269.306519</ele>
        <time>2013-04-26T10:34:24Z</time>
      </trkpt>
      <trkpt lat="43.72681" lon="3.55619">
        <ele>266.903198</ele>
        <time>2013-04-26T10:34:28Z</time>
      </trkpt>
      <trkpt lat="43.72677" lon="3.55619">
        <ele>266.903198</ele>
        <time>2013-04-26T10:34:42Z</time>
      </trkpt>
      <trkpt lat="43.72671" lon="3.55621">
        <ele>266.903198</ele>
        <time>2013-04-26T10:34:58Z</time>
      </trkpt>
      <trkpt lat="43.72663" lon="3.55619">
        <ele>265.941895</ele>
        <time>2013-04-26T10:35:13Z</time>
      </trkpt>
      <trkpt lat="43.72661" lon="3.55622">
        <ele>266.903198</ele>
        <time>2013-04-26T10:35:35Z</time>
      </trkpt>
      <trkpt lat="43.72654" lon="3.55626">
        <ele>266.422485</ele>
        <time>2013-04-26T10:35:49Z</time>
      </trkpt>
      <trkpt lat="43.72647" lon="3.55632">
        <ele>266.422485</ele>
        <time>2013-04-26T10:36:02Z</time>
      </trkpt>
      <trkpt lat="43.72643" lon="3.55637">
        <ele>266.422485</ele>
        <time>2013-04-26T10:36:09Z</time>
      </trkpt>
      <trkpt lat="43.7264" lon="3.55647">
        <ele>266.903198</ele>
        <time>2013-04-26T10:36:18Z</time>
      </trkpt>
      <trkpt lat="43.72634" lon="3.55661">
        <ele>267.864502</ele>
        <time>2013-04-26T10:36:44Z</time>
      </trkpt>
      <trkpt lat="43.72625" lon="3.5567">
        <ele>267.864502</ele>
        <time>2013-04-26T10:37:02Z</time>
      </trkpt>
      <trkpt lat="43.72616" lon="3.55674">
        <ele>267.864502</ele>
        <time>2013-04-26T10:37:14Z</time>
      </trkpt>
      <trkpt lat="43.72608" lon="3.55674">
        <ele>266.903198</ele>
        <time>2013-04-26T10:37:27Z</time>
      </trkpt>
      <trkpt lat="43.72601" lon="3.55676">
        <ele>264.980591</ele>
        <time>2013-04-26T10:37:44Z</time>
      </trkpt>
      <trkpt lat="43.72601" lon="3.55676">
        <ele>266.903198</ele>
        <time>2013-04-26T10:37:46Z</time>
      </trkpt>
      <trkpt lat="43.726" lon="3.55676">
        <ele>268.345093</ele>
        <time>2013-04-26T10:37:48Z</time>
      </trkpt>
      <trkpt lat="43.72595" lon="3.55677">
        <ele>267.383911</ele>
        <time>2013-04-26T10:38:14Z</time>
      </trkpt>
      <trkpt lat="43.72595" lon="3.55679">
        <ele>269.787109</ele>
        <time>2013-04-26T10:38:43Z</time>
      </trkpt>
      <trkpt lat="43.72595" lon="3.5568">
        <ele>265.461304</ele>
        <time>2013-04-26T10:38:46Z</time>
      </trkpt>
      <trkpt lat="43.72595" lon="3.55681">
        <ele>271.709717</ele>
        <time>2013-04-26T10:38:47Z</time>
      </trkpt>
      <trkpt lat="43.72594" lon="3.5568">
        <ele>271.229126</ele>
        <time>2013-04-26T10:38:48Z</time>
      </trkpt>
      <trkpt lat="43.72593" lon="3.55682">
        <ele>267.864502</ele>
        <time>2013-04-26T10:38:50Z</time>
      </trkpt>
      <trkpt lat="43.72592" lon="3.55682">
        <ele>266.903198</ele>
        <time>2013-04-26T10:39:01Z</time>
      </trkpt>
      <trkpt lat="43.72591" lon="3.55682">
        <ele>267.383911</ele>
        <time>2013-04-26T10:39:09Z</time>
      </trkpt>
      <trkpt lat="43.72588" lon="3.55687">
        <ele>261.615967</ele>
        <time>2013-04-26T10:39:40Z</time>
      </trkpt>
      <trkpt lat="43.72588" lon="3.55687">
        <ele>261.615967</ele>
        <time>2013-04-26T10:39:41Z</time>
      </trkpt>
      <trkpt lat="43.72588" lon="3.55687">
        <ele>268.825806</ele>
        <time>2013-04-26T10:39:42Z</time>
      </trkpt>
      <trkpt lat="43.72588" lon="3.55687">
        <ele>267.383911</ele>
        <time>2013-04-26T10:39:43Z</time>
      </trkpt>
      <trkpt lat="43.72587" lon="3.55695">
        <ele>270.2677</ele>
        <time>2013-04-26T10:40:00Z</time>
      </trkpt>
      <trkpt lat="43.72587" lon="3.55696">
        <ele>269.306519</ele>
        <time>2013-04-26T10:40:01Z</time>
      </trkpt>
      <trkpt lat="43.72588" lon="3.55707">
        <ele>272.19043</ele>
        <time>2013-04-26T10:40:15Z</time>
      </trkpt>
      <trkpt lat="43.72587" lon="3.55718">
        <ele>271.229126</ele>
        <time>2013-04-26T10:40:34Z</time>
      </trkpt>
      <trkpt lat="43.72587" lon="3.55719">
        <ele>274.59375</ele>
        <time>2013-04-26T10:40:35Z</time>
      </trkpt>
      <trkpt lat="43.72586" lon="3.55728">
        <ele>274.59375</ele>
        <time>2013-04-26T10:40:47Z</time>
      </trkpt>
      <trkpt lat="43.72585" lon="3.5574">
        <ele>276.035645</ele>
        <time>2013-04-26T10:41:03Z</time>
      </trkpt>
      <trkpt lat="43.72581" lon="3.5575">
        <ele>274.59375</ele>
        <time>2013-04-26T10:41:17Z</time>
      </trkpt>
      <trkpt lat="43.7258" lon="3.55751">
        <ele>277.477661</ele>
        <time>2013-04-26T10:41:19Z</time>
      </trkpt>
      <trkpt lat="43.72575" lon="3.5576">
        <ele>277.477661</ele>
        <time>2013-04-26T10:41:38Z</time>
      </trkpt>
      <trkpt lat="43.7257" lon="3.55766">
        <ele>278.438965</ele>
        <time>2013-04-26T10:42:00Z</time>
      </trkpt>
      <trkpt lat="43.72568" lon="3.55767">
        <ele>274.59375</ele>
        <time>2013-04-26T10:42:05Z</time>
      </trkpt>
      <trkpt lat="43.72568" lon="3.55768">
        <ele>280.361694</ele>
        <time>2013-04-26T10:42:06Z</time>
      </trkpt>
      <trkpt lat="43.72562" lon="3.55778">
        <ele>281.803589</ele>
        <time>2013-04-26T10:42:21Z</time>
      </trkpt>
      <trkpt lat="43.72562" lon="3.55779">
        <ele>281.322998</ele>
        <time>2013-04-26T10:42:22Z</time>
      </trkpt>
      <trkpt lat="43.72558" lon="3.55785">
        <ele>284.687622</ele>
        <time>2013-04-26T10:42:33Z</time>
      </trkpt>
      <trkpt lat="43.72558" lon="3.55785">
        <ele>283.726196</ele>
        <time>2013-04-26T10:42:34Z</time>
      </trkpt>
      <trkpt lat="43.72555" lon="3.55795">
        <ele>285.168213</ele>
        <time>2013-04-26T10:42:46Z</time>
      </trkpt>
      <trkpt lat="43.72547" lon="3.55808">
        <ele>285.168213</ele>
        <time>2013-04-26T10:43:01Z</time>
      </trkpt>
      <trkpt lat="43.72536" lon="3.55811">
        <ele>285.648804</ele>
        <time>2013-04-26T10:43:13Z</time>
      </trkpt>
      <trkpt lat="43.72524" lon="3.55811">
        <ele>284.687622</ele>
        <time>2013-04-26T10:43:30Z</time>
      </trkpt>
      <trkpt lat="43.72521" lon="3.55803">
        <ele>283.245605</ele>
        <time>2013-04-26T10:43:45Z</time>
      </trkpt>
      <trkpt lat="43.72516" lon="3.558">
        <ele>282.765015</ele>
        <time>2013-04-26T10:44:22Z</time>
      </trkpt>
      <trkpt lat="43.72517" lon="3.558">
        <ele>281.803589</ele>
        <time>2013-04-26T10:45:12Z</time>
      </trkpt>
      <trkpt lat="43.72517" lon="3.558">
        <ele>283.245605</ele>
        <time>2013-04-26T10:45:53Z</time>
      </trkpt>
      <trkpt lat="43.72519" lon="3.55808">
        <ele>284.687622</ele>
        <time>2013-04-26T10:46:14Z</time>
      </trkpt>
      <trkpt lat="43.72521" lon="3.55814">
        <ele>286.610229</ele>
        <time>2013-04-26T10:46:33Z</time>
      </trkpt>
      <trkpt lat="43.72517" lon="3.55818">
        <ele>285.648804</ele>
        <time>2013-04-26T10:46:48Z</time>
      </trkpt>
      <trkpt lat="43.72509" lon="3.55825">
        <ele>285.168213</ele>
        <time>2013-04-26T10:47:01Z</time>
      </trkpt>
      <trkpt lat="43.72504" lon="3.55827">
        <ele>284.687622</ele>
        <time>2013-04-26T10:47:07Z</time>
      </trkpt>
      <trkpt lat="43.72498" lon="3.5583">
        <ele>284.687622</ele>
        <time>2013-04-26T10:47:22Z</time>
      </trkpt>
      <trkpt lat="43.72491" lon="3.55831">
        <ele>283.726196</ele>
        <time>2013-04-26T10:47:33Z</time>
      </trkpt>
      <trkpt lat="43.72484" lon="3.55833">
        <ele>283.726196</ele>
        <time>2013-04-26T10:47:53Z</time>
      </trkpt>
      <trkpt lat="43.72482" lon="3.55833">
        <ele>283.726196</ele>
        <time>2013-04-26T10:47:59Z</time>
      </trkpt>
      <trkpt lat="43.72464" lon="3.55834">
        <ele>284.687622</ele>
        <time>2013-04-26T10:48:17Z</time>
      </trkpt>
      <trkpt lat="43.72456" lon="3.55837">
        <ele>283.245605</ele>
        <time>2013-04-26T10:48:25Z</time>
      </trkpt>
      <trkpt lat="43.72447" lon="3.55843">
        <ele>284.687622</ele>
        <time>2013-04-26T10:48:41Z</time>
      </trkpt>
      <trkpt lat="43.72447" lon="3.55843">
        <ele>287.571411</ele>
        <time>2013-04-26T10:48:42Z</time>
      </trkpt>
      <trkpt lat="43.7244" lon="3.55848">
        <ele>284.206909</ele>
        <time>2013-04-26T10:48:51Z</time>
      </trkpt>
      <trkpt lat="43.72433" lon="3.55854">
        <ele>285.648804</ele>
        <time>2013-04-26T10:49:00Z</time>
      </trkpt>
      <trkpt lat="43.72415" lon="3.55867">
        <ele>284.687622</ele>
        <time>2013-04-26T10:49:17Z</time>
      </trkpt>
      <trkpt lat="43.72398" lon="3.55878">
        <ele>285.648804</ele>
        <time>2013-04-26T10:49:35Z</time>
      </trkpt>
      <trkpt lat="43.72389" lon="3.55887">
        <ele>285.168213</ele>
        <time>2013-04-26T10:49:48Z</time>
      </trkpt>
      <trkpt lat="43.72378" lon="3.55894">
        <ele>284.687622</ele>
        <time>2013-04-26T10:49:58Z</time>
      </trkpt>
      <trkpt lat="43.72364" lon="3.55899">
        <ele>285.168213</ele>
        <time>2013-04-26T10:50:17Z</time>
      </trkpt>
      <trkpt lat="43.72363" lon="3.55909">
        <ele>287.571411</ele>
        <time>2013-04-26T10:50:37Z</time>
      </trkpt>
      <trkpt lat="43.72364" lon="3.55919">
        <ele>286.129517</ele>
        <time>2013-04-26T10:50:54Z</time>
      </trkpt>
      <trkpt lat="43.72367" lon="3.5593">
        <ele>286.610229</ele>
        <time>2013-04-26T10:51:18Z</time>
      </trkpt>
      <trkpt lat="43.72364" lon="3.55937">
        <ele>287.571411</ele>
        <time>2013-04-26T10:51:33Z</time>
      </trkpt>
      <trkpt lat="43.7236" lon="3.55935">
        <ele>288.052246</ele>
        <time>2013-04-26T10:51:37Z</time>
      </trkpt>
      <trkpt lat="43.72344" lon="3.5594">
        <ele>286.129517</ele>
        <time>2013-04-26T10:51:55Z</time>
      </trkpt>
      <trkpt lat="43.72337" lon="3.55954">
        <ele>286.129517</ele>
        <time>2013-04-26T10:52:10Z</time>
      </trkpt>
      <trkpt lat="43.72332" lon="3.55968">
        <ele>287.571411</ele>
        <time>2013-04-26T10:52:23Z</time>
      </trkpt>
      <trkpt lat="43.72322" lon="3.55982">
        <ele>287.571411</ele>
        <time>2013-04-26T10:52:38Z</time>
      </trkpt>
      <trkpt lat="43.72309" lon="3.56">
        <ele>287.571411</ele>
        <time>2013-04-26T10:52:55Z</time>
      </trkpt>
      <trkpt lat="43.72298" lon="3.56017">
        <ele>288.052246</ele>
        <time>2013-04-26T10:53:10Z</time>
      </trkpt>
      <trkpt lat="43.72286" lon="3.56028">
        <ele>288.052246</ele>
        <time>2013-04-26T10:53:27Z</time>
      </trkpt>
      <trkpt lat="43.72277" lon="3.56028">
        <ele>288.052246</ele>
        <time>2013-04-26T10:53:43Z</time>
      </trkpt>
      <trkpt lat="43.72262" lon="3.56028">
        <ele>287.571411</ele>
        <time>2013-04-26T10:53:57Z</time>
      </trkpt>
      <trkpt lat="43.72248" lon="3.56031">
        <ele>289.974854</ele>
        <time>2013-04-26T10:54:13Z</time>
      </trkpt>
      <trkpt lat="43.72223" lon="3.56034">
        <ele>291.416748</ele>
        <time>2013-04-26T10:54:35Z</time>
      </trkpt>
      <trkpt lat="43.72217" lon="3.56034">
        <ele>291.416748</ele>
        <time>2013-04-26T10:54:41Z</time>
      </trkpt>
      <trkpt lat="43.72197" lon="3.56035">
        <ele>291.897461</ele>
        <time>2013-04-26T10:54:56Z</time>
      </trkpt>
      <trkpt lat="43.72193" lon="3.56032">
        <ele>290.936157</ele>
        <time>2013-04-26T10:55:00Z</time>
      </trkpt>
      <trkpt lat="43.72172" lon="3.56023">
        <ele>291.897461</ele>
        <time>2013-04-26T10:55:18Z</time>
      </trkpt>
      <trkpt lat="43.72159" lon="3.56022">
        <ele>291.897461</ele>
        <time>2013-04-26T10:55:32Z</time>
      </trkpt>
      <trkpt lat="43.72154" lon="3.56022">
        <ele>291.416748</ele>
        <time>2013-04-26T10:55:46Z</time>
      </trkpt>
      <trkpt lat="43.72143" lon="3.56011">
        <ele>289.494141</ele>
        <time>2013-04-26T10:56:02Z</time>
      </trkpt>
      <trkpt lat="43.72133" lon="3.56007">
        <ele>288.532959</ele>
        <time>2013-04-26T10:56:15Z</time>
      </trkpt>
      <trkpt lat="43.72131" lon="3.56015">
        <ele>290.455566</ele>
        <time>2013-04-26T10:56:28Z</time>
      </trkpt>
      <trkpt lat="43.72131" lon="3.56023">
        <ele>291.416748</ele>
        <time>2013-04-26T10:56:40Z</time>
      </trkpt>
      <trkpt lat="43.7213" lon="3.56025">
        <ele>291.416748</ele>
        <time>2013-04-26T10:56:41Z</time>
      </trkpt>
      <trkpt lat="43.72128" lon="3.5603">
        <ele>290.936157</ele>
        <time>2013-04-26T10:56:45Z</time>
      </trkpt>
      <trkpt lat="43.72126" lon="3.56043">
        <ele>291.897461</ele>
        <time>2013-04-26T10:56:56Z</time>
      </trkpt>
      <trkpt lat="43.72121" lon="3.56058">
        <ele>292.378174</ele>
        <time>2013-04-26T10:57:09Z</time>
      </trkpt>
      <trkpt lat="43.72109" lon="3.56069">
        <ele>292.378174</ele>
        <time>2013-04-26T10:57:22Z</time>
      </trkpt>
      <trkpt lat="43.72094" lon="3.56065">
        <ele>291.416748</ele>
        <time>2013-04-26T10:57:38Z</time>
      </trkpt>
      <trkpt lat="43.72071" lon="3.56064">
        <ele>290.455566</ele>
        <time>2013-04-26T10:57:58Z</time>
      </trkpt>
      <trkpt lat="43.72069" lon="3.56064">
        <ele>290.455566</ele>
        <time>2013-04-26T10:58:05Z</time>
      </trkpt>
      <trkpt lat="43.72067" lon="3.56062">
        <ele>290.936157</ele>
        <time>2013-04-26T10:58:07Z</time>
      </trkpt>
      <trkpt lat="43.72055" lon="3.56057">
        <ele>289.974854</ele>
        <time>2013-04-26T10:58:22Z</time>
      </trkpt>
      <trkpt lat="43.7204" lon="3.56063">
        <ele>289.974854</ele>
        <time>2013-04-26T10:58:39Z</time>
      </trkpt>
      <trkpt lat="43.72034" lon="3.56065">
        <ele>289.494141</ele>
        <time>2013-04-26T10:58:52Z</time>
      </trkpt>
      <trkpt lat="43.72028" lon="3.56069">
        <ele>289.494141</ele>
        <time>2013-04-26T10:59:08Z</time>
      </trkpt>
      <trkpt lat="43.72027" lon="3.56071">
        <ele>289.974854</ele>
        <time>2013-04-26T10:59:34Z</time>
      </trkpt>
      <trkpt lat="43.72025" lon="3.56073">
        <ele>289.494141</ele>
        <time>2013-04-26T10:59:50Z</time>
      </trkpt>
      <trkpt lat="43.7201" lon="3.56073">
        <ele>289.494141</ele>
        <time>2013-04-26T11:00:05Z</time>
      </trkpt>
      <trkpt lat="43.72" lon="3.56066">
        <ele>287.571411</ele>
        <time>2013-04-26T11:00:22Z</time>
      </trkpt>
      <trkpt lat="43.71995" lon="3.56059">
        <ele>286.129517</ele>
        <time>2013-04-26T11:00:34Z</time>
      </trkpt>
      <trkpt lat="43.71986" lon="3.56055">
        <ele>286.610229</ele>
        <time>2013-04-26T11:00:53Z</time>
      </trkpt>
      <trkpt lat="43.71986" lon="3.56032">
        <ele>287.09082</ele>
        <time>2013-04-26T11:01:11Z</time>
      </trkpt>
      <trkpt lat="43.71986" lon="3.56027">
        <ele>287.571411</ele>
        <time>2013-04-26T11:01:14Z</time>
      </trkpt>
      <trkpt lat="43.71988" lon="3.56005">
        <ele>286.610229</ele>
        <time>2013-04-26T11:01:30Z</time>
      </trkpt>
      <trkpt lat="43.71982" lon="3.55989">
        <ele>287.09082</ele>
        <time>2013-04-26T11:01:46Z</time>
      </trkpt>
      <trkpt lat="43.71979" lon="3.55988">
        <ele>285.168213</ele>
        <time>2013-04-26T11:01:49Z</time>
      </trkpt>
      <trkpt lat="43.71971" lon="3.55985">
        <ele>288.052246</ele>
        <time>2013-04-26T11:01:54Z</time>
      </trkpt>
      <trkpt lat="43.71963" lon="3.5598">
        <ele>284.206909</ele>
        <time>2013-04-26T11:02:01Z</time>
      </trkpt>
      <trkpt lat="43.71961" lon="3.5598">
        <ele>289.974854</ele>
        <time>2013-04-26T11:02:02Z</time>
      </trkpt>
      <trkpt lat="43.7196" lon="3.55979">
        <ele>289.01355</ele>
        <time>2013-04-26T11:02:03Z</time>
      </trkpt>
      <trkpt lat="43.71941" lon="3.55975">
        <ele>289.974854</ele>
        <time>2013-04-26T11:02:20Z</time>
      </trkpt>
      <trkpt lat="43.71923" lon="3.55978">
        <ele>288.532959</ele>
        <time>2013-04-26T11:02:36Z</time>
      </trkpt>
      <trkpt lat="43.71905" lon="3.55972">
        <ele>288.052246</ele>
        <time>2013-04-26T11:02:51Z</time>
      </trkpt>
      <trkpt lat="43.71894" lon="3.55958">
        <ele>288.052246</ele>
        <time>2013-04-26T11:03:06Z</time>
      </trkpt>
      <trkpt lat="43.71887" lon="3.55954">
        <ele>291.416748</ele>
        <time>2013-04-26T11:03:15Z</time>
      </trkpt>
      <trkpt lat="43.71861" lon="3.55948">
        <ele>289.01355</ele>
        <time>2013-04-26T11:03:35Z</time>
      </trkpt>
      <trkpt lat="43.71851" lon="3.55944">
        <ele>287.571411</ele>
        <time>2013-04-26T11:03:46Z</time>
      </trkpt>
      <trkpt lat="43.7185" lon="3.55941">
        <ele>288.532959</ele>
        <time>2013-04-26T11:03:48Z</time>
      </trkpt>
      <trkpt lat="43.71848" lon="3.55934">
        <ele>287.09082</ele>
        <time>2013-04-26T11:03:56Z</time>
      </trkpt>
      <trkpt lat="43.71847" lon="3.55927">
        <ele>291.416748</ele>
        <time>2013-04-26T11:04:03Z</time>
      </trkpt>
      <trkpt lat="43.71847" lon="3.55926">
        <ele>289.974854</ele>
        <time>2013-04-26T11:04:04Z</time>
      </trkpt>
      <trkpt lat="43.71843" lon="3.55923">
        <ele>290.455566</ele>
        <time>2013-04-26T11:04:07Z</time>
      </trkpt>
      <trkpt lat="43.71838" lon="3.55918">
        <ele>292.858765</ele>
        <time>2013-04-26T11:04:13Z</time>
      </trkpt>
      <trkpt lat="43.71831" lon="3.55913">
        <ele>295.261963</ele>
        <time>2013-04-26T11:04:28Z</time>
      </trkpt>
      <trkpt lat="43.7183" lon="3.55912">
        <ele>294.300781</ele>
        <time>2013-04-26T11:04:37Z</time>
      </trkpt>
      <trkpt lat="43.7183" lon="3.55911">
        <ele>295.742676</ele>
        <time>2013-04-26T11:04:39Z</time>
      </trkpt>
      <trkpt lat="43.71829" lon="3.5591">
        <ele>296.223511</ele>
        <time>2013-04-26T11:04:59Z</time>
      </trkpt>
      <trkpt lat="43.71831" lon="3.55911">
        <ele>295.742676</ele>
        <time>2013-04-26T11:05:17Z</time>
      </trkpt>
      <trkpt lat="43.71828" lon="3.55911">
        <ele>295.742676</ele>
        <time>2013-04-26T11:05:33Z</time>
      </trkpt>
      <trkpt lat="43.71822" lon="3.55919">
        <ele>295.742676</ele>
        <time>2013-04-26T11:06:57Z</time>
      </trkpt>
      <trkpt lat="43.71816" lon="3.55923">
        <ele>296.704102</ele>
        <time>2013-04-26T11:07:04Z</time>
      </trkpt>
      <trkpt lat="43.71814" lon="3.55923">
        <ele>297.665405</ele>
        <time>2013-04-26T11:07:06Z</time>
      </trkpt>
      <trkpt lat="43.71796" lon="3.55931">
        <ele>297.665405</ele>
        <time>2013-04-26T11:07:26Z</time>
      </trkpt>
      <trkpt lat="43.71795" lon="3.55932">
        <ele>297.184692</ele>
        <time>2013-04-26T11:07:27Z</time>
      </trkpt>
      <trkpt lat="43.71778" lon="3.55946">
        <ele>297.665405</ele>
        <time>2013-04-26T11:07:45Z</time>
      </trkpt>
      <trkpt lat="43.71761" lon="3.55962">
        <ele>298.626709</ele>
        <time>2013-04-26T11:08:02Z</time>
      </trkpt>
      <trkpt lat="43.71741" lon="3.55963">
        <ele>298.626709</ele>
        <time>2013-04-26T11:08:20Z</time>
      </trkpt>
      <trkpt lat="43.71734" lon="3.55962">
        <ele>298.146118</ele>
        <time>2013-04-26T11:08:27Z</time>
      </trkpt>
      <trkpt lat="43.71722" lon="3.55958">
        <ele>298.146118</ele>
        <time>2013-04-26T11:08:43Z</time>
      </trkpt>
      <trkpt lat="43.71707" lon="3.55956">
        <ele>296.704102</ele>
        <time>2013-04-26T11:08:58Z</time>
      </trkpt>
      <trkpt lat="43.71694" lon="3.55969">
        <ele>296.223511</ele>
        <time>2013-04-26T11:09:17Z</time>
      </trkpt>
      <trkpt lat="43.71693" lon="3.55973">
        <ele>297.184692</ele>
        <time>2013-04-26T11:09:20Z</time>
      </trkpt>
      <trkpt lat="43.71693" lon="3.55999">
        <ele>297.665405</ele>
        <time>2013-04-26T11:09:38Z</time>
      </trkpt>
      <trkpt lat="43.71693" lon="3.56011">
        <ele>300.068726</ele>
        <time>2013-04-26T11:10:02Z</time>
      </trkpt>
      <trkpt lat="43.71692" lon="3.56014">
        <ele>299.588013</ele>
        <time>2013-04-26T11:10:32Z</time>
      </trkpt>
      <trkpt lat="43.71697" lon="3.56032">
        <ele>300.068726</ele>
        <time>2013-04-26T11:10:48Z</time>
      </trkpt>
      <trkpt lat="43.71698" lon="3.56037">
        <ele>292.378174</ele>
        <time>2013-04-26T11:10:52Z</time>
      </trkpt>
      <trkpt lat="43.71698" lon="3.56038">
        <ele>301.991333</ele>
        <time>2013-04-26T11:10:53Z</time>
      </trkpt>
      <trkpt lat="43.71699" lon="3.56038">
        <ele>301.029907</ele>
        <time>2013-04-26T11:10:54Z</time>
      </trkpt>
      <trkpt lat="43.717" lon="3.5604">
        <ele>300.068726</ele>
        <time>2013-04-26T11:10:56Z</time>
      </trkpt>
      <trkpt lat="43.717" lon="3.56055">
        <ele>299.588013</ele>
        <time>2013-04-26T11:11:10Z</time>
      </trkpt>
      <trkpt lat="43.71702" lon="3.56077">
        <ele>299.1073</ele>
        <time>2013-04-26T11:11:26Z</time>
      </trkpt>
      <trkpt lat="43.71706" lon="3.56102">
        <ele>299.588013</ele>
        <time>2013-04-26T11:11:43Z</time>
      </trkpt>
      <trkpt lat="43.71708" lon="3.56121">
        <ele>299.1073</ele>
        <time>2013-04-26T11:11:56Z</time>
      </trkpt>
      <trkpt lat="43.71708" lon="3.56125">
        <ele>297.665405</ele>
        <time>2013-04-26T11:11:59Z</time>
      </trkpt>
      <trkpt lat="43.71709" lon="3.56152">
        <ele>298.146118</ele>
        <time>2013-04-26T11:12:16Z</time>
      </trkpt>
      <trkpt lat="43.71709" lon="3.56154">
        <ele>298.146118</ele>
        <time>2013-04-26T11:12:17Z</time>
      </trkpt>
      <trkpt lat="43.71717" lon="3.5618">
        <ele>298.626709</ele>
        <time>2013-04-26T11:12:34Z</time>
      </trkpt>
      <trkpt lat="43.71723" lon="3.56205">
        <ele>299.1073</ele>
        <time>2013-04-26T11:12:51Z</time>
      </trkpt>
      <trkpt lat="43.71727" lon="3.56229">
        <ele>298.626709</ele>
        <time>2013-04-26T11:13:06Z</time>
      </trkpt>
      <trkpt lat="43.71728" lon="3.5624">
        <ele>299.1073</ele>
        <time>2013-04-26T11:13:13Z</time>
      </trkpt>
      <trkpt lat="43.71719" lon="3.56265">
        <ele>298.626709</ele>
        <time>2013-04-26T11:13:31Z</time>
      </trkpt>
      <trkpt lat="43.71716" lon="3.56278">
        <ele>299.1073</ele>
        <time>2013-04-26T11:13:41Z</time>
      </trkpt>
      <trkpt lat="43.71717" lon="3.56306">
        <ele>298.626709</ele>
        <time>2013-04-26T11:13:57Z</time>
      </trkpt>
      <trkpt lat="43.71729" lon="3.56332">
        <ele>297.665405</ele>
        <time>2013-04-26T11:14:16Z</time>
      </trkpt>
      <trkpt lat="43.71737" lon="3.56362">
        <ele>297.665405</ele>
        <time>2013-04-26T11:14:35Z</time>
      </trkpt>
      <trkpt lat="43.7174" lon="3.56395">
        <ele>296.223511</ele>
        <time>2013-04-26T11:14:54Z</time>
      </trkpt>
      <trkpt lat="43.71737" lon="3.56421">
        <ele>296.704102</ele>
        <time>2013-04-26T11:15:10Z</time>
      </trkpt>
      <trkpt lat="43.71736" lon="3.56423">
        <ele>296.704102</ele>
        <time>2013-04-26T11:15:11Z</time>
      </trkpt>
      <trkpt lat="43.71733" lon="3.56454">
        <ele>294.781372</ele>
        <time>2013-04-26T11:15:28Z</time>
      </trkpt>
      <trkpt lat="43.71732" lon="3.56489">
        <ele>293.820068</ele>
        <time>2013-04-26T11:15:46Z</time>
      </trkpt>
      <trkpt lat="43.71736" lon="3.56528">
        <ele>291.897461</ele>
        <time>2013-04-26T11:16:06Z</time>
      </trkpt>
      <trkpt lat="43.71747" lon="3.56556">
        <ele>292.858765</ele>
        <time>2013-04-26T11:16:24Z</time>
      </trkpt>
      <trkpt lat="43.71763" lon="3.56579">
        <ele>293.339355</ele>
        <time>2013-04-26T11:16:42Z</time>
      </trkpt>
      <trkpt lat="43.71773" lon="3.56589">
        <ele>293.820068</ele>
        <time>2013-04-26T11:16:52Z</time>
      </trkpt>
      <trkpt lat="43.71795" lon="3.56599">
        <ele>294.300781</ele>
        <time>2013-04-26T11:17:12Z</time>
      </trkpt>
      <trkpt lat="43.71814" lon="3.56601">
        <ele>294.781372</ele>
        <time>2013-04-26T11:17:28Z</time>
      </trkpt>
      <trkpt lat="43.71839" lon="3.56599">
        <ele>294.300781</ele>
        <time>2013-04-26T11:17:48Z</time>
      </trkpt>
      <trkpt lat="43.71863" lon="3.56597">
        <ele>293.820068</ele>
        <time>2013-04-26T11:18:07Z</time>
      </trkpt>
      <trkpt lat="43.71885" lon="3.56609">
        <ele>293.339355</ele>
        <time>2013-04-26T11:18:23Z</time>
      </trkpt>
      <trkpt lat="43.71903" lon="3.56632">
        <ele>293.820068</ele>
        <time>2013-04-26T11:18:42Z</time>
      </trkpt>
      <trkpt lat="43.71928" lon="3.56648">
        <ele>291.416748</ele>
        <time>2013-04-26T11:19:03Z</time>
      </trkpt>
      <trkpt lat="43.71944" lon="3.5667">
        <ele>291.416748</ele>
        <time>2013-04-26T11:19:22Z</time>
      </trkpt>
      <trkpt lat="43.71949" lon="3.56668">
        <ele>291.416748</ele>
        <time>2013-04-26T11:19:33Z</time>
      </trkpt>
      <trkpt lat="43.71959" lon="3.56665">
        <ele>290.936157</ele>
        <time>2013-04-26T11:19:48Z</time>
      </trkpt>
      <trkpt lat="43.71966" lon="3.5666">
        <ele>290.455566</ele>
        <time>2013-04-26T11:20:04Z</time>
      </trkpt>
      <trkpt lat="43.71966" lon="3.56657">
        <ele>288.052246</ele>
        <time>2013-04-26T11:20:13Z</time>
      </trkpt>
      <trkpt lat="43.71964" lon="3.56647">
        <ele>286.129517</ele>
        <time>2013-04-26T11:20:36Z</time>
      </trkpt>
      <trkpt lat="43.71966" lon="3.5665">
        <ele>286.129517</ele>
        <time>2013-04-26T11:20:53Z</time>
      </trkpt>
      <trkpt lat="43.71969" lon="3.5665">
        <ele>286.129517</ele>
        <time>2013-04-26T11:21:05Z</time>
      </trkpt>
      <trkpt lat="43.71964" lon="3.56656">
        <ele>286.610229</ele>
        <time>2013-04-26T11:21:24Z</time>
      </trkpt>
      <trkpt lat="43.71969" lon="3.56652">
        <ele>287.571411</ele>
        <time>2013-04-26T11:21:47Z</time>
      </trkpt>
      <trkpt lat="43.71969" lon="3.56656">
        <ele>290.936157</ele>
        <time>2013-04-26T11:22:10Z</time>
      </trkpt>
      <trkpt lat="43.71973" lon="3.56657">
        <ele>287.09082</ele>
        <time>2013-04-26T11:22:33Z</time>
      </trkpt>
      <trkpt lat="43.71973" lon="3.56656">
        <ele>291.897461</ele>
        <time>2013-04-26T11:22:34Z</time>
      </trkpt>
      <trkpt lat="43.71972" lon="3.56648">
        <ele>291.416748</ele>
        <time>2013-04-26T11:22:55Z</time>
      </trkpt>
      <trkpt lat="43.71971" lon="3.56648">
        <ele>285.648804</ele>
        <time>2013-04-26T11:23:02Z</time>
      </trkpt>
      <trkpt lat="43.71971" lon="3.56648">
        <ele>286.610229</ele>
        <time>2013-04-26T11:23:03Z</time>
      </trkpt>
      <trkpt lat="43.71972" lon="3.56648">
        <ele>289.974854</ele>
        <time>2013-04-26T11:23:04Z</time>
      </trkpt>
      <trkpt lat="43.71972" lon="3.56648">
        <ele>292.858765</ele>
        <time>2013-04-26T11:23:05Z</time>
      </trkpt>
      <trkpt lat="43.71973" lon="3.56647">
        <ele>290.455566</ele>
        <time>2013-04-26T11:23:06Z</time>
      </trkpt>
      <trkpt lat="43.71974" lon="3.56645">
        <ele>298.146118</ele>
        <time>2013-04-26T11:23:09Z</time>
      </trkpt>
      <trkpt lat="43.71973" lon="3.56644">
        <ele>293.339355</ele>
        <time>2013-04-26T11:23:10Z</time>
      </trkpt>
      <trkpt lat="43.71974" lon="3.56644">
        <ele>290.455566</ele>
        <time>2013-04-26T11:23:12Z</time>
      </trkpt>
      <trkpt lat="43.71973" lon="3.56645">
        <ele>289.974854</ele>
        <time>2013-04-26T11:23:20Z</time>
      </trkpt>
      <trkpt lat="43.71971" lon="3.56645">
        <ele>290.455566</ele>
        <time>2013-04-26T11:24:19Z</time>
      </trkpt>
      <trkpt lat="43.71972" lon="3.5664">
        <ele>290.936157</ele>
        <time>2013-04-26T11:24:40Z</time>
      </trkpt>
      <trkpt lat="43.71972" lon="3.56639">
        <ele>286.129517</ele>
        <time>2013-04-26T11:24:41Z</time>
      </trkpt>
      <trkpt lat="43.71972" lon="3.56638">
        <ele>289.01355</ele>
        <time>2013-04-26T11:24:42Z</time>
      </trkpt>
      <trkpt lat="43.71972" lon="3.56638">
        <ele>292.378174</ele>
        <time>2013-04-26T11:24:43Z</time>
      </trkpt>
      <trkpt lat="43.71974" lon="3.56637">
        <ele>290.455566</ele>
        <time>2013-04-26T11:24:47Z</time>
      </trkpt>
      <trkpt lat="43.71971" lon="3.5664">
        <ele>289.974854</ele>
        <time>2013-04-26T11:25:04Z</time>
      </trkpt>
      <trkpt lat="43.71974" lon="3.56646">
        <ele>290.455566</ele>
        <time>2013-04-26T11:25:27Z</time>
      </trkpt>
      <trkpt lat="43.71974" lon="3.56645">
        <ele>287.09082</ele>
        <time>2013-04-26T11:25:31Z</time>
      </trkpt>
      <trkpt lat="43.71974" lon="3.56645">
        <ele>287.09082</ele>
        <time>2013-04-26T11:25:32Z</time>
      </trkpt>
      <trkpt lat="43.71974" lon="3.56646">
        <ele>291.416748</ele>
        <time>2013-04-26T11:25:33Z</time>
      </trkpt>
      <trkpt lat="43.71974" lon="3.56646">
        <ele>290.455566</ele>
        <time>2013-04-26T11:25:34Z</time>
      </trkpt>
      <trkpt lat="43.71973" lon="3.56649">
        <ele>290.936157</ele>
        <time>2013-04-26T11:26:03Z</time>
      </trkpt>
      <trkpt lat="43.71971" lon="3.5665">
        <ele>290.455566</ele>
        <time>2013-04-26T11:26:32Z</time>
      </trkpt>
      <trkpt lat="43.71974" lon="3.56646">
        <ele>290.936157</ele>
        <time>2013-04-26T11:27:55Z</time>
      </trkpt>
      <trkpt lat="43.71973" lon="3.56647">
        <ele>292.378174</ele>
        <time>2013-04-26T11:31:28Z</time>
      </trkpt>
      <trkpt lat="43.71973" lon="3.56647">
        <ele>292.378174</ele>
        <time>2013-04-26T11:31:58Z</time>
      </trkpt>
      <trkpt lat="43.71974" lon="3.56649">
        <ele>291.897461</ele>
        <time>2013-04-26T11:32:31Z</time>
      </trkpt>
      <trkpt lat="43.71971" lon="3.56642">
        <ele>292.378174</ele>
        <time>2013-04-26T11:33:42Z</time>
      </trkpt>
      <trkpt lat="43.7197" lon="3.56645">
        <ele>292.858765</ele>
        <time>2013-04-26T11:33:52Z</time>
      </trkpt>
      <trkpt lat="43.71976" lon="3.5665">
        <ele>292.858765</ele>
        <time>2013-04-26T11:34:18Z</time>
      </trkpt>
      <trkpt lat="43.71974" lon="3.56652">
        <ele>293.339355</ele>
        <time>2013-04-26T11:35:18Z</time>
      </trkpt>
      <trkpt lat="43.71973" lon="3.56647">
        <ele>292.858765</ele>
        <time>2013-04-26T11:35:45Z</time>
      </trkpt>
      <trkpt lat="43.71977" lon="3.56648">
        <ele>292.378174</ele>
        <time>2013-04-26T11:37:26Z</time>
      </trkpt>
      <trkpt lat="43.71971" lon="3.5665">
        <ele>292.858765</ele>
        <time>2013-04-26T11:37:47Z</time>
      </trkpt>
      <trkpt lat="43.7197" lon="3.56651">
        <ele>292.378174</ele>
        <time>2013-04-26T11:38:09Z</time>
      </trkpt>
      <trkpt lat="43.71974" lon="3.56652">
        <ele>292.858765</ele>
        <time>2013-04-26T11:38:32Z</time>
      </trkpt>
      <trkpt lat="43.71972" lon="3.56649">
        <ele>293.339355</ele>
        <time>2013-04-26T11:39:25Z</time>
      </trkpt>
      <trkpt lat="43.71972" lon="3.56645">
        <ele>293.339355</ele>
        <time>2013-04-26T11:39:49Z</time>
      </trkpt>
      <trkpt lat="43.71967" lon="3.56651">
        <ele>294.781372</ele>
        <time>2013-04-26T11:40:17Z</time>
      </trkpt>
      <trkpt lat="43.71966" lon="3.56654">
        <ele>292.858765</ele>
        <time>2013-04-26T11:40:18Z</time>
      </trkpt>
      <trkpt lat="43.71968" lon="3.56657">
        <ele>294.300781</ele>
        <time>2013-04-26T11:40:36Z</time>
      </trkpt>
      <trkpt lat="43.71971" lon="3.56652">
        <ele>294.781372</ele>
        <time>2013-04-26T11:40:54Z</time>
      </trkpt>
      <trkpt lat="43.71975" lon="3.56648">
        <ele>294.781372</ele>
        <time>2013-04-26T11:41:16Z</time>
      </trkpt>
      <trkpt lat="43.71971" lon="3.5665">
        <ele>291.897461</ele>
        <time>2013-04-26T11:43:17Z</time>
      </trkpt>
      <trkpt lat="43.71973" lon="3.56648">
        <ele>293.339355</ele>
        <time>2013-04-26T11:43:32Z</time>
      </trkpt>
      <trkpt lat="43.71971" lon="3.56647">
        <ele>293.339355</ele>
        <time>2013-04-26T11:43:55Z</time>
      </trkpt>
      <trkpt lat="43.71971" lon="3.56643">
        <ele>292.858765</ele>
        <time>2013-04-26T11:44:12Z</time>
      </trkpt>
      <trkpt lat="43.71971" lon="3.56643">
        <ele>292.858765</ele>
        <time>2013-04-26T11:44:41Z</time>
      </trkpt>
      <trkpt lat="43.71973" lon="3.56644">
        <ele>293.339355</ele>
        <time>2013-04-26T11:44:55Z</time>
      </trkpt>
      <trkpt lat="43.71965" lon="3.56645">
        <ele>292.858765</ele>
        <time>2013-04-26T11:45:34Z</time>
      </trkpt>
      <trkpt lat="43.71967" lon="3.56649">
        <ele>293.820068</ele>
        <time>2013-04-26T11:46:01Z</time>
      </trkpt>
      <trkpt lat="43.7197" lon="3.56647">
        <ele>293.339355</ele>
        <time>2013-04-26T11:46:28Z</time>
      </trkpt>
      <trkpt lat="43.71971" lon="3.56646">
        <ele>294.300781</ele>
        <time>2013-04-26T11:46:46Z</time>
      </trkpt>
      <trkpt lat="43.7197" lon="3.56647">
        <ele>294.300781</ele>
        <time>2013-04-26T11:46:58Z</time>
      </trkpt>
      <trkpt lat="43.7197" lon="3.56648">
        <ele>295.261963</ele>
        <time>2013-04-26T11:47:29Z</time>
      </trkpt>
      <trkpt lat="43.7197" lon="3.56647">
        <ele>295.261963</ele>
        <time>2013-04-26T11:47:53Z</time>
      </trkpt>
      <trkpt lat="43.71971" lon="3.56648">
        <ele>294.300781</ele>
        <time>2013-04-26T11:48:26Z</time>
      </trkpt>
      <trkpt lat="43.71972" lon="3.56647">
        <ele>293.820068</ele>
        <time>2013-04-26T11:49:10Z</time>
      </trkpt>
      <trkpt lat="43.71969" lon="3.56648">
        <ele>293.339355</ele>
        <time>2013-04-26T11:49:47Z</time>
      </trkpt>
      <trkpt lat="43.7197" lon="3.56647">
        <ele>291.897461</ele>
        <time>2013-04-26T11:50:33Z</time>
      </trkpt>
      <trkpt lat="43.71973" lon="3.56642">
        <ele>293.820068</ele>
        <time>2013-04-26T11:51:05Z</time>
      </trkpt>
      <trkpt lat="43.71974" lon="3.56638">
        <ele>293.820068</ele>
        <time>2013-04-26T11:51:24Z</time>
      </trkpt>
      <trkpt lat="43.71973" lon="3.56645">
        <ele>293.820068</ele>
        <time>2013-04-26T11:51:56Z</time>
      </trkpt>
      <trkpt lat="43.71968" lon="3.56647">
        <ele>293.820068</ele>
        <time>2013-04-26T11:52:18Z</time>
      </trkpt>
      <trkpt lat="43.71972" lon="3.56646">
        <ele>292.858765</ele>
        <time>2013-04-26T11:53:34Z</time>
      </trkpt>
      <trkpt lat="43.71973" lon="3.56647">
        <ele>292.378174</ele>
        <time>2013-04-26T11:54:43Z</time>
      </trkpt>
      <trkpt lat="43.71975" lon="3.56646">
        <ele>293.339355</ele>
        <time>2013-04-26T11:56:55Z</time>
      </trkpt>
      <trkpt lat="43.71973" lon="3.56647">
        <ele>293.820068</ele>
        <time>2013-04-26T11:57:22Z</time>
      </trkpt>
      <trkpt lat="43.71971" lon="3.56646">
        <ele>293.339355</ele>
        <time>2013-04-26T11:58:23Z</time>
      </trkpt>
      <trkpt lat="43.71975" lon="3.56647">
        <ele>293.820068</ele>
        <time>2013-04-26T11:58:52Z</time>
      </trkpt>
      <trkpt lat="43.7197" lon="3.5665">
        <ele>294.300781</ele>
        <time>2013-04-26T12:00:08Z</time>
      </trkpt>
      <trkpt lat="43.71971" lon="3.56644">
        <ele>293.820068</ele>
        <time>2013-04-26T12:00:47Z</time>
      </trkpt>
      <trkpt lat="43.71976" lon="3.56643">
        <ele>293.820068</ele>
        <time>2013-04-26T12:01:41Z</time>
      </trkpt>
      <trkpt lat="43.71972" lon="3.56645">
        <ele>293.339355</ele>
        <time>2013-04-26T12:02:13Z</time>
      </trkpt>
      <trkpt lat="43.71972" lon="3.56644">
        <ele>293.339355</ele>
        <time>2013-04-26T12:02:38Z</time>
      </trkpt>
      <trkpt lat="43.71973" lon="3.56648">
        <ele>294.300781</ele>
        <time>2013-04-26T12:04:10Z</time>
      </trkpt>
      <trkpt lat="43.71967" lon="3.5664">
        <ele>294.300781</ele>
        <time>2013-04-26T12:04:38Z</time>
      </trkpt>
      <trkpt lat="43.71969" lon="3.56641">
        <ele>293.820068</ele>
        <time>2013-04-26T12:05:25Z</time>
      </trkpt>
      <trkpt lat="43.71968" lon="3.56641">
        <ele>290.455566</ele>
        <time>2013-04-26T12:06:16Z</time>
      </trkpt>
      <trkpt lat="43.71968" lon="3.56642">
        <ele>296.223511</ele>
        <time>2013-04-26T12:06:17Z</time>
      </trkpt>
      <trkpt lat="43.71969" lon="3.56642">
        <ele>296.223511</ele>
        <time>2013-04-26T12:06:18Z</time>
      </trkpt>
      <trkpt lat="43.71969" lon="3.56642">
        <ele>294.300781</ele>
        <time>2013-04-26T12:06:22Z</time>
      </trkpt>
      <trkpt lat="43.71972" lon="3.56641">
        <ele>294.781372</ele>
        <time>2013-04-26T12:06:50Z</time>
      </trkpt>
      <trkpt lat="43.7197" lon="3.56648">
        <ele>294.300781</ele>
        <time>2013-04-26T12:07:56Z</time>
      </trkpt>
      <trkpt lat="43.71967" lon="3.56652">
        <ele>292.378174</ele>
        <time>2013-04-26T12:08:24Z</time>
      </trkpt>
      <trkpt lat="43.71968" lon="3.56646">
        <ele>292.858765</ele>
        <time>2013-04-26T12:09:05Z</time>
      </trkpt>
      <trkpt lat="43.71969" lon="3.56647">
        <ele>292.858765</ele>
        <time>2013-04-26T12:09:20Z</time>
      </trkpt>
      <trkpt lat="43.71971" lon="3.56645">
        <ele>293.820068</ele>
        <time>2013-04-26T12:10:05Z</time>
      </trkpt>
      <trkpt lat="43.7197" lon="3.56645">
        <ele>293.820068</ele>
        <time>2013-04-26T12:10:27Z</time>
      </trkpt>
      <trkpt lat="43.71969" lon="3.56648">
        <ele>291.897461</ele>
        <time>2013-04-26T12:10:45Z</time>
      </trkpt>
      <trkpt lat="43.71967" lon="3.56655">
        <ele>291.416748</ele>
        <time>2013-04-26T12:10:55Z</time>
      </trkpt>
      <trkpt lat="43.71966" lon="3.56656">
        <ele>292.378174</ele>
        <time>2013-04-26T12:11:08Z</time>
      </trkpt>
      <trkpt lat="43.71963" lon="3.56654">
        <ele>291.897461</ele>
        <time>2013-04-26T12:11:27Z</time>
      </trkpt>
      <trkpt lat="43.71965" lon="3.56652">
        <ele>289.01355</ele>
        <time>2013-04-26T12:11:45Z</time>
      </trkpt>
      <trkpt lat="43.71964" lon="3.56648">
        <ele>288.052246</ele>
        <time>2013-04-26T12:12:00Z</time>
      </trkpt>
      <trkpt lat="43.71963" lon="3.56648">
        <ele>288.052246</ele>
        <time>2013-04-26T12:12:13Z</time>
      </trkpt>
      <trkpt lat="43.71973" lon="3.56654">
        <ele>287.09082</ele>
        <time>2013-04-26T12:12:19Z</time>
      </trkpt>
      <trkpt lat="43.71965" lon="3.56647">
        <ele>287.571411</ele>
        <time>2013-04-26T12:12:32Z</time>
      </trkpt>
      <trkpt lat="43.71956" lon="3.5665">
        <ele>284.206909</ele>
        <time>2013-04-26T12:12:46Z</time>
      </trkpt>
      <trkpt lat="43.71956" lon="3.5665">
        <ele>282.765015</ele>
        <time>2013-04-26T12:13:08Z</time>
      </trkpt>
      <trkpt lat="43.71956" lon="3.5665">
        <ele>286.129517</ele>
        <time>2013-04-26T12:23:26Z</time>
      </trkpt>
      <trkpt lat="43.71946" lon="3.56627">
        <ele>289.01355</ele>
        <time>2013-04-26T12:23:49Z</time>
      </trkpt>
      <trkpt lat="43.71946" lon="3.5663">
        <ele>289.974854</ele>
        <time>2013-04-26T12:23:50Z</time>
      </trkpt>
      <trkpt lat="43.7197" lon="3.56647">
        <ele>288.532959</ele>
        <time>2013-04-26T12:23:53Z</time>
      </trkpt>
      <trkpt lat="43.7197" lon="3.56652">
        <ele>288.532959</ele>
        <time>2013-04-26T12:23:56Z</time>
      </trkpt>
      <trkpt lat="43.71969" lon="3.5665">
        <ele>289.01355</ele>
        <time>2013-04-26T12:24:09Z</time>
      </trkpt>
      <trkpt lat="43.71964" lon="3.56652">
        <ele>290.936157</ele>
        <time>2013-04-26T12:24:50Z</time>
      </trkpt>
      <trkpt lat="43.71967" lon="3.5666">
        <ele>293.820068</ele>
        <time>2013-04-26T12:25:11Z</time>
      </trkpt>
      <trkpt lat="43.7197" lon="3.56655">
        <ele>293.339355</ele>
        <time>2013-04-26T12:25:26Z</time>
      </trkpt>
      <trkpt lat="43.71969" lon="3.56652">
        <ele>293.339355</ele>
        <time>2013-04-26T12:25:42Z</time>
      </trkpt>
      <trkpt lat="43.71967" lon="3.56652">
        <ele>292.858765</ele>
        <time>2013-04-26T12:26:43Z</time>
      </trkpt>
      <trkpt lat="43.71969" lon="3.56657">
        <ele>295.261963</ele>
        <time>2013-04-26T12:27:39Z</time>
      </trkpt>
      <trkpt lat="43.71967" lon="3.56657">
        <ele>293.820068</ele>
        <time>2013-04-26T12:28:24Z</time>
      </trkpt>
      <trkpt lat="43.71963" lon="3.56659">
        <ele>294.781372</ele>
        <time>2013-04-26T12:28:36Z</time>
      </trkpt>
      <trkpt lat="43.71955" lon="3.56662">
        <ele>294.781372</ele>
        <time>2013-04-26T12:28:47Z</time>
      </trkpt>
      <trkpt lat="43.71946" lon="3.56668">
        <ele>295.261963</ele>
        <time>2013-04-26T12:29:01Z</time>
      </trkpt>
      <trkpt lat="43.71945" lon="3.56676">
        <ele>294.781372</ele>
        <time>2013-04-26T12:29:15Z</time>
      </trkpt>
      <trkpt lat="43.71945" lon="3.56676">
        <ele>295.742676</ele>
        <time>2013-04-26T12:29:36Z</time>
      </trkpt>
      <trkpt lat="43.71944" lon="3.56676">
        <ele>294.781372</ele>
        <time>2013-04-26T12:29:57Z</time>
      </trkpt>
      <trkpt lat="43.71944" lon="3.56677">
        <ele>294.300781</ele>
        <time>2013-04-26T12:30:06Z</time>
      </trkpt>
      <trkpt lat="43.71951" lon="3.56693">
        <ele>293.820068</ele>
        <time>2013-04-26T12:30:21Z</time>
      </trkpt>
      <trkpt lat="43.71954" lon="3.56698">
        <ele>293.339355</ele>
        <time>2013-04-26T12:30:25Z</time>
      </trkpt>
      <trkpt lat="43.71963" lon="3.56719">
        <ele>292.378174</ele>
        <time>2013-04-26T12:30:43Z</time>
      </trkpt>
      <trkpt lat="43.7197" lon="3.56735">
        <ele>292.858765</ele>
        <time>2013-04-26T12:30:57Z</time>
      </trkpt>
      <trkpt lat="43.7198" lon="3.56769">
        <ele>291.897461</ele>
        <time>2013-04-26T12:31:21Z</time>
      </trkpt>
      <trkpt lat="43.71984" lon="3.56776">
        <ele>290.455566</ele>
        <time>2013-04-26T12:31:26Z</time>
      </trkpt>
      <trkpt lat="43.71992" lon="3.56796">
        <ele>287.571411</ele>
        <time>2013-04-26T12:31:41Z</time>
      </trkpt>
      <trkpt lat="43.71993" lon="3.56798">
        <ele>287.571411</ele>
        <time>2013-04-26T12:31:42Z</time>
      </trkpt>
      <trkpt lat="43.72004" lon="3.56824">
        <ele>286.610229</ele>
        <time>2013-04-26T12:32:02Z</time>
      </trkpt>
      <trkpt lat="43.72017" lon="3.5685">
        <ele>286.129517</ele>
        <time>2013-04-26T12:32:23Z</time>
      </trkpt>
      <trkpt lat="43.72017" lon="3.56873">
        <ele>286.610229</ele>
        <time>2013-04-26T12:32:42Z</time>
      </trkpt>
      <trkpt lat="43.72" lon="3.56901">
        <ele>286.129517</ele>
        <time>2013-04-26T12:33:06Z</time>
      </trkpt>
      <trkpt lat="43.71998" lon="3.56909">
        <ele>286.129517</ele>
        <time>2013-04-26T12:33:12Z</time>
      </trkpt>
      <trkpt lat="43.71993" lon="3.56939">
        <ele>285.168213</ele>
        <time>2013-04-26T12:33:33Z</time>
      </trkpt>
      <trkpt lat="43.71991" lon="3.56969">
        <ele>284.206909</ele>
        <time>2013-04-26T12:33:54Z</time>
      </trkpt>
      <trkpt lat="43.71984" lon="3.5701">
        <ele>282.765015</ele>
        <time>2013-04-26T12:34:21Z</time>
      </trkpt>
      <trkpt lat="43.71975" lon="3.57044">
        <ele>282.765015</ele>
        <time>2013-04-26T12:34:44Z</time>
      </trkpt>
      <trkpt lat="43.7197" lon="3.57058">
        <ele>282.765015</ele>
        <time>2013-04-26T12:34:55Z</time>
      </trkpt>
      <trkpt lat="43.71955" lon="3.57091">
        <ele>283.245605</ele>
        <time>2013-04-26T12:35:20Z</time>
      </trkpt>
      <trkpt lat="43.71933" lon="3.57114">
        <ele>283.726196</ele>
        <time>2013-04-26T12:35:44Z</time>
      </trkpt>
      <trkpt lat="43.71906" lon="3.57135">
        <ele>284.206909</ele>
        <time>2013-04-26T12:36:11Z</time>
      </trkpt>
      <trkpt lat="43.7189" lon="3.57163">
        <ele>285.168213</ele>
        <time>2013-04-26T12:36:33Z</time>
      </trkpt>
      <trkpt lat="43.71888" lon="3.57201">
        <ele>286.129517</ele>
        <time>2013-04-26T12:36:57Z</time>
      </trkpt>
      <trkpt lat="43.71902" lon="3.57215">
        <ele>286.610229</ele>
        <time>2013-04-26T12:37:14Z</time>
      </trkpt>
      <trkpt lat="43.71917" lon="3.57238">
        <ele>286.610229</ele>
        <time>2013-04-26T12:37:34Z</time>
      </trkpt>
      <trkpt lat="43.71921" lon="3.5726">
        <ele>286.610229</ele>
        <time>2013-04-26T12:37:55Z</time>
      </trkpt>
      <trkpt lat="43.71924" lon="3.57268">
        <ele>287.09082</ele>
        <time>2013-04-26T12:38:10Z</time>
      </trkpt>
      <trkpt lat="43.71924" lon="3.57268">
        <ele>287.571411</ele>
        <time>2013-04-26T12:38:11Z</time>
      </trkpt>
      <trkpt lat="43.71929" lon="3.57274">
        <ele>287.571411</ele>
        <time>2013-04-26T12:38:30Z</time>
      </trkpt>
      <trkpt lat="43.7193" lon="3.57277">
        <ele>287.571411</ele>
        <time>2013-04-26T12:38:51Z</time>
      </trkpt>
      <trkpt lat="43.71937" lon="3.57287">
        <ele>287.09082</ele>
        <time>2013-04-26T12:39:04Z</time>
      </trkpt>
      <trkpt lat="43.71951" lon="3.57296">
        <ele>286.610229</ele>
        <time>2013-04-26T12:39:20Z</time>
      </trkpt>
      <trkpt lat="43.71953" lon="3.57297">
        <ele>287.09082</ele>
        <time>2013-04-26T12:39:22Z</time>
      </trkpt>
      <trkpt lat="43.71968" lon="3.57308">
        <ele>287.09082</ele>
        <time>2013-04-26T12:39:39Z</time>
      </trkpt>
      <trkpt lat="43.71983" lon="3.57319">
        <ele>287.571411</ele>
        <time>2013-04-26T12:39:54Z</time>
      </trkpt>
      <trkpt lat="43.71997" lon="3.5733">
        <ele>287.571411</ele>
        <time>2013-04-26T12:40:08Z</time>
      </trkpt>
      <trkpt lat="43.72001" lon="3.57334">
        <ele>287.571411</ele>
        <time>2013-04-26T12:40:12Z</time>
      </trkpt>
      <trkpt lat="43.72014" lon="3.57348">
        <ele>287.571411</ele>
        <time>2013-04-26T12:40:27Z</time>
      </trkpt>
      <trkpt lat="43.72026" lon="3.57371">
        <ele>288.052246</ele>
        <time>2013-04-26T12:40:46Z</time>
      </trkpt>
      <trkpt lat="43.72024" lon="3.57383">
        <ele>288.532959</ele>
        <time>2013-04-26T12:40:58Z</time>
      </trkpt>
      <trkpt lat="43.72019" lon="3.57388">
        <ele>288.532959</ele>
        <time>2013-04-26T12:41:12Z</time>
      </trkpt>
      <trkpt lat="43.72019" lon="3.5739">
        <ele>289.01355</ele>
        <time>2013-04-26T12:41:28Z</time>
      </trkpt>
      <trkpt lat="43.7202" lon="3.57391">
        <ele>289.01355</ele>
        <time>2013-04-26T12:41:48Z</time>
      </trkpt>
      <trkpt lat="43.7202" lon="3.57391">
        <ele>288.052246</ele>
        <time>2013-04-26T12:42:52Z</time>
      </trkpt>
      <trkpt lat="43.72022" lon="3.5739">
        <ele>288.532959</ele>
        <time>2013-04-26T12:43:09Z</time>
      </trkpt>
      <trkpt lat="43.72028" lon="3.57386">
        <ele>288.532959</ele>
        <time>2013-04-26T12:43:17Z</time>
      </trkpt>
      <trkpt lat="43.72032" lon="3.5739">
        <ele>288.532959</ele>
        <time>2013-04-26T12:43:22Z</time>
      </trkpt>
      <trkpt lat="43.72036" lon="3.57404">
        <ele>287.571411</ele>
        <time>2013-04-26T12:43:33Z</time>
      </trkpt>
      <trkpt lat="43.72039" lon="3.57425">
        <ele>288.052246</ele>
        <time>2013-04-26T12:43:51Z</time>
      </trkpt>
      <trkpt lat="43.72043" lon="3.57447">
        <ele>288.532959</ele>
        <time>2013-04-26T12:44:09Z</time>
      </trkpt>
      <trkpt lat="43.72042" lon="3.57455">
        <ele>289.01355</ele>
        <time>2013-04-26T12:44:17Z</time>
      </trkpt>
      <trkpt lat="43.72035" lon="3.57462">
        <ele>289.494141</ele>
        <time>2013-04-26T12:44:27Z</time>
      </trkpt>
      <trkpt lat="43.72034" lon="3.57479">
        <ele>289.01355</ele>
        <time>2013-04-26T12:44:41Z</time>
      </trkpt>
      <trkpt lat="43.72033" lon="3.57482">
        <ele>289.974854</ele>
        <time>2013-04-26T12:44:54Z</time>
      </trkpt>
      <trkpt lat="43.72033" lon="3.57486">
        <ele>290.455566</ele>
        <time>2013-04-26T12:45:08Z</time>
      </trkpt>
      <trkpt lat="43.72035" lon="3.57488">
        <ele>290.455566</ele>
        <time>2013-04-26T12:45:28Z</time>
      </trkpt>
      <trkpt lat="43.72038" lon="3.57488">
        <ele>290.936157</ele>
        <time>2013-04-26T12:45:46Z</time>
      </trkpt>
      <trkpt lat="43.72039" lon="3.57488">
        <ele>290.936157</ele>
        <time>2013-04-26T12:46:11Z</time>
      </trkpt>
      <trkpt lat="43.72038" lon="3.57484">
        <ele>290.936157</ele>
        <time>2013-04-26T12:46:26Z</time>
      </trkpt>
      <trkpt lat="43.72038" lon="3.57473">
        <ele>289.494141</ele>
        <time>2013-04-26T12:46:41Z</time>
      </trkpt>
      <trkpt lat="43.72039" lon="3.57469">
        <ele>289.494141</ele>
        <time>2013-04-26T12:46:45Z</time>
      </trkpt>
      <trkpt lat="43.72048" lon="3.57471">
        <ele>289.974854</ele>
        <time>2013-04-26T12:47:00Z</time>
      </trkpt>
      <trkpt lat="43.72051" lon="3.57479">
        <ele>290.455566</ele>
        <time>2013-04-26T12:47:08Z</time>
      </trkpt>
      <trkpt lat="43.72059" lon="3.57498">
        <ele>290.936157</ele>
        <time>2013-04-26T12:47:25Z</time>
      </trkpt>
      <trkpt lat="43.72063" lon="3.57504">
        <ele>291.416748</ele>
        <time>2013-04-26T12:47:40Z</time>
      </trkpt>
      <trkpt lat="43.72071" lon="3.57519">
        <ele>291.416748</ele>
        <time>2013-04-26T12:47:57Z</time>
      </trkpt>
      <trkpt lat="43.72074" lon="3.57526">
        <ele>291.897461</ele>
        <time>2013-04-26T12:48:02Z</time>
      </trkpt>
      <trkpt lat="43.72077" lon="3.57542">
        <ele>291.897461</ele>
        <time>2013-04-26T12:48:13Z</time>
      </trkpt>
      <trkpt lat="43.7208" lon="3.57547">
        <ele>291.897461</ele>
        <time>2013-04-26T12:48:17Z</time>
      </trkpt>
      <trkpt lat="43.72093" lon="3.57576">
        <ele>292.858765</ele>
        <time>2013-04-26T12:48:39Z</time>
      </trkpt>
      <trkpt lat="43.72104" lon="3.57601">
        <ele>293.820068</ele>
        <time>2013-04-26T12:48:59Z</time>
      </trkpt>
      <trkpt lat="43.7212" lon="3.57627">
        <ele>294.300781</ele>
        <time>2013-04-26T12:49:21Z</time>
      </trkpt>
      <trkpt lat="43.72137" lon="3.57649">
        <ele>295.261963</ele>
        <time>2013-04-26T12:49:42Z</time>
      </trkpt>
      <trkpt lat="43.72147" lon="3.57666">
        <ele>295.261963</ele>
        <time>2013-04-26T12:49:58Z</time>
      </trkpt>
      <trkpt lat="43.72163" lon="3.57683">
        <ele>295.742676</ele>
        <time>2013-04-26T12:50:14Z</time>
      </trkpt>
      <trkpt lat="43.72171" lon="3.57697">
        <ele>295.742676</ele>
        <time>2013-04-26T12:50:26Z</time>
      </trkpt>
      <trkpt lat="43.72173" lon="3.57698">
        <ele>295.261963</ele>
        <time>2013-04-26T12:50:28Z</time>
      </trkpt>
      <trkpt lat="43.72187" lon="3.5773">
        <ele>294.300781</ele>
        <time>2013-04-26T12:50:51Z</time>
      </trkpt>
      <trkpt lat="43.72206" lon="3.57738">
        <ele>294.781372</ele>
        <time>2013-04-26T12:51:10Z</time>
      </trkpt>
      <trkpt lat="43.72231" lon="3.57746">
        <ele>295.742676</ele>
        <time>2013-04-26T12:51:33Z</time>
      </trkpt>
      <trkpt lat="43.72258" lon="3.57754">
        <ele>295.742676</ele>
        <time>2013-04-26T12:51:56Z</time>
      </trkpt>
      <trkpt lat="43.72285" lon="3.57766">
        <ele>296.223511</ele>
        <time>2013-04-26T12:52:20Z</time>
      </trkpt>
      <trkpt lat="43.72311" lon="3.57796">
        <ele>294.300781</ele>
        <time>2013-04-26T12:52:47Z</time>
      </trkpt>
      <trkpt lat="43.72337" lon="3.57825">
        <ele>291.897461</ele>
        <time>2013-04-26T12:53:13Z</time>
      </trkpt>
      <trkpt lat="43.72362" lon="3.57853">
        <ele>291.416748</ele>
        <time>2013-04-26T12:53:39Z</time>
      </trkpt>
      <trkpt lat="43.72394" lon="3.57876">
        <ele>290.936157</ele>
        <time>2013-04-26T12:54:08Z</time>
      </trkpt>
      <trkpt lat="43.7242" lon="3.57882">
        <ele>290.455566</ele>
        <time>2013-04-26T12:54:31Z</time>
      </trkpt>
      <trkpt lat="43.72447" lon="3.5789">
        <ele>289.494141</ele>
        <time>2013-04-26T12:54:56Z</time>
      </trkpt>
      <trkpt lat="43.72475" lon="3.57898">
        <ele>289.494141</ele>
        <time>2013-04-26T12:55:20Z</time>
      </trkpt>
      <trkpt lat="43.72494" lon="3.579">
        <ele>289.494141</ele>
        <time>2013-04-26T12:55:36Z</time>
      </trkpt>
      <trkpt lat="43.72503" lon="3.579">
        <ele>289.01355</ele>
        <time>2013-04-26T12:55:45Z</time>
      </trkpt>
      <trkpt lat="43.72507" lon="3.57898">
        <ele>288.532959</ele>
        <time>2013-04-26T12:55:49Z</time>
      </trkpt>
      <trkpt lat="43.72524" lon="3.57881">
        <ele>289.01355</ele>
        <time>2013-04-26T12:56:10Z</time>
      </trkpt>
      <trkpt lat="43.72528" lon="3.57878">
        <ele>288.532959</ele>
        <time>2013-04-26T12:56:15Z</time>
      </trkpt>
      <trkpt lat="43.7255" lon="3.5786">
        <ele>289.494141</ele>
        <time>2013-04-26T12:56:37Z</time>
      </trkpt>
      <trkpt lat="43.72568" lon="3.57833">
        <ele>289.494141</ele>
        <time>2013-04-26T12:56:59Z</time>
      </trkpt>
      <trkpt lat="43.72588" lon="3.57821">
        <ele>289.01355</ele>
        <time>2013-04-26T12:57:19Z</time>
      </trkpt>
      <trkpt lat="43.726" lon="3.57807">
        <ele>289.01355</ele>
        <time>2013-04-26T12:57:33Z</time>
      </trkpt>
      <trkpt lat="43.72615" lon="3.57783">
        <ele>289.494141</ele>
        <time>2013-04-26T12:57:52Z</time>
      </trkpt>
      <trkpt lat="43.72629" lon="3.57756">
        <ele>289.974854</ele>
        <time>2013-04-26T12:58:12Z</time>
      </trkpt>
      <trkpt lat="43.72635" lon="3.5774">
        <ele>290.936157</ele>
        <time>2013-04-26T12:58:27Z</time>
      </trkpt>
      <trkpt lat="43.7265" lon="3.57745">
        <ele>292.378174</ele>
        <time>2013-04-26T12:58:37Z</time>
      </trkpt>
      <trkpt lat="43.72649" lon="3.57744">
        <ele>292.378174</ele>
        <time>2013-04-26T12:58:54Z</time>
      </trkpt>
      <trkpt lat="43.72652" lon="3.57745">
        <ele>293.339355</ele>
        <time>2013-04-26T12:59:06Z</time>
      </trkpt>
      <trkpt lat="43.72653" lon="3.57744">
        <ele>292.378174</ele>
        <time>2013-04-26T12:59:25Z</time>
      </trkpt>
      <trkpt lat="43.72654" lon="3.57742">
        <ele>290.936157</ele>
        <time>2013-04-26T12:59:31Z</time>
      </trkpt>
      <trkpt lat="43.72655" lon="3.5773">
        <ele>290.936157</ele>
        <time>2013-04-26T12:59:39Z</time>
      </trkpt>
      <trkpt lat="43.72652" lon="3.5772">
        <ele>290.455566</ele>
        <time>2013-04-26T12:59:54Z</time>
      </trkpt>
      <trkpt lat="43.72654" lon="3.57712">
        <ele>290.936157</ele>
        <time>2013-04-26T13:00:08Z</time>
      </trkpt>
      <trkpt lat="43.72654" lon="3.57711">
        <ele>291.416748</ele>
        <time>2013-04-26T13:00:31Z</time>
      </trkpt>
      <trkpt lat="43.72655" lon="3.5771">
        <ele>290.455566</ele>
        <time>2013-04-26T13:00:50Z</time>
      </trkpt>
      <trkpt lat="43.72654" lon="3.57711">
        <ele>290.936157</ele>
        <time>2013-04-26T13:01:10Z</time>
      </trkpt>
      <trkpt lat="43.72654" lon="3.57709">
        <ele>290.455566</ele>
        <time>2013-04-26T13:01:38Z</time>
      </trkpt>
      <trkpt lat="43.72656" lon="3.57707">
        <ele>290.936157</ele>
        <time>2013-04-26T13:01:54Z</time>
      </trkpt>
      <trkpt lat="43.72658" lon="3.57704">
        <ele>291.416748</ele>
        <time>2013-04-26T13:01:59Z</time>
      </trkpt>
      <trkpt lat="43.72666" lon="3.57685">
        <ele>291.416748</ele>
        <time>2013-04-26T13:02:18Z</time>
      </trkpt>
      <trkpt lat="43.72667" lon="3.57685">
        <ele>290.936157</ele>
        <time>2013-04-26T13:02:19Z</time>
      </trkpt>
      <trkpt lat="43.72668" lon="3.57683">
        <ele>291.416748</ele>
        <time>2013-04-26T13:02:21Z</time>
      </trkpt>
      <trkpt lat="43.72672" lon="3.57659">
        <ele>292.858765</ele>
        <time>2013-04-26T13:02:39Z</time>
      </trkpt>
      <trkpt lat="43.72672" lon="3.57651">
        <ele>292.378174</ele>
        <time>2013-04-26T13:02:47Z</time>
      </trkpt>
      <trkpt lat="43.72671" lon="3.57645">
        <ele>292.378174</ele>
        <time>2013-04-26T13:02:51Z</time>
      </trkpt>
      <trkpt lat="43.72671" lon="3.57638">
        <ele>292.858765</ele>
        <time>2013-04-26T13:02:56Z</time>
      </trkpt>
      <trkpt lat="43.7268" lon="3.57619">
        <ele>292.378174</ele>
        <time>2013-04-26T13:03:11Z</time>
      </trkpt>
      <trkpt lat="43.72684" lon="3.57616">
        <ele>292.858765</ele>
        <time>2013-04-26T13:03:15Z</time>
      </trkpt>
      <trkpt lat="43.72693" lon="3.57603">
        <ele>293.339355</ele>
        <time>2013-04-26T13:03:27Z</time>
      </trkpt>
      <trkpt lat="43.72707" lon="3.57582">
        <ele>293.339355</ele>
        <time>2013-04-26T13:03:47Z</time>
      </trkpt>
      <trkpt lat="43.72715" lon="3.57581">
        <ele>293.820068</ele>
        <time>2013-04-26T13:04:00Z</time>
      </trkpt>
      <trkpt lat="43.72716" lon="3.57581">
        <ele>293.339355</ele>
        <time>2013-04-26T13:04:01Z</time>
      </trkpt>
      <trkpt lat="43.72735" lon="3.57604">
        <ele>294.300781</ele>
        <time>2013-04-26T13:04:26Z</time>
      </trkpt>
      <trkpt lat="43.72755" lon="3.57636">
        <ele>294.300781</ele>
        <time>2013-04-26T13:04:53Z</time>
      </trkpt>
      <trkpt lat="43.72759" lon="3.57645">
        <ele>294.781372</ele>
        <time>2013-04-26T13:05:01Z</time>
      </trkpt>
      <trkpt lat="43.72761" lon="3.57655">
        <ele>294.781372</ele>
        <time>2013-04-26T13:05:08Z</time>
      </trkpt>
      <trkpt lat="43.7277" lon="3.57689">
        <ele>295.261963</ele>
        <time>2013-04-26T13:05:31Z</time>
      </trkpt>
      <trkpt lat="43.72775" lon="3.57698">
        <ele>295.742676</ele>
        <time>2013-04-26T13:05:40Z</time>
      </trkpt>
      <trkpt lat="43.72775" lon="3.57702">
        <ele>295.742676</ele>
        <time>2013-04-26T13:05:43Z</time>
      </trkpt>
      <trkpt lat="43.72794" lon="3.57723">
        <ele>296.223511</ele>
        <time>2013-04-26T13:06:04Z</time>
      </trkpt>
      <trkpt lat="43.72817" lon="3.57743">
        <ele>297.184692</ele>
        <time>2013-04-26T13:06:27Z</time>
      </trkpt>
      <trkpt lat="43.72837" lon="3.57767">
        <ele>297.184692</ele>
        <time>2013-04-26T13:06:50Z</time>
      </trkpt>
      <trkpt lat="43.72847" lon="3.57792">
        <ele>298.626709</ele>
        <time>2013-04-26T13:07:09Z</time>
      </trkpt>
      <trkpt lat="43.72858" lon="3.57813">
        <ele>299.588013</ele>
        <time>2013-04-26T13:07:26Z</time>
      </trkpt>
      <trkpt lat="43.72877" lon="3.57834">
        <ele>300.549316</ele>
        <time>2013-04-26T13:07:47Z</time>
      </trkpt>
      <trkpt lat="43.72892" lon="3.57854">
        <ele>301.991333</ele>
        <time>2013-04-26T13:08:06Z</time>
      </trkpt>
      <trkpt lat="43.72905" lon="3.57868">
        <ele>302.471924</ele>
        <time>2013-04-26T13:08:21Z</time>
      </trkpt>
      <trkpt lat="43.72907" lon="3.57874">
        <ele>302.471924</ele>
        <time>2013-04-26T13:08:26Z</time>
      </trkpt>
      <trkpt lat="43.72932" lon="3.57878">
        <ele>302.952515</ele>
        <time>2013-04-26T13:08:51Z</time>
      </trkpt>
      <trkpt lat="43.72951" lon="3.57855">
        <ele>304.394653</ele>
        <time>2013-04-26T13:09:14Z</time>
      </trkpt>
      <trkpt lat="43.7297" lon="3.57833">
        <ele>304.875244</ele>
        <time>2013-04-26T13:09:36Z</time>
      </trkpt>
      <trkpt lat="43.72979" lon="3.57808">
        <ele>305.355957</ele>
        <time>2013-04-26T13:09:57Z</time>
      </trkpt>
      <trkpt lat="43.72984" lon="3.57795">
        <ele>304.875244</ele>
        <time>2013-04-26T13:10:11Z</time>
      </trkpt>
      <trkpt lat="43.72989" lon="3.57785">
        <ele>305.355957</ele>
        <time>2013-04-26T13:10:27Z</time>
      </trkpt>
      <trkpt lat="43.72988" lon="3.57766">
        <ele>305.355957</ele>
        <time>2013-04-26T13:10:44Z</time>
      </trkpt>
      <trkpt lat="43.72988" lon="3.57758">
        <ele>305.355957</ele>
        <time>2013-04-26T13:11:00Z</time>
      </trkpt>
      <trkpt lat="43.72984" lon="3.57754">
        <ele>305.83667</ele>
        <time>2013-04-26T13:11:36Z</time>
      </trkpt>
      <trkpt lat="43.72984" lon="3.57755">
        <ele>306.317261</ele>
        <time>2013-04-26T13:12:24Z</time>
      </trkpt>
      <trkpt lat="43.72984" lon="3.57769">
        <ele>305.83667</ele>
        <time>2013-04-26T13:12:41Z</time>
      </trkpt>
      <trkpt lat="43.72983" lon="3.57769">
        <ele>305.83667</ele>
        <time>2013-04-26T13:12:54Z</time>
      </trkpt>
      <trkpt lat="43.72979" lon="3.57762">
        <ele>307.278564</ele>
        <time>2013-04-26T13:13:04Z</time>
      </trkpt>
      <trkpt lat="43.7298" lon="3.57768">
        <ele>305.83667</ele>
        <time>2013-04-26T13:13:21Z</time>
      </trkpt>
      <trkpt lat="43.72984" lon="3.57765">
        <ele>305.83667</ele>
        <time>2013-04-26T13:13:32Z</time>
      </trkpt>
      <trkpt lat="43.72985" lon="3.57759">
        <ele>305.83667</ele>
        <time>2013-04-26T13:13:46Z</time>
      </trkpt>
      <trkpt lat="43.72984" lon="3.57759">
        <ele>305.83667</ele>
        <time>2013-04-26T13:14:06Z</time>
      </trkpt>
      <trkpt lat="43.72986" lon="3.57759">
        <ele>305.83667</ele>
        <time>2013-04-26T13:14:23Z</time>
      </trkpt>
      <trkpt lat="43.72985" lon="3.57758">
        <ele>305.83667</ele>
        <time>2013-04-26T13:14:51Z</time>
      </trkpt>
      <trkpt lat="43.72986" lon="3.57752">
        <ele>306.317261</ele>
        <time>2013-04-26T13:15:15Z</time>
      </trkpt>
      <trkpt lat="43.72982" lon="3.57754">
        <ele>305.83667</ele>
        <time>2013-04-26T13:15:30Z</time>
      </trkpt>
      <trkpt lat="43.72981" lon="3.57755">
        <ele>304.875244</ele>
        <time>2013-04-26T13:15:46Z</time>
      </trkpt>
      <trkpt lat="43.72973" lon="3.57754">
        <ele>306.317261</ele>
        <time>2013-04-26T13:16:00Z</time>
      </trkpt>
      <trkpt lat="43.72972" lon="3.57755">
        <ele>306.797852</ele>
        <time>2013-04-26T13:16:20Z</time>
      </trkpt>
      <trkpt lat="43.72969" lon="3.57759">
        <ele>306.797852</ele>
        <time>2013-04-26T13:17:00Z</time>
      </trkpt>
      <trkpt lat="43.72967" lon="3.57756">
        <ele>306.797852</ele>
        <time>2013-04-26T13:17:13Z</time>
      </trkpt>
      <trkpt lat="43.72974" lon="3.57751">
        <ele>306.797852</ele>
        <time>2013-04-26T13:17:20Z</time>
      </trkpt>
      <trkpt lat="43.72979" lon="3.57745">
        <ele>307.278564</ele>
        <time>2013-04-26T13:17:29Z</time>
      </trkpt>
      <trkpt lat="43.72977" lon="3.57737">
        <ele>306.797852</ele>
        <time>2013-04-26T13:17:42Z</time>
      </trkpt>
      <trkpt lat="43.72982" lon="3.57731">
        <ele>305.83667</ele>
        <time>2013-04-26T13:18:00Z</time>
      </trkpt>
      <trkpt lat="43.72989" lon="3.57732">
        <ele>306.317261</ele>
        <time>2013-04-26T13:18:02Z</time>
      </trkpt>
      <trkpt lat="43.72994" lon="3.57734">
        <ele>305.83667</ele>
        <time>2013-04-26T13:18:21Z</time>
      </trkpt>
      <trkpt lat="43.72994" lon="3.57734">
        <ele>306.317261</ele>
        <time>2013-04-26T13:18:37Z</time>
      </trkpt>
      <trkpt lat="43.73023" lon="3.57738">
        <ele>307.278564</ele>
        <time>2013-04-26T13:18:53Z</time>
      </trkpt>
      <trkpt lat="43.7299" lon="3.57733">
        <ele>306.797852</ele>
        <time>2013-04-26T13:18:56Z</time>
      </trkpt>
      <trkpt lat="43.72979" lon="3.57726">
        <ele>306.797852</ele>
        <time>2013-04-26T13:19:11Z</time>
      </trkpt>
      <trkpt lat="43.72984" lon="3.57723">
        <ele>307.278564</ele>
        <time>2013-04-26T13:19:31Z</time>
      </trkpt>
      <trkpt lat="43.7298" lon="3.57716">
        <ele>307.278564</ele>
        <time>2013-04-26T13:19:44Z</time>
      </trkpt>
      <trkpt lat="43.7298" lon="3.5771">
        <ele>307.278564</ele>
        <time>2013-04-26T13:19:49Z</time>
      </trkpt>
      <trkpt lat="43.72979" lon="3.57701">
        <ele>307.278564</ele>
        <time>2013-04-26T13:19:56Z</time>
      </trkpt>
      <trkpt lat="43.72978" lon="3.5769">
        <ele>306.797852</ele>
        <time>2013-04-26T13:20:06Z</time>
      </trkpt>
      <trkpt lat="43.72971" lon="3.57692">
        <ele>306.317261</ele>
        <time>2013-04-26T13:20:16Z</time>
      </trkpt>
      <trkpt lat="43.72963" lon="3.577">
        <ele>306.797852</ele>
        <time>2013-04-26T13:20:29Z</time>
      </trkpt>
      <trkpt lat="43.72962" lon="3.57707">
        <ele>306.317261</ele>
        <time>2013-04-26T13:20:43Z</time>
      </trkpt>
      <trkpt lat="43.72961" lon="3.57709">
        <ele>305.83667</ele>
        <time>2013-04-26T13:21:04Z</time>
      </trkpt>
      <trkpt lat="43.7296" lon="3.5772">
        <ele>304.875244</ele>
        <time>2013-04-26T13:21:17Z</time>
      </trkpt>
      <trkpt lat="43.72959" lon="3.57722">
        <ele>305.83667</ele>
        <time>2013-04-26T13:21:29Z</time>
      </trkpt>
      <trkpt lat="43.72954" lon="3.57731">
        <ele>306.317261</ele>
        <time>2013-04-26T13:21:42Z</time>
      </trkpt>
      <trkpt lat="43.72953" lon="3.57733">
        <ele>305.355957</ele>
        <time>2013-04-26T13:21:47Z</time>
      </trkpt>
      <trkpt lat="43.72952" lon="3.57737">
        <ele>305.355957</ele>
        <time>2013-04-26T13:21:50Z</time>
      </trkpt>
      <trkpt lat="43.72948" lon="3.57758">
        <ele>305.355957</ele>
        <time>2013-04-26T13:22:04Z</time>
      </trkpt>
      <trkpt lat="43.72952" lon="3.57783">
        <ele>304.394653</ele>
        <time>2013-04-26T13:22:21Z</time>
      </trkpt>
      <trkpt lat="43.72954" lon="3.57802">
        <ele>303.91394</ele>
        <time>2013-04-26T13:22:35Z</time>
      </trkpt>
      <trkpt lat="43.72959" lon="3.57831">
        <ele>304.875244</ele>
        <time>2013-04-26T13:22:54Z</time>
      </trkpt>
      <trkpt lat="43.72961" lon="3.57837">
        <ele>306.317261</ele>
        <time>2013-04-26T13:23:07Z</time>
      </trkpt>
      <trkpt lat="43.72943" lon="3.5786">
        <ele>303.91394</ele>
        <time>2013-04-26T13:23:33Z</time>
      </trkpt>
      <trkpt lat="43.7293" lon="3.5788">
        <ele>304.394653</ele>
        <time>2013-04-26T13:23:51Z</time>
      </trkpt>
      <trkpt lat="43.72916" lon="3.579">
        <ele>303.91394</ele>
        <time>2013-04-26T13:24:10Z</time>
      </trkpt>
      <trkpt lat="43.72903" lon="3.57925">
        <ele>302.471924</ele>
        <time>2013-04-26T13:24:30Z</time>
      </trkpt>
      <trkpt lat="43.72892" lon="3.57951">
        <ele>302.952515</ele>
        <time>2013-04-26T13:24:48Z</time>
      </trkpt>
      <trkpt lat="43.72887" lon="3.57981">
        <ele>301.991333</ele>
        <time>2013-04-26T13:25:09Z</time>
      </trkpt>
      <trkpt lat="43.72887" lon="3.57983">
        <ele>301.51062</ele>
        <time>2013-04-26T13:25:11Z</time>
      </trkpt>
      <trkpt lat="43.72884" lon="3.5799">
        <ele>301.029907</ele>
        <time>2013-04-26T13:25:16Z</time>
      </trkpt>
      <trkpt lat="43.72881" lon="3.58032">
        <ele>299.1073</ele>
        <time>2013-04-26T13:25:41Z</time>
      </trkpt>
      <trkpt lat="43.72872" lon="3.58069">
        <ele>297.665405</ele>
        <time>2013-04-26T13:26:04Z</time>
      </trkpt>
      <trkpt lat="43.72871" lon="3.58109">
        <ele>296.223511</ele>
        <time>2013-04-26T13:26:26Z</time>
      </trkpt>
      <trkpt lat="43.72872" lon="3.58157">
        <ele>294.781372</ele>
        <time>2013-04-26T13:26:53Z</time>
      </trkpt>
      <trkpt lat="43.72869" lon="3.58198">
        <ele>294.300781</ele>
        <time>2013-04-26T13:27:17Z</time>
      </trkpt>
      <trkpt lat="43.72873" lon="3.58234">
        <ele>294.300781</ele>
        <time>2013-04-26T13:27:38Z</time>
      </trkpt>
      <trkpt lat="43.72881" lon="3.58267">
        <ele>294.300781</ele>
        <time>2013-04-26T13:28:00Z</time>
      </trkpt>
      <trkpt lat="43.72877" lon="3.58281">
        <ele>294.781372</ele>
        <time>2013-04-26T13:28:17Z</time>
      </trkpt>
      <trkpt lat="43.72875" lon="3.58279">
        <ele>294.781372</ele>
        <time>2013-04-26T13:28:20Z</time>
      </trkpt>
      <trkpt lat="43.72857" lon="3.58264">
        <ele>294.300781</ele>
        <time>2013-04-26T13:28:40Z</time>
      </trkpt>
      <trkpt lat="43.72833" lon="3.58262">
        <ele>294.300781</ele>
        <time>2013-04-26T13:28:59Z</time>
      </trkpt>
      <trkpt lat="43.72811" lon="3.58259">
        <ele>294.300781</ele>
        <time>2013-04-26T13:29:17Z</time>
      </trkpt>
      <trkpt lat="43.72782" lon="3.58254">
        <ele>293.820068</ele>
        <time>2013-04-26T13:29:40Z</time>
      </trkpt>
      <trkpt lat="43.72751" lon="3.58246">
        <ele>292.378174</ele>
        <time>2013-04-26T13:30:04Z</time>
      </trkpt>
      <trkpt lat="43.7272" lon="3.58241">
        <ele>291.897461</ele>
        <time>2013-04-26T13:30:27Z</time>
      </trkpt>
      <trkpt lat="43.72683" lon="3.5823">
        <ele>290.936157</ele>
        <time>2013-04-26T13:30:55Z</time>
      </trkpt>
      <trkpt lat="43.7266" lon="3.58225">
        <ele>290.936157</ele>
        <time>2013-04-26T13:31:16Z</time>
      </trkpt>
      <trkpt lat="43.7264" lon="3.58244">
        <ele>292.858765</ele>
        <time>2013-04-26T13:31:37Z</time>
      </trkpt>
      <trkpt lat="43.72628" lon="3.58256">
        <ele>292.858765</ele>
        <time>2013-04-26T13:31:55Z</time>
      </trkpt>
      <trkpt lat="43.72631" lon="3.58262">
        <ele>292.858765</ele>
        <time>2013-04-26T13:32:07Z</time>
      </trkpt>
      <trkpt lat="43.7263" lon="3.58262">
        <ele>292.858765</ele>
        <time>2013-04-26T13:32:40Z</time>
      </trkpt>
      <trkpt lat="43.7261" lon="3.58254">
        <ele>293.339355</ele>
        <time>2013-04-26T13:32:51Z</time>
      </trkpt>
      <trkpt lat="43.72578" lon="3.58263">
        <ele>293.339355</ele>
        <time>2013-04-26T13:33:02Z</time>
      </trkpt>
      <trkpt lat="43.72574" lon="3.5827">
        <ele>293.339355</ele>
        <time>2013-04-26T13:33:07Z</time>
      </trkpt>
      <trkpt lat="43.72565" lon="3.58281">
        <ele>293.820068</ele>
        <time>2013-04-26T13:33:21Z</time>
      </trkpt>
      <trkpt lat="43.72562" lon="3.58282">
        <ele>294.300781</ele>
        <time>2013-04-26T13:33:33Z</time>
      </trkpt>
      <trkpt lat="43.72559" lon="3.58283">
        <ele>293.820068</ele>
        <time>2013-04-26T13:33:48Z</time>
      </trkpt>
      <trkpt lat="43.72557" lon="3.58284">
        <ele>293.820068</ele>
        <time>2013-04-26T13:34:21Z</time>
      </trkpt>
      <trkpt lat="43.72558" lon="3.58284">
        <ele>293.339355</ele>
        <time>2013-04-26T13:34:48Z</time>
      </trkpt>
      <trkpt lat="43.72558" lon="3.58285">
        <ele>293.339355</ele>
        <time>2013-04-26T13:35:27Z</time>
      </trkpt>
      <trkpt lat="43.72551" lon="3.58292">
        <ele>293.339355</ele>
        <time>2013-04-26T13:35:54Z</time>
      </trkpt>
      <trkpt lat="43.7254" lon="3.58297">
        <ele>293.820068</ele>
        <time>2013-04-26T13:36:08Z</time>
      </trkpt>
      <trkpt lat="43.72519" lon="3.58318">
        <ele>293.820068</ele>
        <time>2013-04-26T13:36:31Z</time>
      </trkpt>
      <trkpt lat="43.72502" lon="3.58347">
        <ele>295.261963</ele>
        <time>2013-04-26T13:36:55Z</time>
      </trkpt>
      <trkpt lat="43.72488" lon="3.58385">
        <ele>296.223511</ele>
        <time>2013-04-26T13:37:21Z</time>
      </trkpt>
      <trkpt lat="43.72482" lon="3.58399">
        <ele>297.665405</ele>
        <time>2013-04-26T13:37:31Z</time>
      </trkpt>
      <trkpt lat="43.72464" lon="3.58416">
        <ele>299.1073</ele>
        <time>2013-04-26T13:37:50Z</time>
      </trkpt>
      <trkpt lat="43.72442" lon="3.58435">
        <ele>299.1073</ele>
        <time>2013-04-26T13:38:12Z</time>
      </trkpt>
      <trkpt lat="43.7242" lon="3.58445">
        <ele>299.1073</ele>
        <time>2013-04-26T13:38:31Z</time>
      </trkpt>
      <trkpt lat="43.72392" lon="3.58464">
        <ele>298.626709</ele>
        <time>2013-04-26T13:38:56Z</time>
      </trkpt>
      <trkpt lat="43.72375" lon="3.58479">
        <ele>298.146118</ele>
        <time>2013-04-26T13:39:12Z</time>
      </trkpt>
      <trkpt lat="43.72355" lon="3.58496">
        <ele>297.665405</ele>
        <time>2013-04-26T13:39:32Z</time>
      </trkpt>
      <trkpt lat="43.72354" lon="3.585">
        <ele>297.184692</ele>
        <time>2013-04-26T13:39:35Z</time>
      </trkpt>
      <trkpt lat="43.72339" lon="3.58505">
        <ele>297.184692</ele>
        <time>2013-04-26T13:39:49Z</time>
      </trkpt>
      <trkpt lat="43.72318" lon="3.5852">
        <ele>295.742676</ele>
        <time>2013-04-26T13:40:08Z</time>
      </trkpt>
      <trkpt lat="43.72297" lon="3.58539">
        <ele>292.858765</ele>
        <time>2013-04-26T13:40:28Z</time>
      </trkpt>
      <trkpt lat="43.72294" lon="3.58565">
        <ele>292.378174</ele>
        <time>2013-04-26T13:40:44Z</time>
      </trkpt>
      <trkpt lat="43.72293" lon="3.58578">
        <ele>291.897461</ele>
        <time>2013-04-26T13:40:53Z</time>
      </trkpt>
      <trkpt lat="43.72279" lon="3.586">
        <ele>288.532959</ele>
        <time>2013-04-26T13:41:11Z</time>
      </trkpt>
      <trkpt lat="43.72257" lon="3.58619">
        <ele>285.168213</ele>
        <time>2013-04-26T13:41:32Z</time>
      </trkpt>
      <trkpt lat="43.72244" lon="3.58649">
        <ele>281.803589</ele>
        <time>2013-04-26T13:41:53Z</time>
      </trkpt>
      <trkpt lat="43.72239" lon="3.58662">
        <ele>280.361694</ele>
        <time>2013-04-26T13:42:03Z</time>
      </trkpt>
      <trkpt lat="43.72227" lon="3.58686">
        <ele>277.477661</ele>
        <time>2013-04-26T13:42:22Z</time>
      </trkpt>
      <trkpt lat="43.72224" lon="3.58703">
        <ele>275.074463</ele>
        <time>2013-04-26T13:42:37Z</time>
      </trkpt>
      <trkpt lat="43.72224" lon="3.58704">
        <ele>275.074463</ele>
        <time>2013-04-26T13:42:38Z</time>
      </trkpt>
      <trkpt lat="43.7222" lon="3.58718">
        <ele>274.113037</ele>
        <time>2013-04-26T13:42:47Z</time>
      </trkpt>
      <trkpt lat="43.7222" lon="3.58746">
        <ele>271.709717</ele>
        <time>2013-04-26T13:43:05Z</time>
      </trkpt>
      <trkpt lat="43.72216" lon="3.58767">
        <ele>270.2677</ele>
        <time>2013-04-26T13:43:19Z</time>
      </trkpt>
      <trkpt lat="43.7221" lon="3.58782">
        <ele>268.345093</ele>
        <time>2013-04-26T13:43:30Z</time>
      </trkpt>
      <trkpt lat="43.72204" lon="3.58815">
        <ele>264.980591</ele>
        <time>2013-04-26T13:43:52Z</time>
      </trkpt>
      <trkpt lat="43.72196" lon="3.58836">
        <ele>261.615967</ele>
        <time>2013-04-26T13:44:09Z</time>
      </trkpt>
      <trkpt lat="43.72187" lon="3.58858">
        <ele>257.770752</ele>
        <time>2013-04-26T13:44:27Z</time>
      </trkpt>
      <trkpt lat="43.7218" lon="3.58861">
        <ele>255.848022</ele>
        <time>2013-04-26T13:44:36Z</time>
      </trkpt>
      <trkpt lat="43.72175" lon="3.58864">
        <ele>252.963989</ele>
        <time>2013-04-26T13:44:42Z</time>
      </trkpt>
      <trkpt lat="43.72171" lon="3.58871">
        <ele>250.560791</ele>
        <time>2013-04-26T13:44:49Z</time>
      </trkpt>
      <trkpt lat="43.7217" lon="3.58873">
        <ele>249.599487</ele>
        <time>2013-04-26T13:44:51Z</time>
      </trkpt>
      <trkpt lat="43.72167" lon="3.5888">
        <ele>247.676758</ele>
        <time>2013-04-26T13:44:57Z</time>
      </trkpt>
      <trkpt lat="43.72159" lon="3.589">
        <ele>246.234863</ele>
        <time>2013-04-26T13:45:14Z</time>
      </trkpt>
      <trkpt lat="43.72152" lon="3.58921">
        <ele>243.831543</ele>
        <time>2013-04-26T13:45:32Z</time>
      </trkpt>
      <trkpt lat="43.7215" lon="3.58925">
        <ele>242.389648</ele>
        <time>2013-04-26T13:45:36Z</time>
      </trkpt>
      <trkpt lat="43.72149" lon="3.58933">
        <ele>239.986206</ele>
        <time>2013-04-26T13:45:41Z</time>
      </trkpt>
      <trkpt lat="43.72149" lon="3.58934">
        <ele>240.947632</ele>
        <time>2013-04-26T13:45:42Z</time>
      </trkpt>
      <trkpt lat="43.72142" lon="3.58948">
        <ele>238.544312</ele>
        <time>2013-04-26T13:45:55Z</time>
      </trkpt>
      <trkpt lat="43.7214" lon="3.58952">
        <ele>238.063599</ele>
        <time>2013-04-26T13:45:59Z</time>
      </trkpt>
      <trkpt lat="43.72136" lon="3.58961">
        <ele>234.699097</ele>
        <time>2013-04-26T13:46:09Z</time>
      </trkpt>
      <trkpt lat="43.72135" lon="3.58963">
        <ele>234.699097</ele>
        <time>2013-04-26T13:46:11Z</time>
      </trkpt>
      <trkpt lat="43.7213" lon="3.58971">
        <ele>232.295776</ele>
        <time>2013-04-26T13:46:18Z</time>
      </trkpt>
      <trkpt lat="43.72122" lon="3.58982">
        <ele>228.931152</ele>
        <time>2013-04-26T13:46:31Z</time>
      </trkpt>
      <trkpt lat="43.72111" lon="3.58992">
        <ele>226.047119</ele>
        <time>2013-04-26T13:46:45Z</time>
      </trkpt>
      <trkpt lat="43.72106" lon="3.58997">
        <ele>224.605225</ele>
        <time>2013-04-26T13:46:53Z</time>
      </trkpt>
      <trkpt lat="43.72092" lon="3.59008">
        <ele>221.240601</ele>
        <time>2013-04-26T13:47:08Z</time>
      </trkpt>
      <trkpt lat="43.72076" lon="3.59025">
        <ele>219.317993</ele>
        <time>2013-04-26T13:47:27Z</time>
      </trkpt>
      <trkpt lat="43.72066" lon="3.59038">
        <ele>216.914673</ele>
        <time>2013-04-26T13:47:44Z</time>
      </trkpt>
      <trkpt lat="43.72052" lon="3.59056">
        <ele>214.991943</ele>
        <time>2013-04-26T13:48:02Z</time>
      </trkpt>
      <trkpt lat="43.72034" lon="3.59074">
        <ele>213.069336</ele>
        <time>2013-04-26T13:48:23Z</time>
      </trkpt>
      <trkpt lat="43.72019" lon="3.59091">
        <ele>211.146729</ele>
        <time>2013-04-26T13:48:42Z</time>
      </trkpt>
      <trkpt lat="43.72" lon="3.59106">
        <ele>208.743408</ele>
        <time>2013-04-26T13:49:00Z</time>
      </trkpt>
      <trkpt lat="43.71979" lon="3.59125">
        <ele>206.820679</ele>
        <time>2013-04-26T13:49:22Z</time>
      </trkpt>
      <trkpt lat="43.71955" lon="3.59142">
        <ele>206.340088</ele>
        <time>2013-04-26T13:49:44Z</time>
      </trkpt>
      <trkpt lat="43.71936" lon="3.59159">
        <ele>203.456177</ele>
        <time>2013-04-26T13:50:03Z</time>
      </trkpt>
      <trkpt lat="43.71935" lon="3.5916">
        <ele>203.456177</ele>
        <time>2013-04-26T13:50:04Z</time>
      </trkpt>
      <trkpt lat="43.71913" lon="3.59177">
        <ele>201.533569</ele>
        <time>2013-04-26T13:50:25Z</time>
      </trkpt>
      <trkpt lat="43.719" lon="3.59186">
        <ele>200.572266</ele>
        <time>2013-04-26T13:50:39Z</time>
      </trkpt>
      <trkpt lat="43.71895" lon="3.59192">
        <ele>200.091675</ele>
        <time>2013-04-26T13:50:45Z</time>
      </trkpt>
      <trkpt lat="43.71872" lon="3.59204">
        <ele>199.61084</ele>
        <time>2013-04-26T13:51:05Z</time>
      </trkpt>
      <trkpt lat="43.71849" lon="3.59225">
        <ele>198.168945</ele>
        <time>2013-04-26T13:51:28Z</time>
      </trkpt>
      <trkpt lat="43.71837" lon="3.59238">
        <ele>197.20752</ele>
        <time>2013-04-26T13:51:41Z</time>
      </trkpt>
      <trkpt lat="43.71823" lon="3.59251">
        <ele>194.804321</ele>
        <time>2013-04-26T13:51:58Z</time>
      </trkpt>
      <trkpt lat="43.71806" lon="3.59264">
        <ele>191.439575</ele>
        <time>2013-04-26T13:52:15Z</time>
      </trkpt>
      <trkpt lat="43.71785" lon="3.5927">
        <ele>188.555786</ele>
        <time>2013-04-26T13:52:34Z</time>
      </trkpt>
      <trkpt lat="43.71768" lon="3.59277">
        <ele>185.671753</ele>
        <time>2013-04-26T13:52:48Z</time>
      </trkpt>
      <trkpt lat="43.71747" lon="3.59276">
        <ele>182.307129</ele>
        <time>2013-04-26T13:53:06Z</time>
      </trkpt>
      <trkpt lat="43.71723" lon="3.59279">
        <ele>180.384521</ele>
        <time>2013-04-26T13:53:26Z</time>
      </trkpt>
      <trkpt lat="43.7171" lon="3.59276">
        <ele>177.50061</ele>
        <time>2013-04-26T13:53:37Z</time>
      </trkpt>
      <trkpt lat="43.71687" lon="3.59272">
        <ele>176.539307</ele>
        <time>2013-04-26T13:53:55Z</time>
      </trkpt>
      <trkpt lat="43.71663" lon="3.59275">
        <ele>174.616577</ele>
        <time>2013-04-26T13:54:13Z</time>
      </trkpt>
      <trkpt lat="43.71636" lon="3.59279">
        <ele>173.655273</ele>
        <time>2013-04-26T13:54:35Z</time>
      </trkpt>
      <trkpt lat="43.71616" lon="3.59283">
        <ele>171.732666</ele>
        <time>2013-04-26T13:54:54Z</time>
      </trkpt>
      <trkpt lat="43.71608" lon="3.59284">
        <ele>170.771362</ele>
        <time>2013-04-26T13:55:08Z</time>
      </trkpt>
      <trkpt lat="43.71594" lon="3.59285">
        <ele>169.329468</ele>
        <time>2013-04-26T13:55:22Z</time>
      </trkpt>
      <trkpt lat="43.71575" lon="3.5929">
        <ele>166.445312</ele>
        <time>2013-04-26T13:55:39Z</time>
      </trkpt>
      <trkpt lat="43.71567" lon="3.5929">
        <ele>165.003418</ele>
        <time>2013-04-26T13:55:46Z</time>
      </trkpt>
      <trkpt lat="43.71551" lon="3.59275">
        <ele>162.600098</ele>
        <time>2013-04-26T13:56:04Z</time>
      </trkpt>
      <trkpt lat="43.71531" lon="3.5926">
        <ele>160.67749</ele>
        <time>2013-04-26T13:56:23Z</time>
      </trkpt>
      <trkpt lat="43.71515" lon="3.59265">
        <ele>158.27417</ele>
        <time>2013-04-26T13:56:39Z</time>
      </trkpt>
      <trkpt lat="43.7149" lon="3.59249">
        <ele>155.870972</ele>
        <time>2013-04-26T13:57:03Z</time>
      </trkpt>
      <trkpt lat="43.71467" lon="3.5923">
        <ele>153.467651</ele>
        <time>2013-04-26T13:57:25Z</time>
      </trkpt>
      <trkpt lat="43.71464" lon="3.59229">
        <ele>154.428955</ele>
        <time>2013-04-26T13:57:27Z</time>
      </trkpt>
      <trkpt lat="43.71449" lon="3.59238">
        <ele>153.467651</ele>
        <time>2013-04-26T13:57:41Z</time>
      </trkpt>
      <trkpt lat="43.7145" lon="3.5925">
        <ele>154.909546</ele>
        <time>2013-04-26T13:57:57Z</time>
      </trkpt>
      <trkpt lat="43.71451" lon="3.59252">
        <ele>154.909546</ele>
        <time>2013-04-26T13:58:18Z</time>
      </trkpt>
      <trkpt lat="43.71451" lon="3.59253">
        <ele>154.909546</ele>
        <time>2013-04-26T13:58:21Z</time>
      </trkpt>
      <trkpt lat="43.71451" lon="3.59262">
        <ele>155.390259</ele>
        <time>2013-04-26T13:58:37Z</time>
      </trkpt>
      <trkpt lat="43.71449" lon="3.59267">
        <ele>155.390259</ele>
        <time>2013-04-26T13:58:52Z</time>
      </trkpt>
      <trkpt lat="43.71449" lon="3.59266">
        <ele>154.909546</ele>
        <time>2013-04-26T13:59:09Z</time>
      </trkpt>
      <trkpt lat="43.71448" lon="3.59262">
        <ele>154.909546</ele>
        <time>2013-04-26T13:59:44Z</time>
      </trkpt>
      <trkpt lat="43.71444" lon="3.59258">
        <ele>155.390259</ele>
        <time>2013-04-26T14:00:12Z</time>
      </trkpt>
      <trkpt lat="43.71444" lon="3.59261">
        <ele>154.428955</ele>
        <time>2013-04-26T14:00:46Z</time>
      </trkpt>
      <trkpt lat="43.71445" lon="3.59271">
        <ele>154.909546</ele>
        <time>2013-04-26T14:01:22Z</time>
      </trkpt>
      <trkpt lat="43.71442" lon="3.59279">
        <ele>153.948364</ele>
        <time>2013-04-26T14:01:34Z</time>
      </trkpt>
      <trkpt lat="43.71449" lon="3.59281">
        <ele>154.909546</ele>
        <time>2013-04-26T14:01:45Z</time>
      </trkpt>
      <trkpt lat="43.71456" lon="3.59286">
        <ele>155.390259</ele>
        <time>2013-04-26T14:01:54Z</time>
      </trkpt>
      <trkpt lat="43.71457" lon="3.59284">
        <ele>155.870972</ele>
        <time>2013-04-26T14:02:07Z</time>
      </trkpt>
      <trkpt lat="43.71445" lon="3.59283">
        <ele>153.948364</ele>
        <time>2013-04-26T14:02:23Z</time>
      </trkpt>
      <trkpt lat="43.71441" lon="3.59288">
        <ele>152.506348</ele>
        <time>2013-04-26T14:02:30Z</time>
      </trkpt>
      <trkpt lat="43.71438" lon="3.59298">
        <ele>151.544922</ele>
        <time>2013-04-26T14:02:43Z</time>
      </trkpt>
      <trkpt lat="43.71437" lon="3.59302">
        <ele>151.544922</ele>
        <time>2013-04-26T14:02:58Z</time>
      </trkpt>
      <trkpt lat="43.71435" lon="3.59305">
        <ele>152.506348</ele>
        <time>2013-04-26T14:05:07Z</time>
      </trkpt>
      <trkpt lat="43.71435" lon="3.59305">
        <ele>149.141602</ele>
        <time>2013-04-26T14:06:07Z</time>
      </trkpt>
      <trkpt lat="43.71435" lon="3.59305">
        <ele>152.986938</ele>
        <time>2013-04-26T14:06:08Z</time>
      </trkpt>
      <trkpt lat="43.71437" lon="3.59305">
        <ele>152.025757</ele>
        <time>2013-04-26T14:07:16Z</time>
      </trkpt>
      <trkpt lat="43.71435" lon="3.59303">
        <ele>151.544922</ele>
        <time>2013-04-26T14:09:04Z</time>
      </trkpt>
      <trkpt lat="43.71438" lon="3.59305">
        <ele>151.544922</ele>
        <time>2013-04-26T14:10:05Z</time>
      </trkpt>
      <trkpt lat="43.71439" lon="3.59304">
        <ele>151.064209</ele>
        <time>2013-04-26T14:10:57Z</time>
      </trkpt>
      <trkpt lat="43.71436" lon="3.59301">
        <ele>152.506348</ele>
        <time>2013-04-26T14:11:57Z</time>
      </trkpt>
      <trkpt lat="43.71442" lon="3.59299">
        <ele>152.506348</ele>
        <time>2013-04-26T14:12:39Z</time>
      </trkpt>
      <trkpt lat="43.7144" lon="3.59301">
        <ele>152.986938</ele>
        <time>2013-04-26T14:13:24Z</time>
      </trkpt>
      <trkpt lat="43.71439" lon="3.59304">
        <ele>151.544922</ele>
        <time>2013-04-26T14:14:10Z</time>
      </trkpt>
      <trkpt lat="43.71438" lon="3.59305">
        <ele>152.506348</ele>
        <time>2013-04-26T14:14:39Z</time>
      </trkpt>
      <trkpt lat="43.71437" lon="3.59298">
        <ele>151.544922</ele>
        <time>2013-04-26T14:14:53Z</time>
      </trkpt>
      <trkpt lat="43.71429" lon="3.59294">
        <ele>151.064209</ele>
        <time>2013-04-26T14:15:07Z</time>
      </trkpt>
      <trkpt lat="43.71427" lon="3.59294">
        <ele>150.103027</ele>
        <time>2013-04-26T14:15:09Z</time>
      </trkpt>
      <trkpt lat="43.7142" lon="3.59292">
        <ele>150.103027</ele>
        <time>2013-04-26T14:15:24Z</time>
      </trkpt>
      <trkpt lat="43.71418" lon="3.593">
        <ele>149.141602</ele>
        <time>2013-04-26T14:15:46Z</time>
      </trkpt>
      <trkpt lat="43.71418" lon="3.59309">
        <ele>147.699707</ele>
        <time>2013-04-26T14:15:54Z</time>
      </trkpt>
      <trkpt lat="43.71417" lon="3.59317">
        <ele>147.699707</ele>
        <time>2013-04-26T14:16:00Z</time>
      </trkpt>
      <trkpt lat="43.71416" lon="3.59324">
        <ele>146.257812</ele>
        <time>2013-04-26T14:16:05Z</time>
      </trkpt>
      <trkpt lat="43.71412" lon="3.59342">
        <ele>143.85437</ele>
        <time>2013-04-26T14:16:19Z</time>
      </trkpt>
      <trkpt lat="43.71412" lon="3.59346">
        <ele>143.373657</ele>
        <time>2013-04-26T14:16:23Z</time>
      </trkpt>
      <trkpt lat="43.71412" lon="3.59348">
        <ele>143.85437</ele>
        <time>2013-04-26T14:16:24Z</time>
      </trkpt>
      <trkpt lat="43.71414" lon="3.59354">
        <ele>142.412476</ele>
        <time>2013-04-26T14:16:30Z</time>
      </trkpt>
      <trkpt lat="43.7142" lon="3.5937">
        <ele>140.489868</ele>
        <time>2013-04-26T14:16:46Z</time>
      </trkpt>
      <trkpt lat="43.71429" lon="3.59384">
        <ele>139.047852</ele>
        <time>2013-04-26T14:16:58Z</time>
      </trkpt>
      <trkpt lat="43.71438" lon="3.59401">
        <ele>135.683105</ele>
        <time>2013-04-26T14:17:11Z</time>
      </trkpt>
      <trkpt lat="43.71452" lon="3.59431">
        <ele>132.318604</ele>
        <time>2013-04-26T14:17:32Z</time>
      </trkpt>
      <trkpt lat="43.7146" lon="3.59452">
        <ele>128.954102</ele>
        <time>2013-04-26T14:17:48Z</time>
      </trkpt>
      <trkpt lat="43.71467" lon="3.5947">
        <ele>128.473389</ele>
        <time>2013-04-26T14:18:01Z</time>
      </trkpt>
      <trkpt lat="43.7147" lon="3.59488">
        <ele>128.473389</ele>
        <time>2013-04-26T14:18:14Z</time>
      </trkpt>
      <trkpt lat="43.71464" lon="3.59521">
        <ele>128.473389</ele>
        <time>2013-04-26T14:18:34Z</time>
      </trkpt>
      <trkpt lat="43.71456" lon="3.59554">
        <ele>131.3573</ele>
        <time>2013-04-26T14:18:56Z</time>
      </trkpt>
      <trkpt lat="43.71456" lon="3.59581">
        <ele>133.760498</ele>
        <time>2013-04-26T14:19:14Z</time>
      </trkpt>
      <trkpt lat="43.71452" lon="3.59614">
        <ele>136.16394</ele>
        <time>2013-04-26T14:19:38Z</time>
      </trkpt>
      <trkpt lat="43.71451" lon="3.5964">
        <ele>138.567261</ele>
        <time>2013-04-26T14:19:56Z</time>
      </trkpt>
      <trkpt lat="43.7145" lon="3.59663">
        <ele>142.412476</ele>
        <time>2013-04-26T14:20:12Z</time>
      </trkpt>
      <trkpt lat="43.71448" lon="3.59691">
        <ele>142.412476</ele>
        <time>2013-04-26T14:20:31Z</time>
      </trkpt>
      <trkpt lat="43.71448" lon="3.5972">
        <ele>144.815796</ele>
        <time>2013-04-26T14:20:51Z</time>
      </trkpt>
      <trkpt lat="43.71444" lon="3.5975">
        <ele>145.296387</ele>
        <time>2013-04-26T14:21:10Z</time>
      </trkpt>
      <trkpt lat="43.7144" lon="3.59779">
        <ele>147.218994</ele>
        <time>2013-04-26T14:21:29Z</time>
      </trkpt>
      <trkpt lat="43.71435" lon="3.5981">
        <ele>149.622314</ele>
        <time>2013-04-26T14:21:51Z</time>
      </trkpt>
      <trkpt lat="43.71431" lon="3.59835">
        <ele>151.064209</ele>
        <time>2013-04-26T14:22:09Z</time>
      </trkpt>
      <trkpt lat="43.71432" lon="3.59864">
        <ele>153.467651</ele>
        <time>2013-04-26T14:22:28Z</time>
      </trkpt>
      <trkpt lat="43.71432" lon="3.59868">
        <ele>152.506348</ele>
        <time>2013-04-26T14:22:31Z</time>
      </trkpt>
      <trkpt lat="43.7143" lon="3.5989">
        <ele>153.467651</ele>
        <time>2013-04-26T14:22:47Z</time>
      </trkpt>
      <trkpt lat="43.71429" lon="3.59897">
        <ele>154.428955</ele>
        <time>2013-04-26T14:22:51Z</time>
      </trkpt>
      <trkpt lat="43.71418" lon="3.59927">
        <ele>156.351562</ele>
        <time>2013-04-26T14:23:12Z</time>
      </trkpt>
      <trkpt lat="43.71415" lon="3.59932">
        <ele>156.351562</ele>
        <time>2013-04-26T14:23:16Z</time>
      </trkpt>
      <trkpt lat="43.71415" lon="3.59938">
        <ele>156.832153</ele>
        <time>2013-04-26T14:23:20Z</time>
      </trkpt>
      <trkpt lat="43.71417" lon="3.59943">
        <ele>157.793579</ele>
        <time>2013-04-26T14:23:24Z</time>
      </trkpt>
      <trkpt lat="43.71431" lon="3.59962">
        <ele>160.196899</ele>
        <time>2013-04-26T14:23:42Z</time>
      </trkpt>
      <trkpt lat="43.71433" lon="3.59966">
        <ele>160.67749</ele>
        <time>2013-04-26T14:23:45Z</time>
      </trkpt>
      <trkpt lat="43.71433" lon="3.5997">
        <ele>161.158203</ele>
        <time>2013-04-26T14:23:48Z</time>
      </trkpt>
      <trkpt lat="43.71426" lon="3.59985">
        <ele>162.600098</ele>
        <time>2013-04-26T14:24:00Z</time>
      </trkpt>
      <trkpt lat="43.71413" lon="3.60001">
        <ele>165.964722</ele>
        <time>2013-04-26T14:24:17Z</time>
      </trkpt>
      <trkpt lat="43.71409" lon="3.60012">
        <ele>167.406738</ele>
        <time>2013-04-26T14:24:27Z</time>
      </trkpt>
      <trkpt lat="43.71419" lon="3.60023">
        <ele>168.368042</ele>
        <time>2013-04-26T14:24:42Z</time>
      </trkpt>
      <trkpt lat="43.71434" lon="3.60034">
        <ele>171.252075</ele>
        <time>2013-04-26T14:24:58Z</time>
      </trkpt>
      <trkpt lat="43.71435" lon="3.60036">
        <ele>171.252075</ele>
        <time>2013-04-26T14:25:00Z</time>
      </trkpt>
      <trkpt lat="43.71435" lon="3.6005">
        <ele>172.69397</ele>
        <time>2013-04-26T14:25:10Z</time>
      </trkpt>
      <trkpt lat="43.71418" lon="3.60073">
        <ele>175.577881</ele>
        <time>2013-04-26T14:25:31Z</time>
      </trkpt>
      <trkpt lat="43.71417" lon="3.60074">
        <ele>176.058594</ele>
        <time>2013-04-26T14:25:32Z</time>
      </trkpt>
      <trkpt lat="43.71403" lon="3.60093">
        <ele>178.942627</ele>
        <time>2013-04-26T14:25:48Z</time>
      </trkpt>
      <trkpt lat="43.71402" lon="3.60098">
        <ele>180.384521</ele>
        <time>2013-04-26T14:25:51Z</time>
      </trkpt>
      <trkpt lat="43.71406" lon="3.60105">
        <ele>180.865234</ele>
        <time>2013-04-26T14:25:57Z</time>
      </trkpt>
      <trkpt lat="43.71408" lon="3.60107">
        <ele>181.345825</ele>
        <time>2013-04-26T14:25:59Z</time>
      </trkpt>
      <trkpt lat="43.71412" lon="3.60113">
        <ele>182.787842</ele>
        <time>2013-04-26T14:26:03Z</time>
      </trkpt>
      <trkpt lat="43.71426" lon="3.60135">
        <ele>185.671753</ele>
        <time>2013-04-26T14:26:19Z</time>
      </trkpt>
      <trkpt lat="43.71434" lon="3.60148">
        <ele>187.11377</ele>
        <time>2013-04-26T14:26:28Z</time>
      </trkpt>
      <trkpt lat="43.71443" lon="3.60171">
        <ele>187.59436</ele>
        <time>2013-04-26T14:26:44Z</time>
      </trkpt>
      <trkpt lat="43.71444" lon="3.60179">
        <ele>186.633179</ele>
        <time>2013-04-26T14:27:01Z</time>
      </trkpt>
      <trkpt lat="43.71445" lon="3.60181">
        <ele>187.59436</ele>
        <time>2013-04-26T14:27:14Z</time>
      </trkpt>
      <trkpt lat="43.71467" lon="3.60191">
        <ele>188.075073</ele>
        <time>2013-04-26T14:27:32Z</time>
      </trkpt>
      <trkpt lat="43.71486" lon="3.60207">
        <ele>191.439575</ele>
        <time>2013-04-26T14:27:49Z</time>
      </trkpt>
      <trkpt lat="43.71487" lon="3.60208">
        <ele>190.958984</ele>
        <time>2013-04-26T14:27:50Z</time>
      </trkpt>
      <trkpt lat="43.71497" lon="3.60217">
        <ele>191.439575</ele>
        <time>2013-04-26T14:28:00Z</time>
      </trkpt>
      <trkpt lat="43.71512" lon="3.6023">
        <ele>193.843018</ele>
        <time>2013-04-26T14:28:15Z</time>
      </trkpt>
      <trkpt lat="43.71533" lon="3.60236">
        <ele>194.804321</ele>
        <time>2013-04-26T14:28:34Z</time>
      </trkpt>
      <trkpt lat="43.71551" lon="3.60238">
        <ele>195.284912</ele>
        <time>2013-04-26T14:28:49Z</time>
      </trkpt>
      <trkpt lat="43.71568" lon="3.60239">
        <ele>197.20752</ele>
        <time>2013-04-26T14:29:04Z</time>
      </trkpt>
      <trkpt lat="43.71591" lon="3.60238">
        <ele>198.649536</ele>
        <time>2013-04-26T14:29:24Z</time>
      </trkpt>
      <trkpt lat="43.71605" lon="3.60236">
        <ele>198.649536</ele>
        <time>2013-04-26T14:29:35Z</time>
      </trkpt>
      <trkpt lat="43.71628" lon="3.60232">
        <ele>201.052856</ele>
        <time>2013-04-26T14:29:53Z</time>
      </trkpt>
      <trkpt lat="43.71647" lon="3.60226">
        <ele>202.494873</ele>
        <time>2013-04-26T14:30:10Z</time>
      </trkpt>
      <trkpt lat="43.7167" lon="3.60218">
        <ele>204.898071</ele>
        <time>2013-04-26T14:30:30Z</time>
      </trkpt>
      <trkpt lat="43.71693" lon="3.60212">
        <ele>205.859497</ele>
        <time>2013-04-26T14:30:49Z</time>
      </trkpt>
      <trkpt lat="43.71702" lon="3.6021">
        <ele>207.301392</ele>
        <time>2013-04-26T14:30:57Z</time>
      </trkpt>
      <trkpt lat="43.71714" lon="3.60208">
        <ele>207.782104</ele>
        <time>2013-04-26T14:31:07Z</time>
      </trkpt>
      <trkpt lat="43.71734" lon="3.60215">
        <ele>209.224121</ele>
        <time>2013-04-26T14:31:25Z</time>
      </trkpt>
      <trkpt lat="43.71755" lon="3.6021">
        <ele>210.666016</ele>
        <time>2013-04-26T14:31:44Z</time>
      </trkpt>
      <trkpt lat="43.71776" lon="3.60185">
        <ele>211.146729</ele>
        <time>2013-04-26T14:32:06Z</time>
      </trkpt>
      <trkpt lat="43.71778" lon="3.60185">
        <ele>212.108032</ele>
        <time>2013-04-26T14:32:08Z</time>
      </trkpt>
      <trkpt lat="43.71801" lon="3.60181">
        <ele>210.185425</ele>
        <time>2013-04-26T14:32:29Z</time>
      </trkpt>
      <trkpt lat="43.71831" lon="3.60158">
        <ele>210.185425</ele>
        <time>2013-04-26T14:32:55Z</time>
      </trkpt>
      <trkpt lat="43.71862" lon="3.60143">
        <ele>210.666016</ele>
        <time>2013-04-26T14:33:20Z</time>
      </trkpt>
      <trkpt lat="43.71881" lon="3.60134">
        <ele>211.146729</ele>
        <time>2013-04-26T14:33:35Z</time>
      </trkpt>
      <trkpt lat="43.71911" lon="3.6012">
        <ele>209.224121</ele>
        <time>2013-04-26T14:34:01Z</time>
      </trkpt>
      <trkpt lat="43.71925" lon="3.60117">
        <ele>207.782104</ele>
        <time>2013-04-26T14:34:13Z</time>
      </trkpt>
      <trkpt lat="43.7195" lon="3.60121">
        <ele>207.301392</ele>
        <time>2013-04-26T14:34:34Z</time>
      </trkpt>
      <trkpt lat="43.71979" lon="3.60126">
        <ele>207.301392</ele>
        <time>2013-04-26T14:34:57Z</time>
      </trkpt>
      <trkpt lat="43.72" lon="3.60122">
        <ele>207.782104</ele>
        <time>2013-04-26T14:35:15Z</time>
      </trkpt>
      <trkpt lat="43.72023" lon="3.60122">
        <ele>210.666016</ele>
        <time>2013-04-26T14:35:33Z</time>
      </trkpt>
      <trkpt lat="43.7203" lon="3.60123">
        <ele>211.627441</ele>
        <time>2013-04-26T14:35:38Z</time>
      </trkpt>
      <trkpt lat="43.72057" lon="3.60135">
        <ele>211.627441</ele>
        <time>2013-04-26T14:36:00Z</time>
      </trkpt>
      <trkpt lat="43.7206" lon="3.60137">
        <ele>213.069336</ele>
        <time>2013-04-26T14:36:03Z</time>
      </trkpt>
      <trkpt lat="43.72073" lon="3.60149">
        <ele>215.472656</ele>
        <time>2013-04-26T14:36:16Z</time>
      </trkpt>
      <trkpt lat="43.72088" lon="3.60161">
        <ele>217.395386</ele>
        <time>2013-04-26T14:36:30Z</time>
      </trkpt>
      <trkpt lat="43.72091" lon="3.60163">
        <ele>215.472656</ele>
        <time>2013-04-26T14:36:33Z</time>
      </trkpt>
      <trkpt lat="43.72109" lon="3.60175">
        <ele>218.83728</ele>
        <time>2013-04-26T14:36:50Z</time>
      </trkpt>
      <trkpt lat="43.7211" lon="3.60177">
        <ele>218.83728</ele>
        <time>2013-04-26T14:36:51Z</time>
      </trkpt>
      <trkpt lat="43.72118" lon="3.60185">
        <ele>217.875977</ele>
        <time>2013-04-26T14:37:07Z</time>
      </trkpt>
      <trkpt lat="43.72136" lon="3.60189">
        <ele>219.317993</ele>
        <time>2013-04-26T14:37:23Z</time>
      </trkpt>
      <trkpt lat="43.72166" lon="3.60195">
        <ele>219.317993</ele>
        <time>2013-04-26T14:37:48Z</time>
      </trkpt>
      <trkpt lat="43.72186" lon="3.60195">
        <ele>219.798584</ele>
        <time>2013-04-26T14:38:06Z</time>
      </trkpt>
      <trkpt lat="43.72208" lon="3.60199">
        <ele>220.759888</ele>
        <time>2013-04-26T14:38:23Z</time>
      </trkpt>
      <trkpt lat="43.72223" lon="3.60191">
        <ele>221.721191</ele>
        <time>2013-04-26T14:38:39Z</time>
      </trkpt>
      <trkpt lat="43.72225" lon="3.60162">
        <ele>224.124512</ele>
        <time>2013-04-26T14:38:57Z</time>
      </trkpt>
      <trkpt lat="43.72228" lon="3.60151">
        <ele>224.605225</ele>
        <time>2013-04-26T14:39:09Z</time>
      </trkpt>
      <trkpt lat="43.72229" lon="3.60151">
        <ele>225.085938</ele>
        <time>2013-04-26T14:39:10Z</time>
      </trkpt>
      <trkpt lat="43.72231" lon="3.6015">
        <ele>227.969727</ele>
        <time>2013-04-26T14:39:12Z</time>
      </trkpt>
      <trkpt lat="43.72233" lon="3.6015">
        <ele>224.605225</ele>
        <time>2013-04-26T14:39:14Z</time>
      </trkpt>
      <trkpt lat="43.72235" lon="3.6015">
        <ele>226.527832</ele>
        <time>2013-04-26T14:39:16Z</time>
      </trkpt>
      <trkpt lat="43.72244" lon="3.60152">
        <ele>227.489136</ele>
        <time>2013-04-26T14:39:26Z</time>
      </trkpt>
      <trkpt lat="43.72257" lon="3.60156">
        <ele>231.814941</ele>
        <time>2013-04-26T14:39:38Z</time>
      </trkpt>
      <trkpt lat="43.7228" lon="3.60154">
        <ele>231.814941</ele>
        <time>2013-04-26T14:39:59Z</time>
      </trkpt>
      <trkpt lat="43.72282" lon="3.60153">
        <ele>232.776489</ele>
        <time>2013-04-26T14:40:01Z</time>
      </trkpt>
      <trkpt lat="43.72306" lon="3.60154">
        <ele>233.25708</ele>
        <time>2013-04-26T14:40:20Z</time>
      </trkpt>
      <trkpt lat="43.72326" lon="3.60158">
        <ele>235.179688</ele>
        <time>2013-04-26T14:40:38Z</time>
      </trkpt>
      <trkpt lat="43.72345" lon="3.60155">
        <ele>237.102295</ele>
        <time>2013-04-26T14:40:56Z</time>
      </trkpt>
      <trkpt lat="43.72346" lon="3.60155">
        <ele>237.582886</ele>
        <time>2013-04-26T14:40:57Z</time>
      </trkpt>
      <trkpt lat="43.72351" lon="3.60152">
        <ele>237.102295</ele>
        <time>2013-04-26T14:41:02Z</time>
      </trkpt>
      <trkpt lat="43.72369" lon="3.60148">
        <ele>238.063599</ele>
        <time>2013-04-26T14:41:18Z</time>
      </trkpt>
      <trkpt lat="43.72374" lon="3.60149">
        <ele>239.024902</ele>
        <time>2013-04-26T14:41:23Z</time>
      </trkpt>
      <trkpt lat="43.72391" lon="3.60163">
        <ele>239.986206</ele>
        <time>2013-04-26T14:41:39Z</time>
      </trkpt>
      <trkpt lat="43.72414" lon="3.60165">
        <ele>239.986206</ele>
        <time>2013-04-26T14:41:58Z</time>
      </trkpt>
      <trkpt lat="43.72436" lon="3.6016">
        <ele>240.467041</ele>
        <time>2013-04-26T14:42:16Z</time>
      </trkpt>
      <trkpt lat="43.72452" lon="3.60143">
        <ele>239.986206</ele>
        <time>2013-04-26T14:42:34Z</time>
      </trkpt>
      <trkpt lat="43.72465" lon="3.60119">
        <ele>239.986206</ele>
        <time>2013-04-26T14:42:52Z</time>
      </trkpt>
      <trkpt lat="43.72485" lon="3.60096">
        <ele>241.908936</ele>
        <time>2013-04-26T14:43:13Z</time>
      </trkpt>
      <trkpt lat="43.725" lon="3.60074">
        <ele>241.428223</ele>
        <time>2013-04-26T14:43:31Z</time>
      </trkpt>
      <trkpt lat="43.7252" lon="3.60044">
        <ele>241.908936</ele>
        <time>2013-04-26T14:43:54Z</time>
      </trkpt>
      <trkpt lat="43.72537" lon="3.60023">
        <ele>240.947632</ele>
        <time>2013-04-26T14:44:11Z</time>
      </trkpt>
      <trkpt lat="43.72561" lon="3.59997">
        <ele>240.467041</ele>
        <time>2013-04-26T14:44:35Z</time>
      </trkpt>
      <trkpt lat="43.72582" lon="3.59987">
        <ele>240.947632</ele>
        <time>2013-04-26T14:44:54Z</time>
      </trkpt>
      <trkpt lat="43.72603" lon="3.60008">
        <ele>239.986206</ele>
        <time>2013-04-26T14:45:14Z</time>
      </trkpt>
      <trkpt lat="43.72614" lon="3.60032">
        <ele>239.024902</ele>
        <time>2013-04-26T14:45:31Z</time>
      </trkpt>
      <trkpt lat="43.72614" lon="3.60034">
        <ele>239.024902</ele>
        <time>2013-04-26T14:45:32Z</time>
      </trkpt>
      <trkpt lat="43.7262" lon="3.60062">
        <ele>238.063599</ele>
        <time>2013-04-26T14:45:48Z</time>
      </trkpt>
      <trkpt lat="43.72639" lon="3.60071">
        <ele>236.140991</ele>
        <time>2013-04-26T14:46:04Z</time>
      </trkpt>
      <trkpt lat="43.72661" lon="3.60073">
        <ele>235.179688</ele>
        <time>2013-04-26T14:46:21Z</time>
      </trkpt>
      <trkpt lat="43.72681" lon="3.60072">
        <ele>234.218384</ele>
        <time>2013-04-26T14:46:37Z</time>
      </trkpt>
      <trkpt lat="43.72701" lon="3.60075">
        <ele>232.295776</ele>
        <time>2013-04-26T14:46:52Z</time>
      </trkpt>
      <trkpt lat="43.72732" lon="3.60083">
        <ele>230.85376</ele>
        <time>2013-04-26T14:47:16Z</time>
      </trkpt>
      <trkpt lat="43.72747" lon="3.60087">
        <ele>230.373047</ele>
        <time>2013-04-26T14:47:33Z</time>
      </trkpt>
      <trkpt lat="43.72747" lon="3.60087">
        <ele>227.969727</ele>
        <time>2013-04-26T14:47:36Z</time>
      </trkpt>
      <trkpt lat="43.72776" lon="3.60094">
        <ele>226.527832</ele>
        <time>2013-04-26T14:47:59Z</time>
      </trkpt>
      <trkpt lat="43.72803" lon="3.60101">
        <ele>225.085938</ele>
        <time>2013-04-26T14:48:19Z</time>
      </trkpt>
      <trkpt lat="43.72836" lon="3.60112">
        <ele>223.643799</ele>
        <time>2013-04-26T14:48:43Z</time>
      </trkpt>
      <trkpt lat="43.72851" lon="3.60134">
        <ele>223.643799</ele>
        <time>2013-04-26T14:49:01Z</time>
      </trkpt>
      <trkpt lat="43.72854" lon="3.60136">
        <ele>223.163208</ele>
        <time>2013-04-26T14:49:04Z</time>
      </trkpt>
      <trkpt lat="43.72859" lon="3.60143">
        <ele>227.008545</ele>
        <time>2013-04-26T14:49:22Z</time>
      </trkpt>
      <trkpt lat="43.72859" lon="3.60143">
        <ele>227.008545</ele>
        <time>2013-04-26T14:49:23Z</time>
      </trkpt>
      <trkpt lat="43.72859" lon="3.60143">
        <ele>222.201782</ele>
        <time>2013-04-26T14:49:24Z</time>
      </trkpt>
      <trkpt lat="43.72859" lon="3.60143">
        <ele>222.201782</ele>
        <time>2013-04-26T14:49:25Z</time>
      </trkpt>
      <trkpt lat="43.7286" lon="3.60143">
        <ele>223.643799</ele>
        <time>2013-04-26T14:49:44Z</time>
      </trkpt>
      <trkpt lat="43.7286" lon="3.60143">
        <ele>222.682495</ele>
        <time>2013-04-26T14:50:19Z</time>
      </trkpt>
      <trkpt lat="43.7286" lon="3.60143">
        <ele>224.124512</ele>
        <time>2013-04-26T14:50:28Z</time>
      </trkpt>
    </trkseg>
  </trk>
</gpx>